[[{"header":{"parameterUnit":"m.s-1","parameterCategory":1,"la1":31.0,"la2":29.5877,"lo1":-88.7671,"lo2":-86.6584,"dx":0.0162,"dy":0.0185,"nx":115,"ny":88,"refTime":"2023-01-22T18:00:00:Z","depth":0,"parameterNumber":2,"parameterNumberName":"U-component_of_WINDS"},"data":[0.0,0.0,0.0,0.0,0.0,0.0,0.0,0.0,0.0,0.0,0.0,0.0,0.0,0.0,0.0,0.0,0.0,0.0,0.0,0.0,0.0,0.0,0.0,0.0,0.0,0.0,0.0,0.0,0.0,0.0,0.0,0.0,0.0,0.0,0.0,0.0,0.0,0.0,0.0,0.0,0.0,0.0,0.0,0.0,0.0,0.0,0.0,0.0,0.0,0.0,0.0,0.0,0.0,0.0,0.0,0.0,0.0,0.0,0.0,0.0,0.0,0.0,0.0,0.0,0.0,0.0,0.0,0.0,0.0,0.0,0.0,0.0,0.0,0.0,0.0,0.0,0.0,0.0,0.0,0.0,0.0,0.0,0.0,0.0,0.0,0.0,0.0,0.0,0.0,0.0,0.0,0.0,0.0,0.0,0.0,0.0,0.0,0.0,0.0,0.0,0.0,0.0,0.0,0.0,0.0,0.0,0.0,0.0,0.0,0.0,0.0,0.0,0.0,0.0,0.0,0.0,0.0,0.0,0.0,0.0,0.0,0.0,0.0,0.0,0.0,0.0,0.0,0.0,0.0,0.0,0.0,0.0,0.0,0.0,0.0,0.0,0.0,0.0,0.0,0.0,0.0,0.0,0.0,0.0,0.0,0.0,0.0,0.0,0.0,0.0,0.0,0.0,0.0,0.0,0.0,0.0,0.0,0.0,0.0,0.0,0.0,0.0,0.0,0.0,0.0,0.0,0.0,0.0,0.0,0.0,0.0,0.0,0.0,0.0,0.0,0.0,0.0,0.0,0.0,0.0,0.0,0.0,0.0,0.0,0.0,0.0,0.0,0.0,0.0,0.0,0.0,0.0,0.0,0.0,0.0,0.0,0.0,0.0,0.0,0.0,0.0,0.0,0.0,0.0,0.0,0.0,0.0,0.0,0.0,0.0,0.0,0.0,0.0,0.0,0.0,0.0,0.0,0.0,0.0,0.0,0.0,0.0,0.0,0.0,0.0,0.0,0.0,0.0,0.0,0.0,0.0,0.0,0.0,0.0,0.0,0.0,0.0,0.0,0.0,0.0,0.0,0.0,0.0,0.0,0.0,0.0,0.0,0.0,0.0,0.0,0.0,0.0,0.0,0.0,0.0,0.0,0.0,0.0,0.0,0.0,0.0,0.0,0.0,0.0,0.0,0.0,0.0,0.0,0.0,0.0,0.0,0.0,0.0,0.0,0.0,0.0,0.0,0.0,0.0,0.0,0.0,0.0,0.0,0.0,0.0,0.0,0.0,0.0,0.0,0.0,0.0,0.0,0.0,0.0,0.0,0.0,0.0,0.0,0.0,0.0,0.0,0.0,0.0,0.0,0.0,0.0,0.0,0.0,0.0,0.0,0.0,0.0,0.0,0.0,0.0,0.0,0.0,0.0,0.0,0.0,0.0,0.0,0.0,0.0,0.0,0.0,0.0,0.0,0.0,0.0,0.0,0.0,0.0,0.0,0.0,0.0,0.0,0.0,0.0,0.0,0.0,0.0,0.0,0.0,0.0,0.0,0.0,0.0,0.0,0.0,0.0,0.0,0.0,0.0,0.0,0.0,0.0,0.0,0.0,0.0,0.0,0.0,0.0,0.0,0.0,0.0,0.0,0.0,0.0,0.0,0.0,0.0,0.0,0.0,0.0,0.0,0.0,0.0,0.0,0.0,0.0,0.0,0.0,0.0,0.0,0.0,0.0,0.0,0.0,0.0,0.0,0.0,0.0,0.0,0.0,0.0,0.0,0.0,0.0,0.0,0.0,0.0,0.0,0.0,0.0,0.0,0.0,0.0,0.0,0.0,0.0,0.0,0.0,0.0,0.0,0.0,0.0,0.0,0.0,0.0,0.0,0.0,0.0,0.0,0.0,0.0,0.0,0.0,0.0,0.0,0.0,0.0,0.0,0.0,0.0,0.0,0.0,0.0,0.0,0.0,0.0,0.0,0.0,0.0,0.0,0.0,0.0,0.0,0.0,0.0,0.0,0.0,0.0,0.0,0.0,0.0,0.0,0.0,0.0,0.0,0.0,0.0,0.0,0.0,0.0,0.0,0.0,0.0,0.0,0.0,0.0,0.0,0.0,0.0,0.0,0.0,0.0,0.0,0.0,0.0,0.0,0.0,0.0,0.0,0.0,0.0,0.0,0.0,0.0,0.0,0.0,0.0,0.0,0.0,0.0,0.0,0.0,0.0,0.0,0.0,0.0,0.0,0.0,0.0,0.0,0.0,0.0,0.0,0.0,0.0,0.0,0.0,0.0,0.0,0.0,0.0,0.0,0.0,0.0,0.0,0.0,0.0,0.0,0.0,0.0,0.0,0.0,0.0,0.0,0.0,0.0,0.0,0.0,0.0,0.0,0.0,0.0,0.0,0.0,0.0,0.0,0.0,0.0,0.0,0.0,0.0,0.0,0.0,0.0,0.0,0.0,0.0,0.0,0.0,0.0,0.0,0.0,0.0,0.0,0.0,0.0,0.0,0.0,0.0,0.0,0.0,0.0,0.0,0.0,0.0,0.0,0.0,0.0,0.0,0.0,0.0,0.0,0.0,0.0,0.0,0.0,0.0,0.0,0.0,0.0,0.0,0.0,0.0,0.0,0.0,0.0,0.0,0.0,0.0,0.0,0.0,0.0,0.0,0.0,0.0,0.0,0.0,0.0,0.0,0.0,0.0,0.0,0.0,0.0,0.0,0.0,0.0,0.0,0.0,0.0,0.0,0.0,0.0,0.0,0.0,0.0,0.0,0.0,0.0,0.0,0.0,0.0,0.0,0.0,0.0,0.0,0.0,0.0,0.0,0.0,0.0,0.0,0.0,0.0,0.0,0.0,0.0,0.0,0.0,0.0,0.0,0.0,0.0,0.0,0.0,0.0,0.0,0.0,0.0,0.0,0.0,0.0,0.0,0.0,0.0,0.0,0.0,0.0,0.0,0.0,0.0,0.0,0.0,0.0,0.0,0.0,0.0,0.0,0.0,0.0,0.0,0.0,0.0,0.0,0.0,0.0,0.0,0.0,0.0,0.0,0.0,0.0,0.0,0.0,0.0,0.0,0.0,0.0,0.0,0.0,0.0,0.0,0.0,0.0,0.0,0.0,0.0,0.0,0.0,0.0,0.0,0.0,0.0,0.0,0.0,0.0,0.0,0.0,0.0,0.0,0.0,0.0,0.0,0.0,0.0,0.0,0.0,0.0,0.0,0.0,0.0,0.0,0.0,0.0,0.0,0.0,0.0,0.0,0.0,0.0,0.0,0.0,0.0,0.0,0.0,0.0,0.0,0.0,0.0,0.0,0.0,0.0,0.0,0.0,0.0,0.0,0.0,0.0,0.0,0.0,0.0,0.0,0.0,0.0,0.0,0.0,0.0,0.0,0.0,0.0,0.0,0.0,0.0,0.0,0.0,0.0,0.0,0.0,0.0,0.0,0.0,0.0,0.0,0.0,0.0,0.0,0.0,0.0,0.0,0.0,0.0,0.0,0.0,0.0,0.0,0.0,0.0,0.0,0.0,0.0,0.0,0.0,0.0,0.0,0.0,0.0,0.0,0.0,0.0,0.0,0.0,0.0,0.0,0.0,0.0,0.0,0.0,0.0,0.0,0.0,0.0,0.0,0.0,0.0,0.0,0.0,0.0,0.0,0.0,0.0,0.0,0.0,0.0,0.0,0.0,0.0,0.0,0.0,0.0,0.0,0.0,0.0,0.0,0.0,0.0,0.0,0.0,0.0,0.0,0.0,0.0,0.0,0.0,0.0,0.0,0.0,0.0,0.0,0.0,0.0,0.0,0.0,0.0,0.0,0.0,0.0,0.0,0.0,0.0,0.0,0.0,0.0,0.0,0.0,0.0,0.0,0.0,0.0,0.0,0.0,0.0,0.0,0.0,0.0,0.0,0.0,0.0,0.0,0.0,0.0,0.0,0.0,0.0,0.0,0.0,0.0,0.0,0.0,0.0,0.0,0.0,0.0,0.0,0.0,0.0,0.0,0.0,0.0,0.0,0.0,0.0,0.0,0.0,0.0,0.0,0.0,0.0,0.0,0.0,0.0,0.0,0.0,0.0,0.0,0.0,0.0,0.0,0.0,0.0,0.0,0.0,0.0,0.0,0.0,0.0,0.0,0.0,0.0,0.0,0.0,0.0,0.0,0.0,0.0,0.0,0.0,0.0,0.0,0.0,0.0,0.0,0.0,0.0,0.0,0.0,0.0,0.0,0.0,0.0,0.0,0.0,0.0,0.0,0.0,0.0,0.0,0.0,0.0,0.0,0.0,0.0,2.3125,0.0,0.0,0.0,0.0,0.0,0.0,0.0,0.0,0.0,0.0,0.0,0.0,0.0,0.0,0.0,0.0,0.0,0.0,0.0,0.0,0.0,0.0,0.0,0.0,0.0,0.0,0.0,0.0,0.0,0.0,0.0,0.0,0.0,0.0,0.0,0.0,0.0,0.0,0.0,0.0,0.0,0.0,0.0,0.0,0.0,0.0,0.0,0.0,0.0,0.0,0.0,0.0,0.0,0.0,0.0,0.0,0.0,0.0,0.0,0.0,0.0,0.0,0.0,0.0,0.0,0.0,0.0,0.0,0.0,0.0,0.0,0.0,0.0,0.0,0.0,0.0,0.0,0.0,0.0,0.0,0.0,0.0,0.0,0.0,0.0,0.0,0.0,0.0,0.0,0.0,0.0,0.0,0.0,0.0,0.0,0.0,0.0,0.0,0.0,0.0,0.0,0.0,0.0,0.0,0.0,0.0,0.0,0.0,0.0,0.0,2.3276,2.3602,2.3615,2.3753,2.4017,0.0,0.0,0.0,0.0,0.0,0.0,0.0,0.0,0.0,0.0,0.0,0.0,0.0,0.0,0.0,0.0,0.0,0.0,0.0,0.0,0.0,0.0,0.0,0.0,0.0,0.0,0.0,0.0,0.0,0.0,0.0,0.0,0.0,0.0,0.0,0.0,0.0,0.0,0.0,0.0,0.0,0.0,0.0,0.0,0.0,0.0,0.0,0.0,0.0,0.0,0.0,0.0,0.0,0.0,0.0,0.0,0.0,0.0,0.0,0.0,0.0,0.0,0.0,0.0,0.0,0.0,0.0,0.0,0.0,0.0,0.0,0.0,0.0,0.0,0.0,0.0,0.0,0.0,0.0,0.0,0.0,0.0,0.0,0.0,0.0,0.0,0.0,0.0,0.0,0.0,0.0,0.0,0.0,0.0,0.0,0.0,0.0,0.0,0.0,0.0,0.0,0.0,0.0,0.0,0.0,0.0,0.0,0.0,0.0,0.0,0.0,0.0,2.4117,2.4443,2.4958,0.0,0.0,0.0,0.0,0.0,0.0,0.0,0.0,0.0,0.0,0.0,0.0,0.0,0.0,0.0,0.0,0.0,0.0,0.0,0.0,0.0,0.0,0.0,0.0,0.0,0.0,0.0,0.0,0.0,0.0,0.0,0.0,0.0,0.0,0.0,0.0,0.0,0.0,0.0,0.0,0.0,0.0,0.0,0.0,0.0,0.0,0.0,0.0,0.0,0.0,0.0,0.0,0.0,0.0,0.0,0.0,0.0,0.0,0.0,0.0,0.0,0.0,0.0,0.0,0.0,0.0,0.0,0.0,0.0,0.0,0.0,0.0,0.0,0.0,0.0,0.0,0.0,0.0,0.0,0.0,0.0,0.0,0.0,0.0,0.0,0.0,0.0,0.0,0.0,0.0,0.0,0.0,0.0,0.0,0.0,0.0,0.0,0.0,0.0,0.0,0.0,0.0,0.0,0.0,0.0,0.0,0.0,0.0,0.0,0.0,2.3941,2.4004,2.4494,0.0,2.5473,0.0,0.0,0.0,0.0,0.0,0.0,0.0,0.0,0.0,0.0,0.0,0.0,0.0,0.0,0.0,0.0,0.0,0.0,0.0,0.0,0.0,0.0,0.0,0.0,0.0,0.0,0.0,0.0,0.0,0.0,0.0,0.0,0.0,0.0,0.0,0.0,0.0,0.0,0.0,0.0,0.0,0.0,0.0,0.0,0.0,0.0,0.0,0.0,0.0,0.0,0.0,0.0,0.0,0.0,0.0,0.0,0.0,0.0,0.0,0.0,0.0,0.0,0.0,0.0,0.0,0.0,0.0,0.0,0.0,0.0,0.0,0.0,0.0,0.0,0.0,0.0,0.0,0.0,0.0,0.0,0.0,0.0,0.0,0.0,0.0,0.0,0.0,0.0,0.0,0.0,0.0,0.0,0.0,0.0,0.0,0.0,0.0,0.0,0.0,0.0,0.0,0.0,0.0,0.0,0.0,0.0,0.0,0.0,0.0,0.0,2.4632,2.4946,2.5498,2.5887,0.0,0.0,0.0,0.0,0.0,0.0,0.0,0.0,0.0,0.0,0.0,0.0,0.0,0.0,0.0,0.0,0.0,0.0,0.0,0.0,0.0,0.0,0.0,0.0,0.0,0.0,0.0,0.0,0.0,0.0,0.0,0.0,0.0,0.0,0.0,0.0,0.0,0.0,0.0,0.0,0.0,0.0,0.0,0.0,0.0,0.0,0.0,0.0,0.0,0.0,0.0,0.0,0.0,0.0,0.0,0.0,0.0,0.0,0.0,0.0,0.0,0.0,0.0,0.0,0.0,0.0,0.0,0.0,0.0,0.0,0.0,0.0,0.0,0.0,0.0,0.0,0.0,0.0,0.0,0.0,0.0,0.0,0.0,0.0,0.0,0.0,0.0,0.0,0.0,0.0,0.0,0.0,0.0,0.0,0.0,0.0,0.0,0.0,0.0,0.0,0.0,0.0,0.0,0.0,0.0,0.0,0.0,0.0,0.0,0.0,2.4669,2.5297,2.5824,2.6389,2.6753,2.6904,0.0,0.0,0.0,0.0,0.0,0.0,0.0,0.0,0.0,0.0,0.0,0.0,0.0,0.0,0.0,0.0,0.0,0.0,0.0,0.0,0.0,0.0,0.0,0.0,0.0,0.0,0.0,0.0,0.0,0.0,0.0,0.0,0.0,0.0,0.0,0.0,0.0,0.0,0.0,0.0,0.0,0.0,0.0,0.0,0.0,0.0,0.0,0.0,0.0,0.0,0.0,0.0,0.0,0.0,0.0,0.0,0.0,0.0,0.0,0.0,0.0,0.0,0.0,0.0,0.0,0.0,0.0,0.0,0.0,0.0,0.0,0.0,0.0,0.0,0.0,0.0,0.0,0.0,0.0,0.0,0.0,0.0,0.0,0.0,0.0,0.0,0.0,0.0,0.0,0.0,0.0,0.0,0.0,0.0,0.0,0.0,0.0,0.0,0.0,0.0,0.0,0.0,0.0,0.0,0.0,0.0,0.0,0.0,2.4054,2.5046,2.585,2.6483,2.6954,2.7494,0.0,0.0,0.0,0.0,0.0,0.0,0.0,0.0,0.0,0.0,0.0,0.0,0.0,0.0,0.0,0.0,0.0,0.0,0.0,0.0,0.0,0.0,0.0,0.0,0.0,0.0,0.0,0.0,0.0,0.0,0.0,0.0,0.0,0.0,0.0,0.0,0.0,0.0,0.0,0.0,0.0,0.0,0.0,0.0,0.0,0.0,0.0,0.0,0.0,0.0,0.0,0.0,0.0,0.0,0.0,0.0,0.0,0.0,0.0,0.0,0.0,0.0,0.0,0.0,0.0,0.0,0.0,0.0,0.0,0.0,0.0,0.0,0.0,0.0,0.0,0.0,0.0,0.0,0.0,0.0,0.0,0.0,0.0,0.0,0.0,0.0,0.0,0.0,0.0,0.0,0.0,0.0,0.0,0.0,0.0,0.0,0.0,0.0,0.0,0.0,0.0,0.0,0.0,0.0,0.0,0.0,0.0,0.0,0.0,2.5561,2.6302,2.7278,2.8347,2.8041,2.835,0.0,0.0,0.0,0.0,0.0,0.0,0.0,0.0,0.0,0.0,0.0,0.0,0.0,0.0,0.0,0.0,0.0,0.0,0.0,0.0,0.0,0.0,0.0,0.0,0.0,0.0,0.0,0.0,0.0,0.0,0.0,0.0,0.0,0.0,0.0,0.0,0.0,0.0,0.0,0.0,0.0,0.0,0.0,0.0,0.0,0.0,0.0,0.0,0.0,0.0,0.0,0.0,0.0,0.0,0.0,0.0,0.0,0.0,0.0,0.0,0.0,0.0,0.0,0.0,0.0,0.0,0.0,0.0,0.0,0.0,0.0,0.0,0.0,0.0,0.0,0.0,0.0,0.0,0.0,0.0,0.0,0.0,0.0,0.0,0.0,0.0,0.0,0.0,0.0,0.0,0.0,0.0,0.0,0.0,0.0,0.0,0.0,0.0,0.0,0.0,0.0,0.0,0.0,0.0,0.0,0.0,0.0,0.0,0.0,2.7391,0.0,2.9,2.9899,2.9249,2.9331,0.0,0.0,0.0,0.0,0.0,0.0,0.0,0.0,0.0,0.0,0.0,0.0,0.0,0.0,0.0,0.0,0.0,0.0,0.0,0.0,0.0,0.0,0.0,0.0,0.0,0.0,0.0,0.0,0.0,0.0,0.0,0.0,0.0,0.0,0.0,0.0,0.0,0.0,0.0,0.0,0.0,0.0,0.0,0.0,0.0,0.0,0.0,0.0,0.0,0.0,0.0,0.0,0.0,0.0,0.0,0.0,0.0,0.0,0.0,0.0,0.0,0.0,0.0,0.0,0.0,0.0,0.0,0.0,0.0,0.0,0.0,0.0,0.0,0.0,0.0,0.0,0.0,0.0,0.0,0.0,0.0,0.0,0.0,0.0,0.0,0.0,0.0,0.0,0.0,0.0,0.0,0.0,0.0,0.0,0.0,0.0,0.0,0.0,0.0,0.0,0.0,0.0,0.0,0.0,0.0,0.0,0.0,0.0,2.6973,2.9359,3.0392,3.0893,3.0973,3.0613,3.0375,0.0,0.0,0.0,0.0,0.0,0.0,0.0,0.0,0.0,0.0,0.0,0.0,0.0,0.0,0.0,0.0,0.0,0.0,0.0,0.0,0.0,0.0,0.0,0.0,0.0,0.0,0.0,0.0,0.0,0.0,0.0,0.0,0.0,0.0,0.0,0.0,0.0,0.0,0.0,0.0,0.0,0.0,0.0,0.0,0.0,0.0,0.0,0.0,0.0,0.0,0.0,0.0,0.0,0.0,0.0,0.0,0.0,0.0,0.0,0.0,0.0,0.0,0.0,0.0,0.0,0.0,0.0,0.0,0.0,0.0,0.0,0.0,0.0,0.0,0.0,0.0,0.0,0.0,0.0,0.0,0.0,0.0,0.0,0.0,0.0,0.0,0.0,0.0,0.0,0.0,0.0,0.0,0.0,0.0,0.0,0.0,0.0,0.0,0.0,0.0,0.0,0.0,0.0,0.0,0.0,0.0,0.0,0.0,0.0,2.9142,3.067,3.175,3.2027,3.132,3.1573,0.0,0.0,0.0,0.0,0.0,0.0,0.0,0.0,0.0,0.0,0.0,0.0,0.0,0.0,0.0,0.0,0.0,0.0,0.0,0.0,0.0,0.0,0.0,0.0,0.0,0.0,0.0,0.0,0.0,0.0,0.0,0.0,0.0,0.0,0.0,0.0,0.0,0.0,0.0,0.0,0.0,0.0,0.0,0.0,0.0,0.0,0.0,0.0,0.0,0.0,0.0,0.0,0.0,0.0,0.0,0.0,0.0,0.0,0.0,0.0,0.0,0.0,0.0,0.0,0.0,0.0,0.0,0.0,0.0,0.0,0.0,0.0,0.0,0.0,0.0,0.0,0.0,0.0,0.0,0.0,0.0,0.0,0.0,0.0,0.0,0.0,0.0,0.0,0.0,0.0,0.0,0.0,0.0,0.0,0.0,0.0,0.0,0.0,0.0,0.0,0.0,0.0,0.0,0.0,0.0,0.0,0.0,0.0,0.0,3.0506,3.218,3.3368,3.3685,3.2971,3.3042,3.3905,0.0,0.0,0.0,0.0,0.0,0.0,0.0,0.0,0.0,0.0,0.0,0.0,0.0,0.0,0.0,0.0,0.0,0.0,0.0,0.0,0.0,0.0,0.0,0.0,0.0,0.0,0.0,0.0,0.0,0.0,0.0,0.0,0.0,0.0,0.0,0.0,0.0,0.0,0.0,0.0,0.0,0.0,0.0,0.0,0.0,0.0,0.0,0.0,0.0,0.0,0.0,0.0,0.0,0.0,0.0,0.0,0.0,0.0,0.0,0.0,0.0,0.0,0.0,0.0,0.0,0.0,0.0,0.0,0.0,0.0,0.0,0.0,0.0,0.0,0.0,0.0,0.0,0.0,0.0,0.0,0.0,0.0,0.0,0.0,0.0,0.0,0.0,0.0,0.0,0.0,0.0,0.0,0.0,0.0,0.0,0.0,0.0,0.0,0.0,0.0,0.0,0.0,0.0,0.0,0.0,0.0,0.0,0.0,3.2791,3.4601,3.5469,3.5359,3.5073,3.4744,0.0,0.0,0.0,0.0,0.0,0.0,0.0,0.0,0.0,0.0,0.0,0.0,0.0,0.0,0.0,0.0,0.0,0.0,0.0,0.0,0.0,0.0,0.0,0.0,0.0,0.0,0.0,0.0,0.0,0.0,0.0,0.0,0.0,0.0,0.0,0.0,0.0,0.0,0.0,0.0,0.0,0.0,0.0,0.0,0.0,0.0,0.0,0.0,0.0,0.0,0.0,0.0,0.0,0.0,0.0,0.0,0.0,0.0,0.0,0.0,0.0,0.0,0.0,0.0,0.0,0.0,0.0,0.0,0.0,0.0,0.0,0.0,0.0,0.0,0.0,0.0,0.0,0.0,0.0,0.0,0.0,0.0,0.0,0.0,0.0,0.0,0.0,0.0,0.0,0.0,0.0,0.0,0.0,0.0,0.0,0.0,0.0,0.0,0.0,0.0,0.0,0.0,0.0,0.0,0.0,0.0,0.0,0.0,0.0,3.4481,3.5628,3.5622,3.4438,3.4784,3.5267,0.0,0.0,0.0,0.0,0.0,0.0,0.0,0.0,0.0,0.0,0.0,0.0,0.0,0.0,0.0,0.0,0.0,0.0,0.0,0.0,0.0,0.0,0.0,0.0,0.0,0.0,0.0,0.0,0.0,0.0,0.0,0.0,0.0,0.0,0.0,0.0,0.0,0.0,0.0,0.0,0.0,0.0,0.0,0.0,0.0,0.0,0.0,0.0,0.0,0.0,0.0,0.0,0.0,0.0,0.0,0.0,0.0,0.0,0.0,0.0,0.0,0.0,0.0,0.0,0.0,0.0,0.0,0.0,0.0,0.0,0.0,0.0,0.0,0.0,0.0,0.0,0.0,0.0,0.0,0.0,0.0,0.0,0.0,0.0,0.0,0.0,0.0,0.0,0.0,0.0,0.0,0.0,0.0,0.0,0.0,0.0,0.0,0.0,0.0,0.0,0.0,0.0,0.0,0.0,0.0,0.0,0.0,0.0,3.6193,3.6025,3.6565,3.6372,3.5483,3.6084,3.6541,0.0,0.0,0.0,0.0,0.0,0.0,0.0,0.0,0.0,0.0,0.0,0.0,0.0,0.0,0.0,0.0,0.0,0.0,0.0,0.0,0.0,0.0,0.0,0.0,0.0,0.0,0.0,0.0,0.0,0.0,0.0,0.0,0.0,0.0,0.0,0.0,0.0,0.0,0.0,0.0,0.0,0.0,0.0,0.0,0.0,0.0,0.0,0.0,0.0,0.0,0.0,0.0,0.0,0.0,0.0,0.0,0.0,0.0,0.0,0.0,0.0,0.0,0.0,0.0,0.0,0.0,0.0,0.0,0.0,0.0,0.0,0.0,0.0,0.0,0.0,0.0,0.0,0.0,0.0,0.0,0.0,0.0,0.0,0.0,0.0,0.0,0.0,0.0,0.0,0.0,0.0,0.0,0.0,0.0,0.0,0.0,0.0,0.0,0.0,0.0,0.0,0.0,0.0,0.0,0.0,0.0,0.0,0.0,3.7449,3.7509,3.7509,3.7554,3.7629,3.8123,3.8123,0.0,0.0,0.0,0.0,0.0,0.0,0.0,0.0,0.0,0.0,0.0,0.0,0.0,0.0,0.0,0.0,0.0,0.0,0.0,0.0,0.0,0.0,0.0,0.0,0.0,0.0,0.0,0.0,0.0,0.0,0.0,0.0,0.0,0.0,0.0,0.0,0.0,0.0,0.0,0.0,0.0,0.0,0.0,0.0,0.0,0.0,0.0,0.0,0.0,0.0,0.0,0.0,0.0,0.0,0.0,0.0,0.0,0.0,0.0,0.0,0.0,0.0,0.0,0.0,0.0,0.0,0.0,0.0,0.0,0.0,0.0,0.0,0.0,0.0,0.0,0.0,0.0,0.0,0.0,0.0,0.0,0.0,0.0,0.0,0.0,0.0,0.0,0.0,0.0,0.0,0.0,0.0,0.0,0.0,0.0,0.0,0.0,0.0,0.0,0.0,0.0,0.0,0.0,0.0,0.0,0.0,0.0,0.0,3.7659,3.8153,3.8182,3.8452,3.8975,3.8601,3.8317,0.0,0.0,0.0,0.0,0.0,0.0,0.0,0.0,0.0,0.0,0.0,0.0,0.0,0.0,0.0,0.0,0.0,0.0,0.0,0.0,0.0,0.0,0.0,0.0,0.0,0.0,0.0,0.0,0.0,0.0,0.0,0.0,0.0,0.0,0.0,0.0,0.0,0.0,0.0,0.0,0.0,0.0,0.0,0.0,0.0,0.0,0.0,0.0,3.0129,0.0,0.0,0.0,0.0,0.0,0.0,0.0,0.0,0.0,0.0,0.0,0.0,0.0,0.0,0.0,0.0,0.0,0.0,0.0,0.0,0.0,0.0,0.0,0.0,0.0,0.0,0.0,0.0,0.0,0.0,0.0,0.0,0.0,0.0,0.0,0.0,0.0,0.0,0.0,0.0,0.0,0.0,0.0,0.0,0.0,0.0,0.0,0.0,0.0,0.0,0.0,0.0,0.0,0.0,0.0,0.0,0.0,0.0,0.0,3.8527,3.8871,3.8871,3.905,3.9394,3.9065,3.8871,0.0,0.0,0.0,0.0,0.0,0.0,0.0,0.0,0.0,0.0,0.0,0.0,0.0,0.0,0.0,0.0,0.0,0.0,0.0,0.0,0.0,0.0,0.0,0.0,0.0,0.0,0.0,0.0,0.0,0.0,0.0,0.0,0.0,0.0,0.0,0.0,0.0,0.0,0.0,0.0,0.0,0.0,0.0,0.0,0.0,0.0,0.0,0.0,0.0,0.0,0.0,0.0,0.0,0.0,0.0,0.0,0.0,0.0,0.0,0.0,0.0,0.0,0.0,0.0,0.0,0.0,0.0,0.0,0.0,0.0,0.0,0.0,0.0,0.0,0.0,0.0,0.0,0.0,0.0,0.0,0.0,0.0,0.0,0.0,0.0,0.0,0.0,0.0,0.0,0.0,0.0,0.0,0.0,0.0,0.0,0.0,0.0,0.0,0.0,0.0,0.0,0.0,0.0,0.0,0.0,0.0,0.0,3.9065,3.9424,3.9424,3.9424,3.9424,3.9424,3.9424,3.9424,3.9409,0.0,0.0,0.0,0.0,0.0,0.0,0.0,0.0,0.0,0.0,0.0,0.0,0.0,0.0,0.0,0.0,0.0,0.0,0.0,0.0,0.0,0.0,0.0,0.0,0.0,0.0,0.0,0.0,0.0,0.0,0.0,0.0,0.0,0.0,0.0,0.0,0.0,0.0,2.8864,3.0498,0.0,0.0,0.0,0.0,0.0,0.0,0.0,0.0,3.4817,0.0,0.0,0.0,0.0,0.0,0.0,0.0,0.0,0.0,0.0,0.0,0.0,0.0,0.0,0.0,0.0,0.0,0.0,0.0,0.0,0.0,0.0,0.0,0.0,0.0,0.0,0.0,0.0,0.0,0.0,0.0,0.0,0.0,0.0,0.0,0.0,0.0,0.0,0.0,0.0,0.0,0.0,0.0,0.0,0.0,0.0,0.0,0.0,0.0,0.0,0.0,0.0,0.0,0.0,0.0,0.0,3.8392,3.9065,3.9424,3.9424,3.9424,3.9424,3.9424,3.9424,3.9424,3.9424,0.0,0.0,0.0,0.0,0.0,0.0,0.0,0.0,0.0,0.0,0.0,0.0,0.0,0.0,0.0,0.0,0.0,0.0,0.0,0.0,0.0,0.0,0.0,0.0,0.0,0.0,0.0,0.0,0.0,0.0,0.0,0.0,0.0,0.0,0.0,0.0,0.0,0.0,0.0,3.301,3.3678,0.0,0.0,0.0,0.0,0.0,0.0,0.0,0.0,3.5626,0.0,0.0,0.0,0.0,0.0,0.0,0.0,0.0,0.0,0.0,0.0,0.0,0.0,0.0,0.0,0.0,0.0,0.0,0.0,0.0,0.0,0.0,0.0,0.0,0.0,0.0,0.0,0.0,0.0,0.0,0.0,0.0,0.0,0.0,0.0,0.0,0.0,0.0,0.0,0.0,0.0,0.0,0.0,0.0,0.0,0.0,0.0,0.0,0.0,0.0,0.0,0.0,0.0,0.0,0.0,3.8916,3.9245,3.9424,3.9424,3.9424,3.9424,3.9424,3.9424,3.9424,0.0,0.0,0.0,0.0,0.0,0.0,0.0,0.0,0.0,0.0,0.0,0.0,0.0,0.0,0.0,0.0,0.0,0.0,0.0,0.0,0.0,0.0,0.0,0.0,0.0,0.0,0.0,0.0,0.0,0.0,0.0,0.0,0.0,0.0,0.0,0.0,0.0,0.0,0.0,0.0,3.4852,3.511,3.5927,0.0,0.0,0.0,0.0,0.0,0.0,3.7752,3.7752,0.0,0.0,0.0,0.0,0.0,0.0,0.0,0.0,0.0,0.0,0.0,0.0,0.0,0.0,0.0,0.0,0.0,0.0,0.0,0.0,0.0,0.0,0.0,0.0,0.0,0.0,0.0,0.0,0.0,0.0,0.0,0.0,0.0,0.0,0.0,0.0,0.0,0.0,0.0,0.0,0.0,0.0,0.0,0.0,0.0,0.0,0.0,0.0,0.0,0.0,0.0,0.0,0.0,0.0,0.0,3.9409,3.9559,3.9619,3.9619,3.9753,3.9813,3.9813,3.9813,3.9813,0.0,0.0,0.0,0.0,0.0,0.0,0.0,0.0,0.0,0.0,0.0,0.0,0.0,0.0,0.0,0.0,0.0,0.0,0.0,0.0,0.0,0.0,0.0,0.0,0.0,0.0,0.0,0.0,0.0,0.0,0.0,0.0,0.0,0.0,0.0,0.0,0.0,0.0,0.0,0.0,0.0,3.6517,3.6663,3.7908,0.0,0.0,0.0,0.0,3.9649,3.9723,0.0,0.0,0.0,0.0,0.0,0.0,0.0,0.0,0.0,0.0,0.0,0.0,0.0,0.0,0.0,0.0,0.0,0.0,0.0,0.0,0.0,0.0,0.0,0.0,0.0,0.0,0.0,0.0,0.0,0.0,0.0,0.0,0.0,0.0,0.0,0.0,0.0,0.0,0.0,0.0,0.0,0.0,0.0,0.0,0.0,0.0,0.0,0.0,0.0,0.0,0.0,0.0,0.0,0.0,0.0,0.0,3.9439,3.9993,4.0292,4.0322,4.0861,4.116,4.1145,4.116,4.116,0.0,0.0,0.0,0.0,0.0,0.0,0.0,0.0,0.0,0.0,0.0,0.0,0.0,0.0,0.0,0.0,0.0,0.0,0.0,0.0,0.0,0.0,0.0,0.0,0.0,0.0,0.0,0.0,0.0,0.0,0.0,0.0,0.0,0.0,0.0,0.0,0.0,0.0,0.0,0.0,0.0,3.8326,3.8952,3.9681,3.989,0.0,0.0,0.0,4.0367,4.0771,0.0,0.0,0.0,0.0,0.0,0.0,0.0,0.0,0.0,0.0,0.0,0.0,0.0,0.0,0.0,0.0,0.0,0.0,0.0,0.0,0.0,0.0,0.0,0.0,0.0,0.0,0.0,0.0,0.0,0.0,0.0,0.0,0.0,0.0,0.0,0.0,0.0,0.0,0.0,0.0,0.0,0.0,0.0,0.0,0.0,0.0,0.0,0.0,0.0,0.0,0.0,0.0,0.0,0.0,0.0,3.9978,3.9993,4.0621,4.095,4.0965,4.1235,4.1384,4.1384,4.1384,4.1384,0.0,0.0,0.0,0.0,0.0,0.0,0.0,0.0,0.0,0.0,0.0,0.0,0.0,0.0,0.0,0.0,0.0,0.0,0.0,0.0,0.0,0.0,0.0,0.0,0.0,0.0,0.0,0.0,0.0,0.0,0.0,0.0,0.0,0.0,0.0,0.0,0.0,0.0,0.0,0.0,0.0,0.0,3.9933,4.0531,0.0,0.0,0.0,4.1265,4.0995,0.0,0.0,0.0,0.0,0.0,0.0,0.0,0.0,0.0,0.0,0.0,0.0,0.0,0.0,0.0,0.0,0.0,0.0,0.0,0.0,0.0,0.0,0.0,0.0,0.0,0.0,0.0,0.0,0.0,0.0,0.0,0.0,0.0,0.0,0.0,0.0,0.0,0.0,0.0,0.0,0.0,0.0,0.0,0.0,0.0,0.0,0.0,0.0,0.0,0.0,0.0,0.0,0.0,0.0,0.0,0.0,0.0,4.0651,4.1294,4.1624,4.1639,4.1788,4.1863,4.1878,4.1878,0.0,0.0,0.0,0.0,0.0,0.0,0.0,0.0,0.0,0.0,0.0,0.0,0.0,0.0,0.0,0.0,0.0,0.0,0.0,0.0,0.0,0.0,0.0,0.0,0.0,0.0,0.0,0.0,0.0,0.0,0.0,0.0,0.0,0.0,0.0,0.0,0.0,0.0,0.0,0.0,0.0,0.0,4.0651,4.0636,4.122,4.1564,0.0,0.0,4.1818,4.1654,4.1758,4.1878,0.0,0.0,0.0,0.0,0.0,0.0,0.0,0.0,0.0,0.0,0.0,0.0,0.0,0.0,0.0,0.0,0.0,0.0,0.0,0.0,0.0,0.0,0.0,0.0,0.0,0.0,0.0,0.0,0.0,0.0,0.0,0.0,0.0,0.0,0.0,0.0,0.0,0.0,0.0,0.0,0.0,0.0,0.0,0.0,0.0,0.0,0.0,0.0,0.0,0.0,0.0,0.0,0.0,0.0,0.0,4.1309,4.1968,4.2282,4.2389,4.2895,4.3195,4.3195,4.321,4.3195,0.0,0.0,0.0,0.0,0.0,0.0,0.0,0.0,0.0,0.0,0.0,0.0,0.0,0.0,0.0,0.0,0.0,0.0,0.0,0.0,0.0,0.0,0.0,0.0,0.0,0.0,0.0,0.0,0.0,0.0,0.0,0.0,0.0,0.0,0.0,0.0,0.0,0.0,0.0,0.0,0.0,4.1309,4.1324,4.1878,4.2087,0.0,0.0,4.3,4.2387,4.2806,4.3195,4.321,0.0,0.0,0.0,0.0,0.0,0.0,0.0,0.0,0.0,0.0,0.0,0.0,0.0,0.0,0.0,0.0,0.0,0.0,0.0,0.0,0.0,0.0,0.0,0.0,0.0,0.0,0.0,0.0,0.0,0.0,0.0,0.0,0.0,0.0,0.0,0.0,0.0,0.0,0.0,0.0,0.0,0.0,0.0,0.0,0.0,0.0,0.0,0.0,0.0,0.0,0.0,0.0,0.0,4.1743,4.1983,4.2626,4.2955,4.2955,4.321,4.3344,4.3344,4.3344,4.3344,0.0,0.0,0.0,0.0,0.0,0.0,0.0,0.0,0.0,0.0,0.0,0.0,0.0,0.0,0.0,0.0,0.0,0.0,0.0,0.0,0.0,0.0,0.0,0.0,0.0,0.0,0.0,0.0,3.7868,3.8182,3.8586,0.0,0.0,0.0,0.0,0.0,0.0,0.0,0.0,0.0,0.0,4.1983,4.1983,4.2536,0.0,0.0,4.3015,4.324,4.3,4.3165,4.3344,4.3344,4.3344,0.0,0.0,0.0,0.0,0.0,0.0,0.0,0.0,0.0,0.0,0.0,0.0,0.0,0.0,0.0,0.0,0.0,0.0,0.0,0.0,0.0,0.0,0.0,0.0,0.0,0.0,0.0,0.0,0.0,0.0,0.0,0.0,0.0,0.0,0.0,0.0,0.0,0.0,0.0,0.0,0.0,0.0,0.0,0.0,0.0,0.0,0.0,0.0,0.0,0.0,0.0,0.0,4.2462,4.2656,4.3105,4.3344,4.3344,4.3344,4.3344,4.3344,4.3344,4.3344,0.0,0.0,0.0,0.0,0.0,0.0,0.0,0.0,0.0,0.0,0.0,0.0,0.0,0.0,0.0,0.0,0.0,0.0,0.0,0.0,0.0,0.0,0.0,0.0,0.0,0.0,0.0,0.0,3.8571,3.896,3.9634,0.0,0.0,0.0,0.0,0.0,0.0,0.0,0.0,0.0,0.0,4.2656,4.2641,4.306,4.3344,4.3344,4.3344,4.3344,4.3344,4.3344,4.3344,4.3344,0.0,0.0,0.0,0.0,0.0,0.0,0.0,0.0,0.0,0.0,0.0,0.0,0.0,0.0,0.0,0.0,0.0,0.0,0.0,0.0,0.0,0.0,0.0,0.0,0.0,0.0,0.0,0.0,0.0,0.0,0.0,0.0,0.0,0.0,0.0,0.0,0.0,0.0,0.0,0.0,0.0,0.0,0.0,0.0,0.0,0.0,0.0,0.0,0.0,0.0,0.0,0.0,0.0,0.0,4.3299,4.3329,4.3344,4.3344,4.3344,4.3344,4.3344,4.3344,4.3344,4.3344,0.0,0.0,0.0,0.0,0.0,0.0,0.0,0.0,0.0,0.0,0.0,0.0,0.0,0.0,0.0,0.0,0.0,0.0,0.0,0.0,0.0,0.0,0.0,0.0,0.0,0.0,3.8437,3.9005,3.9679,0.0,0.0,0.0,0.0,0.0,0.0,0.0,0.0,0.0,0.0,4.2895,4.3314,4.3299,4.3314,4.3344,4.3344,4.3344,4.3344,4.3344,4.3344,4.3344,0.0,0.0,0.0,0.0,0.0,0.0,0.0,0.0,0.0,0.0,0.0,0.0,0.0,0.0,0.0,0.0,0.0,0.0,0.0,0.0,0.0,0.0,0.0,0.0,0.0,0.0,0.0,0.0,0.0,0.0,0.0,0.0,0.0,0.0,0.0,0.0,0.0,0.0,0.0,0.0,4.1609,4.2023,0.0,0.0,0.0,0.0,0.0,0.0,0.0,0.0,0.0,0.0,0.0,0.0,4.3105,4.3329,4.3344,4.3344,4.3344,4.3344,4.3344,4.3344,4.3344,4.3615,4.4297,0.0,0.0,0.0,0.0,0.0,0.0,0.0,0.0,0.0,0.0,0.0,0.0,0.0,0.0,0.0,0.0,0.0,0.0,0.0,0.0,0.0,0.0,0.0,0.0,0.0,3.9245,0.0,0.0,0.0,0.0,0.0,0.0,0.0,0.0,0.0,0.0,0.0,4.2521,4.2955,4.3195,4.3344,4.3344,4.3344,4.3344,0.0,0.0,0.0,0.0,0.0,0.0,0.0,0.0,0.0,0.0,0.0,0.0,0.0,0.0,4.3853,4.3404,4.3344,4.3344,4.3344,0.0,0.0,0.0,0.0,0.0,0.0,0.0,0.0,0.0,0.0,0.0,0.0,0.0,0.0,0.0,0.0,3.9152,0.0,0.0,0.0,0.0,0.0,0.0,0.0,0.0,4.2307,4.3123,4.3929,4.4136,4.4002,0.0,4.3895,4.3686,0.0,0.0,0.0,0.0,0.0,0.0,0.0,0.0,4.3344,4.3344,4.3344,4.3488,4.3771,4.3849,4.3989,4.4266,4.4327,4.4631,4.5285,4.5285,4.5561,0.0,0.0,0.0,0.0,0.0,0.0,0.0,0.0,0.0,0.0,0.0,0.0,0.0,0.0,0.0,0.0,0.0,0.0,0.0,0.0,0.0,0.0,0.0,4.0262,0.0,0.0,0.0,0.0,0.0,0.0,0.0,0.0,0.0,4.2686,4.2701,4.2851,4.3269,4.3344,4.3344,4.3344,0.0,0.0,0.0,0.0,0.0,0.0,0.0,4.4646,4.4661,4.5005,4.5289,4.5289,4.5289,4.5289,4.5289,0.0,0.0,4.3793,4.3479,4.3344,4.3344,4.3,4.2821,4.324,4.2985,4.2821,0.0,0.0,0.0,0.0,0.0,0.0,0.0,0.0,4.0228,4.026,0.0,0.0,0.0,0.0,0.0,0.0,0.0,0.0,0.0,0.0,4.4609,4.4707,4.5511,4.4756,4.4712,4.5218,4.4465,4.4739,4.6007,4.5555,0.0,0.0,0.0,0.0,0.0,0.0,4.3409,4.3488,4.3409,4.3849,4.4737,4.4737,4.5138,4.6032,4.6103,4.6103,4.6244,4.6244,4.626,4.626,4.6228,0.0,0.0,0.0,0.0,0.0,0.0,0.0,0.0,0.0,0.0,0.0,0.0,0.0,0.0,0.0,0.0,0.0,0.0,0.0,0.0,4.1414,0.0,0.0,0.0,0.0,0.0,0.0,0.0,0.0,0.0,0.0,4.3359,4.3329,4.3344,4.3374,0.0,0.0,0.0,0.0,4.4332,4.4347,4.4885,4.5274,4.5259,4.5304,4.5319,4.5334,0.0,0.0,4.5364,4.5364,4.5394,4.5364,4.5379,4.5125,4.4526,4.3898,4.3464,4.3449,4.3449,4.3404,4.3404,4.3494,4.3449,4.2558,0.0,0.0,0.0,0.0,4.3041,4.3331,4.3073,4.4318,4.4179,4.3024,4.386,0.0,0.0,0.0,0.0,0.0,0.0,4.4675,4.5511,4.5814,4.6413,4.72,4.75,4.7355,4.6928,4.7358,4.7026,4.6298,4.7375,4.6928,4.5173,0.0,0.0,0.0,0.0,4.54,4.5327,4.4706,4.451,4.4812,4.4066,4.422,4.5153,4.5227,4.5834,4.7172,4.7239,4.7172,4.7223,4.7172,0.0,0.0,0.0,0.0,0.0,0.0,0.0,0.0,0.0,0.0,0.0,0.0,0.0,0.0,0.0,0.0,0.0,0.0,0.0,4.1369,4.2222,4.2596,0.0,0.0,0.0,0.0,0.0,0.0,0.0,0.0,0.0,4.3973,4.3614,4.3494,0.0,0.0,4.4212,4.4661,4.4885,4.5005,4.502,0.0,0.0,0.0,4.5708,4.6037,4.6022,4.6411,4.6741,4.6726,4.6726,4.6726,4.6711,4.6337,4.5963,4.5768,4.52,4.4751,4.4721,4.4736,4.4736,4.4736,4.4736,4.4721,4.5185,4.3915,4.3654,4.3685,4.4139,4.5091,4.5415,4.5304,4.6334,4.6179,4.5304,4.5761,4.5643,4.5129,4.5404,0.0,0.0,0.0,4.6416,4.6908,4.7341,4.7843,4.8314,4.8798,4.8719,4.8161,4.837,4.808,4.7306,4.808,4.8229,4.7767,0.0,0.0,4.6189,4.6461,4.6589,4.6621,4.6386,4.6381,4.6748,4.6586,4.6716,4.7323,4.7307,4.7883,4.901,4.901,4.8877,4.8594,4.8577,4.8232,0.0,0.0,0.0,0.0,0.0,0.0,0.0,0.0,0.0,0.0,0.0,4.3958,0.0,0.0,0.0,0.0,4.3443,4.3337,4.3264,4.3987,0.0,0.0,0.0,0.0,0.0,0.0,0.0,4.3229,4.3479,4.3958,4.4601,4.4362,4.4257,4.4661,4.4706,4.4855,4.5229,0.0,4.5693,4.5708,4.5918,4.6082,4.6112,4.6426,4.6711,4.6726,4.7025,4.7294,4.7309,4.7309,4.7309,4.7264,4.698,4.6866,4.7228,4.6963,4.6312,4.5477,4.5289,4.5289,4.5289,4.5289,4.5289,4.6972,4.6836,4.526,4.5017,4.5702,4.5752,4.6224,4.6955,4.6972,4.6972,4.6972,4.6972,4.6871,4.6715,4.7423,0.0,0.0,4.8593,4.8984,4.9018,4.9018,4.9018,4.9018,4.9001,4.9035,4.9086,4.8244,4.8277,4.9125,4.8344,4.866,5.0088,4.866,4.747,4.6663,4.7274,4.7612,4.7629,4.8224,4.8923,4.9661,5.056,5.1006,5.1054,5.1071,5.1136,5.12,5.1217,5.0896,5.0236,5.0185,4.9881,4.9221,0.0,0.0,0.0,0.0,0.0,0.0,0.0,0.0,0.0,0.0,0.0,0.0,0.0,0.0,0.0,4.5945,0.0,4.6173,4.6173,0.0,0.0,0.0,4.5473,4.3832,4.4435,4.4925,4.469,0.0,0.0,0.0,0.0,4.5492,4.5522,4.5492,4.5394,4.5439,4.6022,4.6396,4.6396,4.695,4.7369,4.7324,4.7429,4.7692,4.792,4.7632,4.762,4.7865,4.762,4.7575,4.7779,4.7546,4.7789,4.8749,4.8929,4.8363,4.6486,4.5973,4.58,4.5778,4.5778,4.5725,4.8477,4.8477,4.8056,4.7658,4.7362,4.7962,4.8259,4.8477,4.8494,4.8477,4.8477,4.8477,4.8439,4.8421,4.8572,4.8656,4.8656,4.8877,4.9018,4.9018,4.9018,4.9018,4.9018,4.9018,4.9289,4.9813,4.9624,4.9894,5.0676,5.0466,5.0551,5.093,5.0551,5.0255,5.0025,5.0209,5.0309,5.0292,4.9733,4.9224,4.878,4.894,4.9452,5.0106,5.0123,5.0476,5.1153,5.1234,5.1133,5.0947,5.0947,5.0862,5.0693,5.0152,0.0,0.0,0.0,0.0,0.0,0.0,0.0,0.0,0.0,4.7564,4.6848,0.0,4.6664,0.0,4.7208,4.6968,4.6244,4.6173,0.0,0.0,4.6048,4.6255,4.6345,4.6554,4.6897,4.734,4.678,4.6811,4.8213,4.7053,4.6554,4.7711,4.6842,4.6262,4.6756,4.695,4.707,4.7145,4.7638,4.8042,4.816,4.8491,4.9406,5.1042,4.9996,4.9364,5.1042,4.991,4.9027,4.9824,4.9349,4.9349,5.0244,5.0428,5.057,5.0686,4.9947,4.889,4.8198,4.7953,4.7736,4.9018,4.9018,4.9018,4.8765,4.8443,4.8849,4.9018,4.9018,4.9018,4.9018,4.9018,4.9018,4.9018,4.9018,4.9018,4.9018,4.9035,4.9357,4.9475,4.9492,4.9847,4.9982,4.9982,4.9999,5.0202,5.0591,5.0591,5.0811,5.12,5.1234,5.1386,5.1708,5.1708,5.1877,5.2198,5.1877,5.1691,5.1708,5.1531,5.1187,5.0735,5.0665,5.0946,5.141,5.1427,5.1698,5.2232,5.2249,5.2063,5.1725,5.1708,5.1555,5.1217,5.0828,5.0591,0.0,0.0,0.0,0.0,0.0,0.0,0.0,0.0,0.0,0.0,0.0,4.7605,0.0,0.0,0.0,4.7506,4.7735,4.7781,4.7355,4.7991,4.8266,4.7862,4.8142,4.8544,4.8801,4.8374,4.8475,4.9617,4.8429,4.807,4.9721,4.8347,4.7324,4.7653,4.7743,4.7848,4.8132,4.8872,4.9662,5.0074,5.0553,5.1125,5.217,5.1611,5.1209,5.2332,5.1611,5.0956,5.1513,5.1194,5.1125,5.2138,5.23,5.27,5.3509,5.332,5.2254,5.085,5.0529,5.0301,4.9306,4.9289,4.9289,4.9289,4.9272,4.9289,4.9187,4.9018,4.9018,4.9069,4.9154,4.9137,4.9204,4.9289,4.9306,4.9272,4.934,4.9949,5.0236,5.0287,5.0913,5.1234,5.1234,5.1217,5.1268,5.1352,5.1352,5.1403,5.1505,5.1522,5.1843,5.2435,5.2452,5.2807,5.345,5.2909,5.2553,5.2469,5.3247,5.3653,5.3653,5.3653,5.3653,5.3636,5.3551,5.3518,5.3518,5.3518,5.3179,5.2503,5.2452,5.2164,5.1555,5.142,5.1352,0.0,5.1268,0.0,0.0,0.0,0.0,0.0,0.0,0.0,0.0,4.8508,4.8068,4.8068,4.8798,4.9289,4.9289,4.9847,4.9883,4.9194,5.0324,5.0577,4.9109,4.9653,5.0072,4.9969,4.9828,5.0027,5.0887,4.99,4.9833,5.1342,5.0206,4.9144,4.9004,4.8887,4.8905,4.9433,5.0534,5.1654,5.27,5.2893,5.2925,5.3197,5.3022,5.2989,5.3388,5.307,5.2877,5.3038,5.2941,5.3133,5.4191,5.4376,5.4725,5.5698,5.5879,5.5102,5.325,5.2683,5.2732,5.0794,5.0794,5.0794,5.0794,5.0794,5.0811,5.0101,4.9018,4.9018,4.934,4.9881,4.9881,5.0219,5.0777,5.0811,5.0794,5.0794,5.093,5.1014,5.1014,5.115,5.1234,5.1234,5.1234,5.1522,5.208,5.2097,5.2418,5.3078,5.3078,5.3145,5.3281,5.3264,5.3365,0.0,0.0,0.0,0.0,5.4008,5.438,5.438,5.438,5.438,5.4363,5.3805,0.0,5.3518,5.3518,5.3433,5.3281,5.3264,0.0,0.0,0.0,0.0,0.0,0.0,0.0,0.0,0.0,0.0,0.0,5.0963,5.0794,5.0794,5.0649,5.0503,5.0503,5.0666,5.0794,5.0811,5.0913,5.0933,5.0803,5.1003,5.1307,5.148,5.1732,5.2034,5.2637,5.1971,5.2059,5.3361,5.2167,5.1642,5.3264,5.2523,5.2055,5.2479,5.1318,5.0475,5.07,5.2083,5.368,5.5303,5.4778,5.4874,5.615,5.5322,5.5051,5.6236,5.5257,5.4648,5.5257,5.4826,5.4551,5.5604,5.5792,5.6127,5.7296,5.7442,5.678,5.4343,5.3852,5.3591,5.1234,0.0,5.1234,5.1234,0.0,5.1234,5.0794,5.0101,5.0101,5.0304,5.0642,5.0659,5.0862,5.1234,5.1234,5.1234,5.1234,5.1589,5.1758,5.1775,5.2164,5.2334,5.235,5.235,5.2536,5.2892,5.2892,5.3095,5.3501,5.3856,5.4025,5.4042,5.4414,5.46,5.46,5.4955,5.4972,5.46,5.4955,5.5158,5.5141,5.5141,5.5141,5.5141,0.0,0.0,0.0,0.0,0.0,0.0,0.0,0.0,0.0,0.0,0.0,5.2892,5.2553,5.235,5.235,5.235,5.235,5.235,5.235,5.2029,5.1285,5.1234,5.1234,5.1234,5.1234,5.1234,5.1234,5.1522,5.1758,5.1775,5.2114,5.252,5.2824,5.2909,5.3213,5.3873,5.3562,5.3744,5.4953,5.3774,5.3574,5.5031,5.4052,5.3584,5.447,5.3355,5.2511,5.3323,5.4148,5.5368,5.6618,5.6641,5.647,5.748,5.698,5.6811,5.7718,5.698,5.6393,5.6887,5.6564,5.647,5.687,5.7039,5.7206,5.7718,5.7881,5.7606,5.6235,5.5936,5.5862,5.1623,5.1623,5.1623,5.1623,5.1623,5.1623,5.1623,5.1606,0.0,0.0,0.0,5.142,5.1488,5.1623,5.1623,5.1606,5.1674,5.2249,5.2503,5.2536,5.3196,5.3568,5.3704,5.3704,5.3771,5.389,5.3907,5.3907,5.3923,5.4499,5.4786,5.4854,5.5412,5.5767,5.5902,5.5919,5.597,5.6089,5.597,5.5902,5.5919,5.5902,5.5902,5.5919,5.5784,5.5716,5.5716,5.5716,5.5429,5.482,5.4803,5.4515,5.394,5.389,5.389,5.389,5.3771,5.3704,5.3704,5.3585,5.3518,5.3518,5.3518,5.2926,5.1522,5.1539,5.1623,5.1623,5.1623,5.164,5.1623,5.2164,5.252,5.252,5.3213,5.3687,5.3721,5.3839,5.416,5.4668,5.4786,5.5074,5.5714,5.5174,5.5188,5.6387,5.5594,5.4791,5.5895,5.5112,5.4615,5.5973,5.6321,5.6837,5.7554,5.7792,5.7881,5.7881,5.7881,5.7881,5.7881,5.7881,5.7881,5.7792,5.7881,5.7792,5.7865,5.7808,5.7881,5.7881,5.7881,5.7881,5.7881,5.7865,5.7724,5.3179,5.3179,5.3179,5.3179,5.3179,5.3179,5.3196,5.3078,5.1792,5.1572,5.2147,5.2131,5.252,5.3179,5.3196,5.3179,5.3179,5.3298,5.3348,0.0,5.345,5.3839,5.4414,5.4431,5.4769,5.5378,5.5395,5.5412,5.5412,5.5513,5.5547,5.5564,5.5666,5.6038,5.6596,5.6647,5.6951,5.756,5.6968,5.6647,5.6647,5.6647,5.6647,5.6613,5.6055,5.5716,5.5716,5.5733,5.5666,5.5564,5.5564,5.5497,5.5412,5.5378,5.5412,5.5378,5.4803,5.4431,5.4414,5.3856,5.3518,5.3518,5.3518,5.3129,5.2266,5.2773,5.3179,5.3179,5.3129,5.3179,5.3196,5.3281,5.3382,5.3416,5.4008,5.4431,5.4448,5.4972,5.5378,5.553,5.5547,5.5835,5.6494,5.647,5.6634,5.7437,5.712,5.7254,5.723,5.6635,5.6432,5.7355,5.7628,5.7718,5.7881,5.7881,5.7898,5.7881,5.7932,5.8,5.8068,5.8068,5.8068,5.7949,5.8034,5.8,5.7983,5.7881,5.8017,5.8051,5.8068,5.8017,5.8068,5.8034,5.7966,5.4702,5.4718,5.4702,5.4702,5.4702,5.4702,5.4702,5.4651,5.3974,5.3365,5.2959,5.2959,5.3162,5.3501,5.3518,5.3737,5.4093,5.4076,5.4313,5.4702,5.4702,5.4888,5.5175,5.5209,5.5378,5.57,5.5716,5.5716,5.575,5.6105,5.6308,5.6325,5.6697,5.707,5.7374,5.7391,5.756,5.7865,5.756,5.7391,5.7391,5.7391,5.7408,5.7391,5.7053,5.69,5.69,5.69,5.6714,5.6325,5.6292,5.6122,5.575,5.5716,5.5716,5.5716,5.5395,5.5209,5.5209,5.4888,5.4702,5.4702,5.4702,5.4566,5.4194,5.3754,5.3518,5.3534,5.3856,5.4093,5.411,5.4465,5.4702,5.4702,5.5006,5.5192,5.5226,5.548,5.5852,5.6224,5.6308,5.6596,5.7306,5.7391,5.7476,5.7848,5.7881,5.7881,5.7898,5.748,5.7297,5.7792,5.7881,5.7881,5.7898,5.7881,5.8051,5.8406,5.849,5.866,5.8964,5.9082,5.9066,5.9099,5.9066,5.9082,5.9049,5.9099,5.9082,5.9082,5.9082,5.9082,5.9082,5.9082,5.8795,5.5716,5.5716,5.5716,5.5716,5.5716,5.5716,5.5716,5.5716,5.5683,5.5074,5.4093,5.4008,5.4008,5.4008,5.4008,5.4313,5.4786,5.4854,5.5158,5.5683,5.5716,5.5801,5.5936,5.597,5.6038,5.619,5.6207,5.6207,5.6275,5.6782,5.7053,5.712,5.7611,5.7881,5.7881,5.7881,5.7881,5.7881,5.7881,5.7881,5.7881,5.7881,5.7881,5.7881,5.7865,5.7881,5.7881,5.7881,5.7628,5.7087,5.7053,5.6799,5.6275,5.6207,5.6207,5.619,5.6038,5.5886,5.5733,5.5716,5.5716,5.5716,5.5716,5.5716,5.5615,5.4685,5.3991,5.4076,5.4549,5.4854,5.4888,5.531,5.5716,5.5716,5.5886,5.5953,5.597,5.6105,5.641,5.6951,5.7036,5.7273,5.7712,5.7881,5.7966,5.8118,5.8152,5.8169,5.8321,5.8389,5.8389,5.8355,5.8271,5.8287,5.8321,5.844,5.8693,5.9201,5.9268,5.9471,5.986,6.0047,6.0063,5.9979,6.003,5.9962,6.0047,6.0047,5.9996,5.9945,5.9911,5.9996,5.9962,5.9962,5.9742,5.5733,5.5716,5.5767,5.5716,5.5767,5.5767,5.5767,5.5767,5.5733,5.5666,5.553,5.5513,5.5497,5.5513,5.548,5.5497,5.5598,5.5615,5.5666,5.5767,5.5716,5.6072,5.6664,5.6697,5.7053,5.756,5.7611,5.7543,5.7543,5.7679,5.7763,5.7797,5.7865,5.7881,5.7881,5.7898,5.7898,5.7881,5.7881,5.7881,5.7881,5.7881,5.7881,5.7881,5.7881,5.7881,5.7881,5.7881,5.7848,5.7797,5.7763,5.7746,5.7662,5.7662,5.7662,5.7628,5.707,5.641,5.5818,5.5716,5.5767,5.5716,5.5784,5.5801,5.5784,5.5632,5.5513,5.553,5.5581,5.5615,5.5632,5.5733,5.5869,5.5953,5.6376,5.6714,5.6765,5.7306,5.7729,5.7763,5.7746,5.7831,5.7949,5.8017,5.8254,5.8846,5.8913,5.9082,5.9539,5.9658,5.9725,5.9708,5.937,5.9235,5.959,5.9877,5.981,5.9945,6.0013,6.0148,6.0283,6.03,6.0131,6.0537,6.0283,6.0334,6.0266,6.0097,6.0216,6.0419,6.0368,6.0182,6.0114,6.0233,6.0114,5.7002,5.7002,5.7002,5.7002,5.7002,5.7002,5.7002,5.7002,5.7002,5.7002,5.7002,5.7002,5.6545,5.5733,5.5716,5.5936,5.6342,5.6359,5.6596,5.6985,5.7019,5.7171,5.7408,5.7442,5.7611,5.7865,5.7881,5.7881,5.7881,5.7881,5.7881,5.7881,5.7881,5.7881,5.7915,5.8338,5.8558,5.8575,5.8981,5.9201,5.9099,5.8321,5.7881,5.7881,5.7881,5.7881,5.7881,5.7881,5.7881,5.7881,5.7881,5.7881,5.7881,5.7881,5.7881,5.7865,5.7611,5.7306,5.7019,5.7002,5.7002,5.7002,5.7002,5.7002,5.7002,5.7002,5.7002,5.6951,5.663,5.6359,5.6393,5.6748,5.7002,5.7036,5.7273,5.7459,5.7459,5.7695,5.7881,5.7898,5.8287,5.8558,5.8626,5.893,5.9285,5.9624,5.9658,5.9827,6.008,6.0097,6.0317,6.0655,6.0537,6.0266,6.0233,6.0097,6.03,6.0655,6.0808,6.0875,6.1315,6.145,6.1467,6.1434,6.145,6.145,6.1518,6.145,6.1467,6.145,6.145,6.145,6.1467,6.145,6.145,5.7881,5.7881,5.7881,5.7881,5.7881,5.7881,5.7881,5.7881,5.7881,5.7881,5.7881,5.7881,5.7323,5.641,5.6308,5.6613,5.7053,5.7103,5.7374,5.7848,5.7881,5.7881,5.7881,5.7881,5.7881,5.7881,5.7881,5.7881,5.7915,5.8118,5.8186,5.822,5.8389,5.849,5.8541,5.9066,5.9302,5.9353,5.986,6.0097,5.9945,5.9049,5.849,5.8507,5.849,5.849,5.849,5.8507,5.8507,5.8507,5.849,5.849,5.849,5.849,5.8406,5.8186,5.7983,5.7881,5.7881,5.7881,5.7881,5.7881,5.7881,5.7881,5.7915,5.8068,5.8186,5.8169,5.7898,5.7662,5.7171,5.7577,5.7932,5.8135,5.8186,5.8254,5.8473,5.849,5.8541,5.8558,5.9032,5.9319,5.9387,5.9725,6.0097,6.0368,6.0436,6.0554,6.0689,6.0808,6.0994,6.1501,6.1586,6.1366,6.0858,6.0858,6.1061,6.1315,6.1586,6.1772,6.2347,6.2465,6.2685,6.2482,6.277,6.299,6.2973,6.299,6.2922,6.2973,6.2939,6.2804,6.2618,6.2685,6.2567,5.7881,5.7881,5.7881,5.7881,5.7881,5.7881,5.7881,5.7881,5.7881,5.7881,5.7881,5.7881,5.7831,5.7695,5.7628,5.7763,5.7814,5.778,5.7797,5.7881,5.7881,5.7881,5.7881,5.7881,5.7898,5.7983,5.8,5.7983,5.8034,5.8626,5.8981,5.8981,5.9556,5.9945,5.9911,5.9979,6.0047,6.0063,6.0199,6.0182,6.0165,6.0063,6.0013,6.0013,5.9962,5.9894,5.9928,5.9962,5.9962,5.9979,5.9894,5.9945,5.9945,5.9928,5.9624,5.9015,5.8321,5.7949,5.7966,5.8017,5.8,5.7966,5.8068,5.7949,5.8135,5.8626,5.8947,5.8964,5.9404,5.9201,5.8152,5.8084,5.8355,5.8879,5.8964,5.9252,5.9844,5.9759,5.9979,5.9911,5.9962,6.0114,6.0097,6.0063,6.0571,6.1061,6.1264,6.1501,6.2042,6.2229,6.2347,6.2398,6.2431,6.233,6.2296,6.211,6.2178,6.2482,6.2601,6.2465,6.2634,6.2888,6.3226,6.3565,6.3869,6.414,6.4394,6.4427,6.4275,6.4224,6.4157,6.4021,6.3531,6.348,6.3362,5.7881,5.7881,5.7881,5.7881,5.7881,5.7881,5.7881,5.7881,5.7881,5.7881,5.7881,5.7881,5.7881,5.7881,5.7881,5.7881,5.7881,5.7881,5.7881,5.7881,5.7881,5.7881,5.7881,5.7881,5.8169,5.8558,5.8592,5.8863,5.9302,5.959,5.9708,5.9725,5.9945,6.0097,6.0182,6.0622,6.0858,6.0909,6.1315,6.1569,6.1552,6.1569,6.1569,6.1501,6.0605,6.0097,6.0097,6.0097,6.0097,6.0097,6.0097,6.0097,6.0097,6.0097,5.9996,5.9742,5.9455,5.9302,5.9319,5.9302,5.9302,5.9302,5.9302,5.9252,5.9353,5.9539,5.9708,5.9776,5.9911,5.9759,5.9505,5.9302,5.9404,5.9624,5.9725,5.9827,6.0013,6.0097,6.0097,6.0165,6.0503,6.1028,6.1467,6.1569,6.1687,6.1975,6.2415,6.2787,6.3091,6.348,6.3717,6.3785,6.3802,6.3818,6.3802,6.3345,6.321,6.3632,6.3835,6.3802,6.3903,6.3903,6.4174,6.4241,6.463,6.4816,6.4901,6.4884,6.4884,6.4833,6.4816,6.4816,6.4258,6.4224,6.4106,5.8389,5.8575,5.8609,5.8592,5.8609,5.8592,5.8592,5.8609,5.8609,5.8609,5.8609,5.8592,5.8609,5.8609,5.8592,5.8609,5.8558,5.8372,5.8271,5.8271,5.849,5.8609,5.8592,5.8592,5.8863,5.9285,5.937,5.9641,6.008,6.0351,6.0486,6.0469,6.0689,6.0825,6.0943,6.14,6.1755,6.2059,6.2516,6.2837,6.3057,6.3108,6.3091,6.2956,6.2076,6.1298,6.0892,6.0842,6.0825,6.0842,6.0842,6.0842,6.0842,6.0622,6.0486,6.0469,6.0233,6.0097,6.0097,6.0097,6.008,6.0097,6.008,6.0097,6.0114,6.0334,6.0469,6.052,6.0757,6.0892,6.1146,6.1214,6.1011,6.0639,6.0486,6.0605,6.0791,6.0858,6.0994,6.1383,6.2009,6.2584,6.2973,6.3074,6.3108,6.3108,6.3565,6.3835,6.3954,6.4241,6.4597,6.4597,6.4495,6.4613,6.4732,6.4512,6.4055,6.436,6.4512,6.4664,6.4816,6.4867,6.4952,6.5002,6.5104,6.5239,6.529,6.529,6.5273,6.5256,6.5459,6.5628,6.5239,6.4969,6.4783,5.9421,5.9945,6.008,5.9945,5.9894,5.9877,6.0013,5.9928,5.9945,5.986,5.9793,5.9962,5.9844,5.9962,5.9827,5.9979,5.981,5.937,5.9099,5.9082,5.9641,5.9911,5.9894,5.986,5.9945,6.0131,6.0131,6.0165,6.0351,6.0977,6.1315,6.1467,6.2009,6.2296,6.2398,6.2499,6.2821,6.3294,6.3497,6.3835,6.4495,6.4427,6.4394,6.4444,6.4309,6.3632,6.2465,6.2398,6.2398,6.2381,6.2381,6.2398,6.2313,6.1856,6.14,6.14,6.0723,6.03,6.0334,6.0452,6.0622,6.0639,6.0351,6.0622,6.0808,6.118,6.1535,6.1653,6.2076,6.2651,6.3193,6.3294,6.2837,6.1653,6.1569,6.1823,6.2245,6.2415,6.2668,6.326,6.3852,6.4478,6.4546,6.436,6.4275,6.4309,6.4495,6.4597,6.463,6.4816,6.4732,6.4749,6.5002,6.5307,6.551,6.5645,6.5222,6.4935,6.4969,6.507,6.529,6.5408,6.5645,6.5747,6.5984,6.6119,6.6119,6.6119,6.6254,6.6271,6.644,6.6305,6.6017,6.5662,6.5425,5.9894,6.0097,6.0097,6.0097,6.0097,6.0097,6.0097,6.0097,6.0097,6.0097,6.0097,6.0097,6.0097,6.0097,6.0097,6.0114,6.0131,6.0385,6.03,5.9911,6.003,6.0148,6.0131,6.0114,6.0385,6.0943,6.145,6.167,6.1721,6.1941,6.2279,6.2787,6.304,6.3446,6.3818,6.392,6.4055,6.4224,6.4275,6.441,6.458,6.4613,6.4613,6.4597,6.4597,6.4326,6.3954,6.392,6.392,6.3886,6.3903,6.3903,6.3852,6.37,6.3582,6.3565,6.3362,6.321,6.3193,6.3142,6.3074,6.3142,6.3159,6.321,6.321,6.3328,6.3497,6.3514,6.3785,6.4055,6.4208,6.4258,6.4021,6.3616,6.3582,6.3531,6.3717,6.3852,6.4021,6.4208,6.4461,6.4597,6.463,6.4664,6.4732,6.4783,6.507,6.5341,6.5392,6.573,6.6102,6.6119,6.6153,6.5967,6.6136,6.6237,6.6034,6.5781,6.573,6.5662,6.5848,6.5967,6.622,6.6406,6.666,6.6779,6.6812,6.6812,6.6812,6.6812,6.6677,6.6576,6.6491,6.6288,6.6,6.0706,6.0943,6.0943,6.0943,6.0943,6.0943,6.0943,6.096,6.0943,6.096,6.096,6.096,6.0943,6.0943,6.0943,6.0943,6.0994,6.1518,6.1434,6.1011,6.0943,6.096,6.0943,6.096,6.1366,6.2059,6.2567,6.2939,6.321,6.3226,6.3446,6.3835,6.392,6.4123,6.4563,6.4613,6.4681,6.4935,6.5002,6.5138,6.5375,6.5425,6.5425,6.5425,6.5425,6.5425,6.5425,6.5408,6.5155,6.4732,6.4597,6.4597,6.4597,6.4563,6.4597,6.4597,6.458,6.4546,6.4597,6.4427,6.4597,6.4597,6.4597,6.458,6.458,6.4597,6.4597,6.4597,6.4563,6.4715,6.4935,6.5002,6.5104,6.5408,6.4833,6.4647,6.463,6.485,6.4969,6.5053,6.529,6.5375,6.5425,6.5425,6.5408,6.551,6.5814,6.6102,6.6187,6.6491,6.6694,6.6795,6.666,6.6592,6.6728,6.6779,6.6779,6.6677,6.6576,6.6491,6.6508,6.6508,6.6643,6.6626,6.6795,6.6795,6.6812,6.6812,6.6812,6.6812,6.6812,6.6745,6.666,6.6694,6.6508,6.1755,6.2364,6.2381,6.2279,6.2262,6.2262,6.2212,6.2313,6.2296,6.2245,6.2262,6.2178,6.2245,6.233,6.2144,6.2178,6.2431,6.2415,6.2516,6.2499,6.2499,6.2448,6.233,6.2431,6.2854,6.3413,6.3548,6.3886,6.4326,6.436,6.463,6.4647,6.4647,6.4715,6.4918,6.4783,6.5189,6.5679,6.5747,6.6068,6.6626,6.6711,6.6694,6.6677,6.6643,6.6626,6.6592,6.6559,6.6051,6.4969,6.4918,6.4952,6.48,6.4732,6.4884,6.4918,6.4783,6.4867,6.48,6.4969,6.4935,6.4969,6.4969,6.4732,6.4952,6.5036,6.5019,6.4986,6.4935,6.5104,6.5611,6.5747,6.6051,6.6457,6.5662,6.5019,6.485,6.5392,6.5696,6.5848,6.6356,6.6779,6.6592,6.6609,6.6626,6.6626,6.666,6.666,6.6677,6.6745,6.6795,6.6812,6.6812,6.6812,6.6812,6.6812,6.6812,6.6812,6.6812,6.6812,6.6812,6.6812,6.6812,6.6812,6.6812,6.6812,6.6812,6.6812,6.6812,6.6812,6.6812,6.6812,6.6812,6.6812,6.6812,6.2212,6.2381,6.2398,6.2398,6.2398,6.2398,6.2398,6.2398,6.2398,6.2415,6.2415,6.2398,6.2465,6.2415,6.2448,6.2685,6.3108,6.321,6.3548,6.3954,6.4021,6.3683,6.3446,6.3768,6.4089,6.4292,6.4309,6.441,6.4597,6.4715,6.4935,6.5375,6.5408,6.5696,6.6136,6.6153,6.6305,6.6491,6.6508,6.6559,6.6745,6.6812,6.6812,6.6812,6.6812,6.6812,6.6812,6.6812,6.6711,6.6322,6.622,6.622,6.6136,6.6136,6.6102,6.6102,6.6153,6.6203,6.6187,6.617,6.6203,6.6237,6.6085,6.6237,6.6237,6.622,6.6237,6.6237,6.6237,6.6237,6.6457,6.6491,6.6643,6.6711,6.6339,6.6102,6.617,6.6373,6.6508,6.6559,6.6694,6.6795,6.6812,6.6812,6.6812,6.6812,6.6812,6.6812,6.6812,6.6812,6.6812,6.6812,6.6812,6.6812,6.6812,6.6812,6.6812,6.6812,6.6812,6.6812,6.6812,6.6812,6.6812,6.6812,6.6812,6.6812,6.6812,6.6812,6.6812,6.6812,6.6812,6.6812,6.6812,6.6812,6.6812,6.2398,6.2398,6.2398,6.2398,6.2398,6.2398,6.2398,6.2398,6.2398,6.2601,6.2804,6.2871,6.3024,6.3294,6.3328,6.3548,6.3937,6.3971,6.4191,6.4546,6.4884,6.4613,6.4224,6.4461,6.4749,6.5053,6.5036,6.5239,6.551,6.5527,6.5781,6.6085,6.6153,6.6389,6.6694,6.6812,6.6812,6.6812,6.6812,6.6812,6.6812,6.6812,6.6812,6.6812,6.6812,6.6812,6.6812,6.6812,6.6812,6.6795,6.6812,6.6812,6.6812,6.6812,6.6812,6.6812,6.6812,6.6795,6.6812,6.6812,6.6812,6.6795,6.6812,6.6812,6.6779,6.6812,6.6812,6.6762,6.6812,6.6812,6.6812,6.6812,6.6812,6.6812,6.6812,6.6812,6.6812,6.6779,6.6812,6.6812,6.6812,6.6812,6.6812,6.6812,6.6812,6.6812,6.6812,6.6812,6.6812,6.6812,6.6812,6.6812,6.6812,6.6812,6.6812,6.6812,6.6812,6.6812,6.6812,6.6812,6.6812,6.6812,6.6812,6.6812,6.6812,6.6812,6.6812,6.6812,6.6812,6.6812,6.6812,6.6812,6.6812,6.6812,6.6812,6.2431,6.2516,6.2516,6.255,6.2668,6.2634,6.2787,6.2668,6.2753,6.3074,6.3531,6.3632,6.3903,6.4597,6.4326,6.4597,6.4698,6.4715,6.4833,6.5138,6.5459,6.5459,6.5053,6.5053,6.5358,6.573,6.5797,6.6119,6.644,6.6643,6.6745,6.6711,6.6728,6.6779,6.6812,6.6812,6.6812,6.6812,6.6812,6.6812,6.6812,6.6812,6.6812,6.6812,6.6812,6.6812,6.6812,6.6812,6.6812,6.6812,6.6812,6.6812,6.6812,6.6812,6.6812,6.6812,6.6812,6.6812,6.6812,6.6812,6.6812,6.6812,6.6812,6.6812,6.6812,6.6812,6.6812,6.6812,6.6812,6.6812,6.6812,6.6812,6.6812,6.6812,6.6812,6.6812,6.6812,6.6812,6.6812,6.6812,6.6812,6.6812,6.6812,6.6812,6.6812,6.6812,6.6812,6.6812,6.6812,6.6812,6.6812,6.6812,6.6812,6.6812,6.6812,6.6812,6.6812,6.6812,6.6812,6.6812,6.6812,6.6812,6.6812,6.6812,6.6812,6.6812,6.6812,6.6812,6.6812,6.6812,6.6812,6.6812,6.6812,6.6812,6.6812,6.2736,6.3277,6.3277,6.3616,6.4072,6.4123,6.4106,6.4072,6.4089,6.4123,6.4343,6.4377,6.4495,6.4664,6.4766,6.4901,6.5408,6.5493,6.5747,6.6356,6.6457,6.6508,6.6305,6.6237,6.6373,6.6525,6.6559,6.666,6.6812,6.6812,6.6812,6.6812,6.6812,6.6812,6.6812,6.6812,6.6812,6.6812,6.6812,6.6812,6.6812,6.6812,6.6812,6.6812,6.6812,6.6812,6.6812,6.6812,6.6812,6.6812,6.6812,6.6812,6.6812,6.6812,6.6812,6.6812,6.6812,6.6812,6.6812,6.6812,6.6812,6.6812,6.6812,6.6812,6.6812,6.6812,6.6812,6.6812,6.6812,6.6812,6.6812,6.6812,6.6812,6.6812,6.6812,6.6812,6.6812,6.6812,6.6812,6.6812,6.6812,6.6812,6.6812,6.6812,6.6812,6.6812,6.6812,6.6812,6.6812,6.6812,6.6812,6.6812,6.6812,6.6812,6.6812,6.6812,6.6812,6.6812,6.6812,6.6812,6.6812,6.6812,6.6812,6.6812,6.6812,6.6812,6.6812,6.6812,6.6812,6.6812,6.6812,6.6812,6.6812,6.6812,6.6812,6.3345,6.4005,6.4038,6.4241,6.458,6.4597,6.4597,6.4597,6.4597,6.48,6.507,6.5104,6.5307,6.5628,6.5645,6.5899,6.6119,6.622,6.6406,6.6745,6.6795,6.6812,6.6812,6.6812,6.6812,6.6812,6.6812,6.6812,6.6812,6.6812,6.6812,6.6812,6.6812,6.6812,6.6812,6.6812,6.6812,6.6812,6.6812,6.6812,6.6812,6.6812,6.6812,6.6812,6.6812,6.6812,6.6812,6.6812,6.6812,6.6812,6.6812,6.6812,6.6812,6.6812,6.6812,6.6812,6.6812,6.6812,6.6812,6.6812,6.6812,6.6812,6.6812,6.6812,6.6812,6.6812,6.6812,6.6812,6.6812,6.6812,6.6812,6.6812,6.6812,6.6812,6.6812,6.6812,6.6812,6.6812,6.6812,6.6812,6.6812,6.6812,6.6812,6.6812,6.6812,6.6812,6.6812,6.6812,6.6812,6.6812,6.6812,6.6812,6.6812,6.6812,6.6812,6.6812,6.6812,6.6812,6.6812,6.6812,6.6812,6.6812,6.6812,6.6812,6.6812,6.6812,6.6812,6.6812,6.6812,6.6812,6.6812,6.6812,6.6812,6.6812,6.6812,6.4123,6.4766,6.4766,6.4833,6.4935,6.4986,6.5036,6.5002,6.4935,6.5408,6.5764,6.5848,6.6153,6.6643,6.6711,6.6795,6.6795,6.6762,6.6779,6.6795,6.6812,6.6812,6.6812,6.6812,6.6812,6.6812,6.6812,6.6812,6.6812,6.6812,6.6812,6.6812,6.6812,6.6812,6.6812,6.6812,6.6812,6.6812,6.6812,6.6812,6.6812,6.6812,6.6812,6.6812,6.6812,6.6812,6.6812,6.6812,6.6812,6.6812,6.6812,6.6812,6.6812,6.6812,6.6812,6.6812,6.6812,6.6812,6.6812,6.6812,6.6812,6.6812,6.6812,6.6812,6.6812,6.6812,6.6812,6.6812,6.6812,6.6812,6.6812,6.6812,6.6812,6.6812,6.6812,6.6812,6.6812,6.6812,6.6812,6.6812,6.6812,6.6812,6.6812,6.6812,6.6812,6.6812,6.6812,6.6812,6.6812,6.6812,6.6812,6.6812,6.6812,6.6812,6.6812,6.6812,6.6812,6.6812,6.6812,6.6812,6.6812,6.6812,6.6812,6.6812,6.6812,6.6812,6.6812,6.6812,6.6812,6.6812,6.6812,6.6812,6.6812,6.6812,6.6812,6.4833,6.5493,6.551,6.5865,6.6389,6.6423,6.6373,6.6457,6.6339,6.6491,6.6576,6.6609,6.6643,6.6812,6.6812,6.6812,6.6812,6.6812,6.6812,6.6812,6.6812,6.6812,6.6812,6.6812,6.6812,6.6812,6.6812,6.6812,6.6812,6.6812,6.6812,6.6812,6.6812,6.6812,6.6812,6.6812,6.6812,6.6812,6.6812,6.6812,6.6812,6.6812,6.6812,6.6812,6.6812,6.6812,6.6812,6.6812,6.6812,6.6812,6.6812,6.6812,6.6812,6.6812,6.6812,6.6812,6.6812,6.6812,6.6812,6.6812,6.6812,6.6812,6.6812,6.6812,6.6812,6.6812,6.6812,6.6812,6.6812,6.6812,6.6812,6.6812,6.6812,6.6812,6.6812,6.6812,6.6812,6.6812,6.6812,6.6812,6.6812,6.6812,6.6812,6.6812,6.6812,6.6812,6.6812,6.6812,6.6812,6.6812,6.6812,6.6812,6.6812,6.6812,6.6812,6.6812,6.6812,6.6812,6.6812,6.6812,6.6812,6.6812,6.6812,6.6812,6.6812,6.6812,6.6812,6.6812,6.6812,6.6812,6.6812,6.6812,6.6812,6.6812,6.6812,6.5595,6.6254,6.6271,6.6474,6.6779,6.6812,6.6812,6.6812,6.6812,6.6812,6.6812,6.6812,6.6812,6.6812,6.6812,6.6812,6.6812,6.6812,6.6812,6.6812,6.6812,6.6812,6.6812,6.6812,6.6812,6.6812,6.6812,6.6812,6.6812,6.6812,6.6812,6.6812,6.6812,6.6812,6.6812,6.6812,6.6812,6.6812,6.6812,6.6812,6.6812,6.6812,6.6812,6.6812,6.6812,6.6812,6.6812,6.6812,6.6812,6.6812,6.6812,6.6812,6.6812,6.6812,6.6812,6.6812,6.6812,6.6812,6.6812,6.6812,6.6812,6.6812,6.6812,6.6812,6.6812,6.6812,6.6812,6.6812,6.6812,6.6812,6.6812,6.6812,6.6812,6.6812,6.6812,6.6812,6.6812,6.6812,6.6812,6.6812,6.6812,6.6812,6.6812,6.6812,6.6812,6.6812,6.6812,6.6812,6.6812,6.6812,6.6812,6.6812,6.6812,6.6812,6.6812,6.6812,6.6812,6.6812,6.6812,6.6812,6.6812,6.6812,6.6812,6.6812,6.6812,6.6812,6.6812,6.6812,6.6812,6.6812,6.6812,6.6812,6.6812,6.6812,6.6812,6.6254,6.6812,6.6812,6.6812,6.6812,6.6812,6.6812,6.6812,6.6812,6.6812,6.6812,6.6812,6.6812,6.6812,6.6812,6.6812,6.6812,6.6812,6.6812,6.6812,6.6812,6.6812,6.6812,6.6812,6.6812,6.6812,6.6812,6.6812,6.6812,6.6812,6.6812,6.6812,6.6812,6.6812,6.6812,6.6812,6.6812,6.6812,6.6812,6.6812,6.6812,6.6812,6.6812,6.6812,6.6812,6.6812,6.6812,6.6812,6.6812,6.6812,6.6812,6.6812,6.6812,6.6812,6.6812,6.6812,6.6812,6.6812,6.6812,6.6812,6.6812,6.6812,6.6812,6.6812,6.6812,6.6812,6.6812,6.6812,6.6812,6.6812,6.6812,6.6812,6.6812,6.6812,6.6812,6.6812,6.6812,6.6812,6.6812,6.6812,6.6812,6.6812,6.6812,6.6812,6.6812,6.6812,6.6812,6.6812,6.6812,6.6812,6.6812,6.6812,6.6812,6.6812,6.6812,6.6812,6.6812,6.6812,6.6812,6.6812,6.6812,6.6812,6.6812,6.6812,6.6812,6.6812,6.6812,6.6812,6.6812,6.6812,6.6812,6.6812,6.6812,6.6812,6.6812,6.6728,6.6812,6.6812,6.6812,6.6812,6.6812,6.6812,6.6812,6.6812,6.6812,6.6812,6.6812,6.6812,6.6812,6.6812,6.6812,6.6812,6.6812,6.6812,6.6812,6.6812,6.6812,6.6812,6.6812,6.6879,6.6946,6.6963,6.6812,6.7029,6.7029,6.6812,6.6812,6.6879,6.6812,6.6812,6.6812,6.6812,6.6812,6.6812,6.6812,6.6812,6.6812,6.6812,6.6812,6.6812,6.6812,6.6812,6.6812,6.6812,6.6812,6.6812,6.6812,6.6812,6.6812,6.6812,6.6812,6.6812,6.6812,6.6812,6.6812,6.6812,6.6812,6.6812,6.6812,6.6812,6.6812,6.6812,6.6812,6.6812,6.6812,6.6812,6.6812,6.6812,6.6812,6.6812,6.6812,6.6812,6.6812,6.6812,6.6812,6.6812,6.6812,6.6812,6.6812,6.6812,6.6812,6.6812,6.6812,6.6812,6.6812,6.6812,6.6812,6.6812,6.6812,6.6812,6.6812,6.6812,6.6812,6.6812,6.6812,6.6812,6.6812,6.6812,6.6812,6.6812,6.6812,6.6812,6.6812,6.6812,6.6812,6.6812,6.6812,6.6812,6.6812,6.6812,6.6812,6.6812,6.6812,6.6812,6.6812,6.6812,6.6812,6.6812,6.6812,6.6812,6.6812,6.6812,6.6812,6.6812,6.6812,6.6812,6.6812,6.6812,6.6812,6.6896,6.6896,6.6812,6.6812,6.6812,6.6946,6.7518,6.7662,6.8102,6.8041,6.7804,6.7437,6.6946,6.7308,6.7308,6.6946,6.6812,6.6812,6.6812,6.6812,6.6812,6.6812,6.6812,6.6812,6.6812,6.6812,6.6812,6.6812,6.6812,6.6812,6.6812,6.6812,6.6812,6.6812,6.6812,6.6812,6.6812,6.6812,6.6812,6.6812,6.6812,6.6812,6.6812,6.6812,6.6812,6.6812,6.6812,6.6812,6.6812,6.6812,6.6812,6.6812,6.6812,6.6812,6.6812,6.6812,6.6812,6.6812,6.6812,6.6812,6.6812,6.6812,6.6812,6.6812,6.6812,6.6812,6.6812,6.6812,6.6812,6.6812,6.6812,6.6812,6.6812,6.6812,6.6812,6.6812,6.6812,6.6812,6.6812,6.6812,6.6812,6.6812,6.6812,6.6812,6.6812,6.6812,6.6812,6.6812,6.6812,6.6812,6.6812,6.6812,6.6812,6.6812,6.6812,6.6812,6.7161,6.7161,6.6879,6.6812,6.6812,6.6812,6.6812,6.6812,6.6812,6.6812,6.6812,6.6812,6.6812,6.6812,6.6812,6.6812,6.6795,6.7012,6.7161,6.7161,6.739,6.7454,6.7454,6.7454,6.7804,6.8283,6.8513,6.889,6.9186,6.9168,6.8572,6.7518,6.7963,6.7804,6.739,6.7243,6.7308,6.7226,6.6946,6.6812,6.6812,6.6812,6.6812,6.6812,6.6812,6.6812,6.6812,6.6812,6.6812,6.6812,6.6812,6.6812,6.6812,6.6812,6.6812,6.6812,6.6812,6.6812,6.6812,6.6812,6.6812,6.6812,6.6812,6.6812,6.6812,6.6812,6.6812,6.6812,6.6812,6.6812,6.6812,6.6812,6.6812,6.6812,6.6812,6.6812,6.6812,6.6812,6.6812,6.6812,6.6812,6.6812,6.6812,6.6812,6.6812,6.6812,6.6812,6.6812,6.6812,6.6812,6.6812,6.6812,6.6812,6.6812,6.6812,6.6812,6.6812,6.6812,6.6812,6.6812,6.6812,6.6812,6.6812,6.6812,6.6812,6.6812,6.6812,6.6812,6.6812,6.6812,6.6812,6.6812,6.6812,6.6812,6.6812,6.8129,6.8068,6.7243,6.6812,6.6812,6.6812,6.6812,6.6963,6.6879,6.6963,6.6963,6.6812,6.6812,6.6879,6.6946,6.6946,6.6946,6.7708,6.799,6.8437,6.889,6.8665,6.8513,6.8665,6.8947,6.8705,6.915,6.9619,6.9971,7.0668,7.0178,6.9637,6.9038,6.8454,6.8163,6.8163,6.8163,6.8024,6.7599,6.7178,6.7112,6.7112,6.7029,6.7029,6.6879,6.6812,6.6812,6.7029,6.7178,6.7178,6.726,6.726,6.7325,6.7325,6.7325,6.7325,6.7325,6.7325,6.7325,6.6963,6.6812,6.6812,6.6812,6.6812,6.6812,6.6812,6.6812,6.6812,6.6812,6.6812,6.6812,6.6812,6.6812,6.6812,6.6812,6.6812,6.6812,6.6812,6.6812,6.6812,6.6812,6.6812,6.6812,6.6812,6.6812,6.6812,6.6812,6.6812,6.6812,6.6812,6.6812,6.6812,6.6812,6.6812,6.6812,6.6812,6.6812,6.6812,6.6812,6.6812,6.6812,6.6812,6.6812,6.6812,6.6812,6.6812,6.6812,6.6812,6.6812,6.6812,6.6812,6.6812,6.6812,6.6812,6.6812,6.9095,6.9112,6.8682,6.7901,6.6879,6.7454,6.7645,6.7787,6.8318,6.8163,6.7662,6.7078,6.7178,6.7518,6.7725,6.8024,6.8548,6.889,6.9095,6.9186,6.9404,6.9386,6.9331,6.953,6.9743,6.9935,7.045,7.0948,7.1511,7.1732,7.1732,7.1223,7.0315,6.9672,6.9386,6.9112,6.9112,6.9021,6.874,6.8548,6.8624,6.8548,6.8548,6.8624,6.8624,6.8548,6.8624,6.8607,6.8624,6.8566,6.8472,6.8395,6.8395,6.8395,6.8395,6.8395,6.8412,6.8395,6.8102,6.7535,6.6812,6.6812,6.6812,6.6812,6.6812,6.6812,6.6812,6.6812,6.6812,6.6812,6.6812,6.6812,6.6812,6.6812,6.6812,6.6812,6.6812,6.6812,6.6812,6.6812,6.6812,6.6812,6.6812,6.6812,6.6812,6.6812,6.6812,6.6812,6.6812,6.6812,6.6812,6.6812,6.6812,6.6812,6.6812,6.6812,6.6812,6.6812,6.6812,6.6812,6.6812,6.6812,6.6812,6.6812,6.6812,6.6812,6.6812,6.6812,6.6812,6.6812,6.6812,6.6812,6.6812,6.6812,6.6812,7.0109,7.0109,6.9831,6.8908,6.7804,6.8378,6.8648,6.8798,6.9314,6.9314,6.8589,6.7963,6.7963,6.8513,6.8648,6.8947,6.9547,6.9901,7.004,7.0264,7.0468,7.0315,7.0246,7.0468,7.0865,7.1205,7.1511,7.1933,7.2285,7.2438,7.2362,7.2149,7.1854,7.1013,7.0246,6.9831,6.9849,7.004,6.9831,6.9708,6.9619,6.9619,6.9547,6.9565,6.9493,6.9493,6.9493,6.9404,6.9476,6.9493,6.9565,6.9637,6.9637,6.9708,6.9708,6.9708,6.9708,6.9708,6.9259,6.8318,6.7226,6.7373,6.6879,6.6896,6.6812,6.6812,6.6812,6.6812,6.6812,6.6812,6.6812,6.6812,6.6812,6.6812,6.6812,6.6812,6.6812,6.6812,6.6812,6.6812,6.6812,6.6812,6.6812,6.6812,6.6812,6.6812,6.6812,6.6812,6.6812,6.6812,6.6812,6.6812,6.6812,6.6812,6.6812,6.6812,6.6812,6.6812,6.6812,6.6812,6.6812,6.6812,6.6812,6.6812,6.6812,6.6812,6.6812,6.6812,6.6812,6.6812,6.6812,6.6812,6.6812,6.6812,6.6812,7.1077,7.093,7.0109,6.9761,6.9619,6.9619,6.969,6.9672,6.9761,6.9761,6.969,6.9493,6.9493,6.9619,6.969,6.9901,7.0246,7.08,7.1077,7.1223,7.1591,7.1653,7.1573,7.1653,7.1653,7.143,7.1794,7.2303,7.2514,7.2514,7.2514,7.2514,7.2226,7.1873,7.1013,7.0178,7.0246,7.0818,7.0246,7.0109,7.0058,7.0127,7.0127,7.0196,7.0196,7.0264,7.0264,7.0264,7.0332,7.0246,7.0178,7.0178,7.0178,7.0127,7.0127,7.004,6.9971,6.9901,6.969,6.8723,6.8343,6.8068,6.7599,6.7095,6.6862,6.6795,6.6963,6.7095,6.7012,6.6946,6.6879,6.6963,6.7095,6.7112,6.7095,6.739,6.7471,6.7161,6.7161,6.7095,6.6963,6.6812,6.6812,6.6812,6.6812,6.6812,6.6812,6.6812,6.6812,6.6812,6.6812,6.6812,6.6812,6.6812,6.6812,6.6812,6.6812,6.6812,6.6812,6.6812,6.6812,6.6812,6.6812,6.6812,6.6812,6.6812,6.6812,6.6812,6.6812,6.6812,6.6812,6.6812,6.6812,6.6812,6.6812,7.2011,7.1993,7.1671,7.1591,7.1448,7.0865,7.065,7.0601,7.0601,7.0583,7.045,7.004,7.0109,7.0468,7.0668,7.0883,7.1529,7.1732,7.2011,7.2071,7.238,7.2303,7.2208,7.2226,7.2303,7.2226,7.2438,7.2514,7.2514,7.2514,7.2514,7.2514,7.2514,7.2362,7.2071,7.1653,7.1794,7.1933,7.1714,7.1591,7.1529,7.1467,7.1467,7.1467,7.1386,7.1386,7.1386,7.1323,7.1305,7.1305,7.1305,7.1305,7.1386,7.1386,7.1448,7.1448,7.1511,7.1591,7.1305,7.0716,6.9866,6.9168,6.8378,6.7787,6.7708,6.7095,6.7243,6.7582,6.7725,6.7725,6.7787,6.8454,6.8607,6.8163,6.8241,6.8758,6.8815,6.8146,6.777,6.7564,6.7356,6.7095,6.6963,6.6812,6.6812,6.6812,6.6812,6.6812,6.6812,6.6812,6.6812,6.6812,6.6812,6.6812,6.6812,6.6812,6.6812,6.6812,6.6812,6.6812,6.6812,6.6812,6.6812,6.6812,6.6812,6.6812,6.6812,6.6812,6.6812,6.6812,6.6946,6.7029,6.7029,6.6946,6.6812,7.2514,7.2514,7.2514,7.2514,7.2438,7.1854,7.1573,7.1573,7.1573,7.1573,7.143,7.0948,7.1031,7.1511,7.1653,7.1775,7.2514,7.2514,7.2514,7.2514,7.2514,7.2438,7.2438,7.2514,7.2456,7.2514,7.2514,7.2514,7.2514,7.2514,7.2514,7.2514,7.2514,7.2438,7.2438,7.2362,7.2362,7.2362,7.2226,7.2303,7.2303,7.238,7.238,7.238,7.238,7.2438,7.2456,7.2514,7.2514,7.2514,7.2514,7.2514,7.2514,7.2514,7.2514,7.2514,7.2514,7.2438,7.2149,7.1933,7.1159,7.0818,6.9512,6.8798,6.8648,6.8318,6.8301,6.8589,6.8723,6.8723,6.8873,6.969,6.9547,6.9021,6.9168,6.969,6.9601,6.8947,6.8723,6.8437,6.8223,6.7804,6.7243,6.6879,6.6812,6.6812,6.6812,6.6812,6.6812,6.6812,6.6812,6.6812,6.6812,6.6812,6.6812,6.6812,6.6812,6.6812,6.6812,6.6812,6.6812,6.6812,6.6812,6.6812,6.6812,6.6896,6.6812,6.6812,6.7029,6.7226,6.7437,6.7437,6.7291,6.7308,6.7308,7.2514,7.2514,7.2514,7.2514,7.2514,7.2438,7.242,7.2438,7.2438,7.2438,7.2438,7.2303,7.2226,7.238,7.2438,7.2438,7.2514,7.2514,7.2514,7.2514,7.2514,7.2514,7.2514,7.2514,7.2514,7.2514,7.2514,7.2514,7.2514,7.2514,7.2514,7.2514,7.2514,7.2514,7.2514,7.2514,7.2514,7.2514,7.2514,7.2514,7.2514,7.2514,7.2514,7.2514,7.2514,7.2514,7.2514,7.2514,7.2514,7.2514,7.2514,7.2514,7.2514,7.2514,7.2514,7.2514,7.2514,7.2514,7.2514,7.2303,7.2303,7.1812,7.0752,7.0058,6.9619,6.9404,6.9314,6.953,6.9743,6.9761,6.9831,6.9971,7.004,6.9971,6.9989,7.0127,7.0127,6.9901,6.9761,6.9619,6.9476,6.8964,6.8007,6.7501,6.7161,6.6812,6.6812,6.6812,6.6812,6.6812,6.6812,6.6812,6.6812,6.6812,6.6812,6.6812,6.6812,6.6812,6.6812,6.6812,6.6812,6.6879,6.7029,6.7012,6.6946,6.6946,6.7243,6.7291,6.7437,6.7725,6.8223,6.8301,6.8223,6.8301,6.8301,7.2514,7.2514,7.2514,7.2514,7.2514,7.2514,7.2514,7.2514,7.2514,7.2514,7.2514,7.2514,7.2514,7.2514,7.2514,7.2514,7.2514,7.2514,7.2514,7.2514,7.2514,7.2514,7.2514,7.2514,7.2514,7.2514,7.2514,7.2514,7.2514,7.2514,7.2514,7.2514,7.2514,7.2514,7.2514,7.2514,7.2514,7.2514,7.2514,7.2514,7.2514,7.2514,7.2514,7.2514,7.2514,7.2514,7.2514,7.2514,7.2514,7.2514,7.2514,7.2514,7.2514,7.2514,7.2514,7.2514,7.2514,7.2514,7.2514,7.2514,7.2514,7.2514,7.1873,7.1386,7.0818,7.0332,7.0196,7.0468,7.0686,7.0668,7.0818,7.0966,7.0901,7.0818,7.0966,7.1177,7.1095,7.0883,7.0752,7.0601,7.045,6.9672,6.8705,6.8206,6.7884,6.7178,6.6812,6.6896,6.6812,6.6812,6.6812,6.6812,6.7029,6.7095,6.6963,6.6963,6.6896,6.6812,6.6963,6.7112,6.7178,6.7243,6.7308,6.7437,6.7742,6.7787,6.7849,6.8007,6.8163,6.874,6.9259,6.9241,6.9241,6.9296,6.9296,7.2514,7.2514,7.2514,7.2514,7.2514,7.2514,7.2514,7.2514,7.2514,7.2514,7.2514,7.2514,7.2514,7.2514,7.2514,7.2514,7.2514,7.2514,7.2514,7.2514,7.2514,7.2514,7.2514,7.2514,7.2514,7.2514,7.2514,7.2514,7.2514,7.2514,7.2514,7.2514,7.2514,7.2514,7.2514,7.2514,7.2514,7.2514,7.2514,7.2514,7.2514,7.2514,7.2514,7.2514,7.2514,7.2514,7.2514,7.2514,7.2514,7.2514,7.2514,7.2514,7.2514,7.2514,7.2514,7.2514,7.2514,7.2514,7.2514,7.2514,7.2514,7.2514,7.2514,7.2149,7.1794,7.1386,7.1386,7.1529,7.1591,7.1714,7.1873,7.2011,7.1873,7.1732,7.2089,7.2438,7.2226,7.1951,7.1732,7.1511,7.0995,7.0211,6.9584,6.9077,6.8513,6.7866,6.7373,6.7226,6.7029,6.6812,6.6812,6.6812,6.7243,6.7518,6.7373,6.7373,6.7679,6.7742,6.7662,6.7725,6.7759,6.8041,6.8472,6.8607,6.874,6.8798,6.8798,6.8873,6.9038,6.9761,7.0332,7.045,7.045,7.045,7.0382,7.2514,7.2514,7.2514,7.2514,7.2514,7.2514,7.2514,7.2514,7.2514,7.2514,7.2514,7.2514,7.2514,7.2514,7.2514,7.2514,7.2514,7.2514,7.2514,7.2514,7.2514,7.2514,7.2514,7.2514,7.2514,7.2514,7.2514,7.2514,7.2514,7.2514,7.2514,7.2514,7.2514,7.2514,7.2514,7.2514,7.2514,7.2514,7.2514,7.2514,7.2514,7.2514,7.2514,7.2514,7.2514,7.2514,7.2514,7.2514,7.2514,7.2514,7.2514,7.2514,7.2514,7.2514,7.2514,7.2514,7.2514,7.2514,7.2514,7.2514,7.2514,7.2514,7.2514,7.2438,7.2167,7.2089,7.2089,7.2089,7.2089,7.2149,7.2285,7.2303,7.2226,7.2149,7.2362,7.2514,7.238,7.2226,7.2167,7.1993,7.1714,7.0995,7.0432,6.9953,6.9458,6.8648,6.8223,6.7945,6.7725,6.739,6.7243,6.7243,6.7822,6.8301,6.8301,6.8454,6.874,6.8815,6.8589,6.8589,6.8758,6.9203,6.969,6.9619,6.9458,6.9743,6.9813,6.9813,7.0092,7.08,7.1368,7.1653,7.1653,7.1448,7.1386,7.2514,7.2514,7.2514,7.2514,7.2514,7.2514,7.2514,7.2514,7.2514,7.2514,7.2514,7.2514,7.2514,7.2514,7.2514,7.2514,7.2514,7.2514,7.2514,7.2514,7.2514,7.2514,7.2514,7.2514,7.2514,7.2514,7.2514,7.2514,7.2514,7.2514,7.2514,7.2514,7.2514,7.2514,7.2514,7.2514,7.2514,7.2514,7.2514,7.2514,7.2514,7.2514,7.2514,7.2514,7.2514,7.2514,7.2514,7.2514,7.2514,7.2514,7.2514,7.2514,7.2514,7.2514,7.2514,7.2514,7.2514,7.2514,7.2514,7.2514,7.2514,7.2514,7.2514,7.2514,7.2514,7.2514,7.2514,7.2514,7.2514,7.2514,7.2514,7.2514,7.2514,7.2514,7.2514,7.2514,7.2514,7.2514,7.2514,7.238,7.2226,7.1794,7.1305,7.0818,7.0246,6.9831,6.9476,6.9203,6.9112,6.8908,6.8513,6.8513,6.889,6.9241,6.9314,6.944,6.9743,6.9743,6.953,6.9619,6.9778,7.0264,7.0686,7.0246,7.0109,7.0468,7.0734,7.0734,7.1141,7.1714,7.1993,7.2089,7.2226,7.2089,7.2149,7.2514,7.2514,7.2514,7.2514,7.2514,7.2514,7.2514,7.2514,7.2514,7.2514,7.2514,7.2514,7.2514,7.2514,7.2514,7.2514,7.2514,7.2514,7.2514,7.2514,7.2514,7.2514,7.2514,7.2514,7.2514,7.2514,7.2514,7.2514,7.2514,7.2514,7.2514,7.2514,7.2514,7.2514,7.2514,7.2514,7.2514,7.2514,7.2514,7.2514,7.2514,7.2514,7.2514,7.2514,7.2514,7.2514,7.2514,7.2514,7.2514,7.2514,7.2514,7.2514,7.2514,7.2514,7.2514,7.2514,7.2514,7.2514,7.2514,7.2514,7.2514,7.2514,7.2514,7.2514,7.2514,7.2514,7.2514,7.2514,7.2514,7.2514,7.2514,7.2514,7.2514,7.2514,7.2514,7.2514,7.2514,7.2514,7.2514,7.2456,7.2362,7.2285,7.1873,7.1873,7.1305,7.065,7.0332,6.9989,6.9989,7.0196,6.9883,6.9725,7.0092,7.0246,7.0297,7.045,7.0601,7.0601,7.0468,7.0752,7.1031,7.1386,7.1591,7.1241,7.1159,7.1529,7.1732,7.1573,7.1714,7.2149,7.2362,7.2438,7.2514,7.2514,7.2438,7.2514,7.2514,7.2514,7.2514,7.2514,7.2514,7.2514,7.2514,7.2514,7.2514,7.2514,7.2514,7.2514,7.2514,7.2514,7.2514,7.2514,7.2514,7.2514,7.2514,7.2514,7.2514,7.2514,7.2514,7.2514,7.2514,7.2514,7.2514,7.2514,7.2514,7.2514,7.2514,7.2514,7.2514,7.2514,7.2514,7.2514,7.2514,7.2514,7.2514,7.2514,7.2514,7.2514,7.2514,7.2514,7.2514,7.2514,7.2514,7.2514,7.2514,7.2514,7.2514,7.2514,7.2514,7.2514,7.2514,7.2514,7.2514,7.2514,7.2514,7.2514,7.2514,7.2514,7.2514,7.2514,7.2514,7.2514,7.2514,7.2514,7.2514,7.2514,7.2514,7.2514,7.2514,7.2514,7.2514,7.2514,7.2514,7.2514,7.2514,7.2514,7.2438,7.2438,7.2438,7.2089,7.143,7.1077,7.0668,7.0535,7.1031,7.1095,7.1013,7.1159,7.1241,7.1305,7.1305,7.1448,7.1511,7.1529,7.1873,7.2167,7.2149,7.2167,7.2303,7.2303,7.2244,7.2303,7.2226,7.2438,7.2496,7.2514,7.2514,7.2514,7.2514,7.2514,7.2514,7.2514,7.2514,7.2514,7.2514,7.2514,7.2514,7.2514,7.2514,7.2514,7.2514,7.2514,7.2514,7.2514,7.2514,7.2514,7.2514,7.2514,7.2514,7.2514,7.2514,7.2514,7.2514,7.2514,7.2514,7.2514,7.2514,7.2514,7.2514,7.2514,7.2514,7.2514,7.2514,7.2514,7.2514,7.2514,7.2514,7.2514,7.2514,7.2514,7.2514,7.2514,7.2514,7.2514,7.2514,7.2514,7.2514,7.2514,7.2514,7.2514,7.2514,7.2514,7.2514,7.2514,7.2514,7.2514,7.2514,7.2514,7.2514,7.2514,7.2514,7.2514,7.2514,7.2514,7.2514,7.2514,7.2514,7.2514,7.2514,7.2514,7.2514,7.2514,7.2514,7.2514,7.2514,7.2514,7.2514,7.2514,7.2514,7.2514,7.2514,7.2514,7.2514,7.2514,7.2438,7.2011,7.2011,7.1671,7.1591,7.1951,7.2149,7.2089,7.2071,7.2226,7.2226,7.2071,7.2149,7.2303,7.2362,7.2362,7.2362,7.2438,7.2514,7.2514,7.2514,7.2438,7.2514,7.2514,7.2514,7.2514,7.2514,7.2514,7.2514,7.2514,7.2514]},{"header":{"parameterUnit":"m.s-1","parameterCategory":1,"la1":31.0,"la2":29.5877,"lo1":-88.7671,"lo2":-86.6584,"dx":0.0162,"dy":0.0185,"nx":115,"ny":88,"refTime":"2023-01-22T18:00:00:Z","depth":0,"parameterNumber":3,"parameterNumberName":"V-component_of_WINDS"},"data":[0.0,0.0,0.0,0.0,0.0,0.0,0.0,0.0,0.0,0.0,0.0,0.0,0.0,0.0,0.0,0.0,0.0,0.0,0.0,0.0,0.0,0.0,0.0,0.0,0.0,0.0,0.0,0.0,0.0,0.0,0.0,0.0,0.0,0.0,0.0,0.0,0.0,0.0,0.0,0.0,0.0,0.0,0.0,0.0,0.0,0.0,0.0,0.0,0.0,0.0,0.0,0.0,0.0,0.0,0.0,0.0,0.0,0.0,0.0,0.0,0.0,0.0,0.0,0.0,0.0,0.0,0.0,0.0,0.0,0.0,0.0,0.0,0.0,0.0,0.0,0.0,0.0,0.0,0.0,0.0,0.0,0.0,0.0,0.0,0.0,0.0,0.0,0.0,0.0,0.0,0.0,0.0,0.0,0.0,0.0,0.0,0.0,0.0,0.0,0.0,0.0,0.0,0.0,0.0,0.0,0.0,0.0,0.0,0.0,0.0,0.0,0.0,0.0,0.0,0.0,0.0,0.0,0.0,0.0,0.0,0.0,0.0,0.0,0.0,0.0,0.0,0.0,0.0,0.0,0.0,0.0,0.0,0.0,0.0,0.0,0.0,0.0,0.0,0.0,0.0,0.0,0.0,0.0,0.0,0.0,0.0,0.0,0.0,0.0,0.0,0.0,0.0,0.0,0.0,0.0,0.0,0.0,0.0,0.0,0.0,0.0,0.0,0.0,0.0,0.0,0.0,0.0,0.0,0.0,0.0,0.0,0.0,0.0,0.0,0.0,0.0,0.0,0.0,0.0,0.0,0.0,0.0,0.0,0.0,0.0,0.0,0.0,0.0,0.0,0.0,0.0,0.0,0.0,0.0,0.0,0.0,0.0,0.0,0.0,0.0,0.0,0.0,0.0,0.0,0.0,0.0,0.0,0.0,0.0,0.0,0.0,0.0,0.0,0.0,0.0,0.0,0.0,0.0,0.0,0.0,0.0,0.0,0.0,0.0,0.0,0.0,0.0,0.0,0.0,0.0,0.0,0.0,0.0,0.0,0.0,0.0,0.0,0.0,0.0,0.0,0.0,0.0,0.0,0.0,0.0,0.0,0.0,0.0,0.0,0.0,0.0,0.0,0.0,0.0,0.0,0.0,0.0,0.0,0.0,0.0,0.0,0.0,0.0,0.0,0.0,0.0,0.0,0.0,0.0,0.0,0.0,0.0,0.0,0.0,0.0,0.0,0.0,0.0,0.0,0.0,0.0,0.0,0.0,0.0,0.0,0.0,0.0,0.0,0.0,0.0,0.0,0.0,0.0,0.0,0.0,0.0,0.0,0.0,0.0,0.0,0.0,0.0,0.0,0.0,0.0,0.0,0.0,0.0,0.0,0.0,0.0,0.0,0.0,0.0,0.0,0.0,0.0,0.0,0.0,0.0,0.0,0.0,0.0,0.0,0.0,0.0,0.0,0.0,0.0,0.0,0.0,0.0,0.0,0.0,0.0,0.0,0.0,0.0,0.0,0.0,0.0,0.0,0.0,0.0,0.0,0.0,0.0,0.0,0.0,0.0,0.0,0.0,0.0,0.0,0.0,0.0,0.0,0.0,0.0,0.0,0.0,0.0,0.0,0.0,0.0,0.0,0.0,0.0,0.0,0.0,0.0,0.0,0.0,0.0,0.0,0.0,0.0,0.0,0.0,0.0,0.0,0.0,0.0,0.0,0.0,0.0,0.0,0.0,0.0,0.0,0.0,0.0,0.0,0.0,0.0,0.0,0.0,0.0,0.0,0.0,0.0,0.0,0.0,0.0,0.0,0.0,0.0,0.0,0.0,0.0,0.0,0.0,0.0,0.0,0.0,0.0,0.0,0.0,0.0,0.0,0.0,0.0,0.0,0.0,0.0,0.0,0.0,0.0,0.0,0.0,0.0,0.0,0.0,0.0,0.0,0.0,0.0,0.0,0.0,0.0,0.0,0.0,0.0,0.0,0.0,0.0,0.0,0.0,0.0,0.0,0.0,0.0,0.0,0.0,0.0,0.0,0.0,0.0,0.0,0.0,0.0,0.0,0.0,0.0,0.0,0.0,0.0,0.0,0.0,0.0,0.0,0.0,0.0,0.0,0.0,0.0,0.0,0.0,0.0,0.0,0.0,0.0,0.0,0.0,0.0,0.0,0.0,0.0,0.0,0.0,0.0,0.0,0.0,0.0,0.0,0.0,0.0,0.0,0.0,0.0,0.0,0.0,0.0,0.0,0.0,0.0,0.0,0.0,0.0,0.0,0.0,0.0,0.0,0.0,0.0,0.0,0.0,0.0,0.0,0.0,0.0,0.0,0.0,0.0,0.0,0.0,0.0,0.0,0.0,0.0,0.0,0.0,0.0,0.0,0.0,0.0,0.0,0.0,0.0,0.0,0.0,0.0,0.0,0.0,0.0,0.0,0.0,0.0,0.0,0.0,0.0,0.0,0.0,0.0,0.0,0.0,0.0,0.0,0.0,0.0,0.0,0.0,0.0,0.0,0.0,0.0,0.0,0.0,0.0,0.0,0.0,0.0,0.0,0.0,0.0,0.0,0.0,0.0,0.0,0.0,0.0,0.0,0.0,0.0,0.0,0.0,0.0,0.0,0.0,0.0,0.0,0.0,0.0,0.0,0.0,0.0,0.0,0.0,0.0,0.0,0.0,0.0,0.0,0.0,0.0,0.0,0.0,0.0,0.0,0.0,0.0,0.0,0.0,0.0,0.0,0.0,0.0,0.0,0.0,0.0,0.0,0.0,0.0,0.0,0.0,0.0,0.0,0.0,0.0,0.0,0.0,0.0,0.0,0.0,0.0,0.0,0.0,0.0,0.0,0.0,0.0,0.0,0.0,0.0,0.0,0.0,0.0,0.0,0.0,0.0,0.0,0.0,0.0,0.0,0.0,0.0,0.0,0.0,0.0,0.0,0.0,0.0,0.0,0.0,0.0,0.0,0.0,0.0,0.0,0.0,0.0,0.0,0.0,0.0,0.0,0.0,0.0,0.0,0.0,0.0,0.0,0.0,0.0,0.0,0.0,0.0,0.0,0.0,0.0,0.0,0.0,0.0,0.0,0.0,0.0,0.0,0.0,0.0,0.0,0.0,0.0,0.0,0.0,0.0,0.0,0.0,0.0,0.0,0.0,0.0,0.0,0.0,0.0,0.0,0.0,0.0,0.0,0.0,0.0,0.0,0.0,0.0,0.0,0.0,0.0,0.0,0.0,0.0,0.0,0.0,0.0,0.0,0.0,0.0,0.0,0.0,0.0,0.0,0.0,0.0,0.0,0.0,0.0,0.0,0.0,0.0,0.0,0.0,0.0,0.0,0.0,0.0,0.0,0.0,0.0,0.0,0.0,0.0,0.0,0.0,0.0,0.0,0.0,0.0,0.0,0.0,0.0,0.0,0.0,0.0,0.0,0.0,0.0,0.0,0.0,0.0,0.0,0.0,0.0,0.0,0.0,0.0,0.0,0.0,0.0,0.0,0.0,0.0,0.0,0.0,0.0,0.0,0.0,0.0,0.0,0.0,0.0,0.0,0.0,0.0,0.0,0.0,0.0,0.0,0.0,0.0,0.0,0.0,0.0,0.0,0.0,0.0,0.0,0.0,0.0,0.0,0.0,0.0,0.0,0.0,0.0,0.0,0.0,0.0,0.0,0.0,0.0,0.0,0.0,0.0,0.0,0.0,0.0,0.0,0.0,0.0,0.0,0.0,0.0,0.0,0.0,0.0,0.0,0.0,0.0,0.0,0.0,0.0,0.0,0.0,0.0,0.0,0.0,0.0,0.0,0.0,0.0,0.0,0.0,0.0,0.0,0.0,0.0,0.0,0.0,0.0,0.0,0.0,0.0,0.0,0.0,0.0,0.0,0.0,0.0,0.0,0.0,0.0,0.0,0.0,0.0,0.0,0.0,0.0,0.0,0.0,0.0,0.0,0.0,0.0,0.0,0.0,0.0,0.0,0.0,0.0,0.0,0.0,0.0,0.0,0.0,0.0,0.0,0.0,0.0,0.0,0.0,0.0,0.0,0.0,0.0,0.0,0.0,0.0,0.0,0.0,0.0,0.0,0.0,0.0,0.0,0.0,0.0,0.0,0.0,0.0,0.0,0.0,0.0,0.0,0.0,0.0,0.0,0.0,0.0,0.0,0.0,0.0,0.0,0.0,0.0,0.0,0.0,0.0,0.0,0.0,0.0,0.0,0.0,0.0,0.0,0.0,0.0,0.0,0.0,0.0,0.0,0.0,0.0,0.0,0.0,0.0,0.0,0.0,0.0,0.0,-2.756,0.0,0.0,0.0,0.0,0.0,0.0,0.0,0.0,0.0,0.0,0.0,0.0,0.0,0.0,0.0,0.0,0.0,0.0,0.0,0.0,0.0,0.0,0.0,0.0,0.0,0.0,0.0,0.0,0.0,0.0,0.0,0.0,0.0,0.0,0.0,0.0,0.0,0.0,0.0,0.0,0.0,0.0,0.0,0.0,0.0,0.0,0.0,0.0,0.0,0.0,0.0,0.0,0.0,0.0,0.0,0.0,0.0,0.0,0.0,0.0,0.0,0.0,0.0,0.0,0.0,0.0,0.0,0.0,0.0,0.0,0.0,0.0,0.0,0.0,0.0,0.0,0.0,0.0,0.0,0.0,0.0,0.0,0.0,0.0,0.0,0.0,0.0,0.0,0.0,0.0,0.0,0.0,0.0,0.0,0.0,0.0,0.0,0.0,0.0,0.0,0.0,0.0,0.0,0.0,0.0,0.0,0.0,0.0,0.0,0.0,-2.7739,-2.8128,-2.8143,-2.8308,-2.8622,0.0,0.0,0.0,0.0,0.0,0.0,0.0,0.0,0.0,0.0,0.0,0.0,0.0,0.0,0.0,0.0,0.0,0.0,0.0,0.0,0.0,0.0,0.0,0.0,0.0,0.0,0.0,0.0,0.0,0.0,0.0,0.0,0.0,0.0,0.0,0.0,0.0,0.0,0.0,0.0,0.0,0.0,0.0,0.0,0.0,0.0,0.0,0.0,0.0,0.0,0.0,0.0,0.0,0.0,0.0,0.0,0.0,0.0,0.0,0.0,0.0,0.0,0.0,0.0,0.0,0.0,0.0,0.0,0.0,0.0,0.0,0.0,0.0,0.0,0.0,0.0,0.0,0.0,0.0,0.0,0.0,0.0,0.0,0.0,0.0,0.0,0.0,0.0,0.0,0.0,0.0,0.0,0.0,0.0,0.0,0.0,0.0,0.0,0.0,0.0,0.0,0.0,0.0,0.0,0.0,0.0,0.0,0.0,0.0,0.0,0.0,0.0,-2.8742,-2.9131,-2.9744,0.0,0.0,0.0,0.0,0.0,0.0,0.0,0.0,0.0,0.0,0.0,0.0,0.0,0.0,0.0,0.0,0.0,0.0,0.0,0.0,0.0,0.0,0.0,0.0,0.0,0.0,0.0,0.0,0.0,0.0,0.0,0.0,0.0,0.0,0.0,0.0,0.0,0.0,0.0,0.0,0.0,0.0,0.0,0.0,0.0,0.0,0.0,0.0,0.0,0.0,0.0,0.0,0.0,0.0,0.0,0.0,0.0,0.0,0.0,0.0,0.0,0.0,0.0,0.0,0.0,0.0,0.0,0.0,0.0,0.0,0.0,0.0,0.0,0.0,0.0,0.0,0.0,0.0,0.0,0.0,0.0,0.0,0.0,0.0,0.0,0.0,0.0,0.0,0.0,0.0,0.0,0.0,0.0,0.0,0.0,0.0,0.0,0.0,0.0,0.0,0.0,0.0,0.0,0.0,0.0,0.0,0.0,0.0,0.0,0.0,-2.8532,-2.8607,-2.919,0.0,-3.0357,0.0,0.0,0.0,0.0,0.0,0.0,0.0,0.0,0.0,0.0,0.0,0.0,0.0,0.0,0.0,0.0,0.0,0.0,0.0,0.0,0.0,0.0,0.0,0.0,0.0,0.0,0.0,0.0,0.0,0.0,0.0,0.0,0.0,0.0,0.0,0.0,0.0,0.0,0.0,0.0,0.0,0.0,0.0,0.0,0.0,0.0,0.0,0.0,0.0,0.0,0.0,0.0,0.0,0.0,0.0,0.0,0.0,0.0,0.0,0.0,0.0,0.0,0.0,0.0,0.0,0.0,0.0,0.0,0.0,0.0,0.0,0.0,0.0,0.0,0.0,0.0,0.0,0.0,0.0,0.0,0.0,0.0,0.0,0.0,0.0,0.0,0.0,0.0,0.0,0.0,0.0,0.0,0.0,0.0,0.0,0.0,0.0,0.0,0.0,0.0,0.0,0.0,0.0,0.0,0.0,0.0,0.0,0.0,0.0,0.0,-2.9355,-2.9729,-3.0387,-3.0851,0.0,0.0,0.0,0.0,0.0,0.0,0.0,0.0,0.0,0.0,0.0,0.0,0.0,0.0,0.0,0.0,0.0,0.0,0.0,0.0,0.0,0.0,0.0,0.0,0.0,0.0,0.0,0.0,0.0,0.0,0.0,0.0,0.0,0.0,0.0,0.0,0.0,0.0,0.0,0.0,0.0,0.0,0.0,0.0,0.0,0.0,0.0,0.0,0.0,0.0,0.0,0.0,0.0,0.0,0.0,0.0,0.0,0.0,0.0,0.0,0.0,0.0,0.0,0.0,0.0,0.0,0.0,0.0,0.0,0.0,0.0,0.0,0.0,0.0,0.0,0.0,0.0,0.0,0.0,0.0,0.0,0.0,0.0,0.0,0.0,0.0,0.0,0.0,0.0,0.0,0.0,0.0,0.0,0.0,0.0,0.0,0.0,0.0,0.0,0.0,0.0,0.0,0.0,0.0,0.0,0.0,0.0,0.0,0.0,0.0,-2.94,-3.0148,-3.0776,-3.145,-3.1884,-3.2063,0.0,0.0,0.0,0.0,0.0,0.0,0.0,0.0,0.0,0.0,0.0,0.0,0.0,0.0,0.0,0.0,0.0,0.0,0.0,0.0,0.0,0.0,0.0,0.0,0.0,0.0,0.0,0.0,0.0,0.0,0.0,0.0,0.0,0.0,0.0,0.0,0.0,0.0,0.0,0.0,0.0,0.0,0.0,0.0,0.0,0.0,0.0,0.0,0.0,0.0,0.0,0.0,0.0,0.0,0.0,0.0,0.0,0.0,0.0,0.0,0.0,0.0,0.0,0.0,0.0,0.0,0.0,0.0,0.0,0.0,0.0,0.0,0.0,0.0,0.0,0.0,0.0,0.0,0.0,0.0,0.0,0.0,0.0,0.0,0.0,0.0,0.0,0.0,0.0,0.0,0.0,0.0,0.0,0.0,0.0,0.0,0.0,0.0,0.0,0.0,0.0,0.0,0.0,0.0,0.0,0.0,0.0,0.0,-2.8667,-2.9849,-3.0806,-3.1422,-3.2123,-3.2766,0.0,0.0,0.0,0.0,0.0,0.0,0.0,0.0,0.0,0.0,0.0,0.0,0.0,0.0,0.0,0.0,0.0,0.0,0.0,0.0,0.0,0.0,0.0,0.0,0.0,0.0,0.0,0.0,0.0,0.0,0.0,0.0,0.0,0.0,0.0,0.0,0.0,0.0,0.0,0.0,0.0,0.0,0.0,0.0,0.0,0.0,0.0,0.0,0.0,0.0,0.0,0.0,0.0,0.0,0.0,0.0,0.0,0.0,0.0,0.0,0.0,0.0,0.0,0.0,0.0,0.0,0.0,0.0,0.0,0.0,0.0,0.0,0.0,0.0,0.0,0.0,0.0,0.0,0.0,0.0,0.0,0.0,0.0,0.0,0.0,0.0,0.0,0.0,0.0,0.0,0.0,0.0,0.0,0.0,0.0,0.0,0.0,0.0,0.0,0.0,0.0,0.0,0.0,0.0,0.0,0.0,0.0,0.0,0.0,-3.0462,-3.1345,-3.1797,-3.19,-3.2687,-3.3193,0.0,0.0,0.0,0.0,0.0,0.0,0.0,0.0,0.0,0.0,0.0,0.0,0.0,0.0,0.0,0.0,0.0,0.0,0.0,0.0,0.0,0.0,0.0,0.0,0.0,0.0,0.0,0.0,0.0,0.0,0.0,0.0,0.0,0.0,0.0,0.0,0.0,0.0,0.0,0.0,0.0,0.0,0.0,0.0,0.0,0.0,0.0,0.0,0.0,0.0,0.0,0.0,0.0,0.0,0.0,0.0,0.0,0.0,0.0,0.0,0.0,0.0,0.0,0.0,0.0,0.0,0.0,0.0,0.0,0.0,0.0,0.0,0.0,0.0,0.0,0.0,0.0,0.0,0.0,0.0,0.0,0.0,0.0,0.0,0.0,0.0,0.0,0.0,0.0,0.0,0.0,0.0,0.0,0.0,0.0,0.0,0.0,0.0,0.0,0.0,0.0,0.0,0.0,0.0,0.0,0.0,0.0,0.0,0.0,-3.1648,0.0,-3.1786,-3.1645,-3.2771,-3.3299,0.0,0.0,0.0,0.0,0.0,0.0,0.0,0.0,0.0,0.0,0.0,0.0,0.0,0.0,0.0,0.0,0.0,0.0,0.0,0.0,0.0,0.0,0.0,0.0,0.0,0.0,0.0,0.0,0.0,0.0,0.0,0.0,0.0,0.0,0.0,0.0,0.0,0.0,0.0,0.0,0.0,0.0,0.0,0.0,0.0,0.0,0.0,0.0,0.0,0.0,0.0,0.0,0.0,0.0,0.0,0.0,0.0,0.0,0.0,0.0,0.0,0.0,0.0,0.0,0.0,0.0,0.0,0.0,0.0,0.0,0.0,0.0,0.0,0.0,0.0,0.0,0.0,0.0,0.0,0.0,0.0,0.0,0.0,0.0,0.0,0.0,0.0,0.0,0.0,0.0,0.0,0.0,0.0,0.0,0.0,0.0,0.0,0.0,0.0,0.0,0.0,0.0,0.0,0.0,0.0,0.0,0.0,0.0,-3.1029,-3.204,-3.1198,-3.0758,-3.0704,-3.2259,-3.3149,0.0,0.0,0.0,0.0,0.0,0.0,0.0,0.0,0.0,0.0,0.0,0.0,0.0,0.0,0.0,0.0,0.0,0.0,0.0,0.0,0.0,0.0,0.0,0.0,0.0,0.0,0.0,0.0,0.0,0.0,0.0,0.0,0.0,0.0,0.0,0.0,0.0,0.0,0.0,0.0,0.0,0.0,0.0,0.0,0.0,0.0,0.0,0.0,0.0,0.0,0.0,0.0,0.0,0.0,0.0,0.0,0.0,0.0,0.0,0.0,0.0,0.0,0.0,0.0,0.0,0.0,0.0,0.0,0.0,0.0,0.0,0.0,0.0,0.0,0.0,0.0,0.0,0.0,0.0,0.0,0.0,0.0,0.0,0.0,0.0,0.0,0.0,0.0,0.0,0.0,0.0,0.0,0.0,0.0,0.0,0.0,0.0,0.0,0.0,0.0,0.0,0.0,0.0,0.0,0.0,0.0,0.0,0.0,0.0,-3.3672,-3.2178,-3.1474,-3.2027,-3.3149,-3.3125,0.0,0.0,0.0,0.0,0.0,0.0,0.0,0.0,0.0,0.0,0.0,0.0,0.0,0.0,0.0,0.0,0.0,0.0,0.0,0.0,0.0,0.0,0.0,0.0,0.0,0.0,0.0,0.0,0.0,0.0,0.0,0.0,0.0,0.0,0.0,0.0,0.0,0.0,0.0,0.0,0.0,0.0,0.0,0.0,0.0,0.0,0.0,0.0,0.0,0.0,0.0,0.0,0.0,0.0,0.0,0.0,0.0,0.0,0.0,0.0,0.0,0.0,0.0,0.0,0.0,0.0,0.0,0.0,0.0,0.0,0.0,0.0,0.0,0.0,0.0,0.0,0.0,0.0,0.0,0.0,0.0,0.0,0.0,0.0,0.0,0.0,0.0,0.0,0.0,0.0,0.0,0.0,0.0,0.0,0.0,0.0,0.0,0.0,0.0,0.0,0.0,0.0,0.0,0.0,0.0,0.0,0.0,0.0,0.0,-3.3584,-3.1901,-3.1116,-3.1549,-3.2684,-3.2612,-3.1341,0.0,0.0,0.0,0.0,0.0,0.0,0.0,0.0,0.0,0.0,0.0,0.0,0.0,0.0,0.0,0.0,0.0,0.0,0.0,0.0,0.0,0.0,0.0,0.0,0.0,0.0,0.0,0.0,0.0,0.0,0.0,0.0,0.0,0.0,0.0,0.0,0.0,0.0,0.0,0.0,0.0,0.0,0.0,0.0,0.0,0.0,0.0,0.0,0.0,0.0,0.0,0.0,0.0,0.0,0.0,0.0,0.0,0.0,0.0,0.0,0.0,0.0,0.0,0.0,0.0,0.0,0.0,0.0,0.0,0.0,0.0,0.0,0.0,0.0,0.0,0.0,0.0,0.0,0.0,0.0,0.0,0.0,0.0,0.0,0.0,0.0,0.0,0.0,0.0,0.0,0.0,0.0,0.0,0.0,0.0,0.0,0.0,0.0,0.0,0.0,0.0,0.0,0.0,0.0,0.0,0.0,0.0,0.0,-3.2506,-3.0748,-2.9894,-2.9934,-3.1304,-3.1698,0.0,0.0,0.0,0.0,0.0,0.0,0.0,0.0,0.0,0.0,0.0,0.0,0.0,0.0,0.0,0.0,0.0,0.0,0.0,0.0,0.0,0.0,0.0,0.0,0.0,0.0,0.0,0.0,0.0,0.0,0.0,0.0,0.0,0.0,0.0,0.0,0.0,0.0,0.0,0.0,0.0,0.0,0.0,0.0,0.0,0.0,0.0,0.0,0.0,0.0,0.0,0.0,0.0,0.0,0.0,0.0,0.0,0.0,0.0,0.0,0.0,0.0,0.0,0.0,0.0,0.0,0.0,0.0,0.0,0.0,0.0,0.0,0.0,0.0,0.0,0.0,0.0,0.0,0.0,0.0,0.0,0.0,0.0,0.0,0.0,0.0,0.0,0.0,0.0,0.0,0.0,0.0,0.0,0.0,0.0,0.0,0.0,0.0,0.0,0.0,0.0,0.0,0.0,0.0,0.0,0.0,0.0,0.0,0.0,-3.2013,-3.0971,-3.0559,-3.0872,-3.1596,-3.1615,0.0,0.0,0.0,0.0,0.0,0.0,0.0,0.0,0.0,0.0,0.0,0.0,0.0,0.0,0.0,0.0,0.0,0.0,0.0,0.0,0.0,0.0,0.0,0.0,0.0,0.0,0.0,0.0,0.0,0.0,0.0,0.0,0.0,0.0,0.0,0.0,0.0,0.0,0.0,0.0,0.0,0.0,0.0,0.0,0.0,0.0,0.0,0.0,0.0,0.0,0.0,0.0,0.0,0.0,0.0,0.0,0.0,0.0,0.0,0.0,0.0,0.0,0.0,0.0,0.0,0.0,0.0,0.0,0.0,0.0,0.0,0.0,0.0,0.0,0.0,0.0,0.0,0.0,0.0,0.0,0.0,0.0,0.0,0.0,0.0,0.0,0.0,0.0,0.0,0.0,0.0,0.0,0.0,0.0,0.0,0.0,0.0,0.0,0.0,0.0,0.0,0.0,0.0,0.0,0.0,0.0,0.0,0.0,-3.0912,-3.1732,-3.1229,-3.1064,-3.1255,-3.1784,-3.1765,0.0,0.0,0.0,0.0,0.0,0.0,0.0,0.0,0.0,0.0,0.0,0.0,0.0,0.0,0.0,0.0,0.0,0.0,0.0,0.0,0.0,0.0,0.0,0.0,0.0,0.0,0.0,0.0,0.0,0.0,0.0,0.0,0.0,0.0,0.0,0.0,0.0,0.0,0.0,0.0,0.0,0.0,0.0,0.0,0.0,0.0,0.0,0.0,0.0,0.0,0.0,0.0,0.0,0.0,0.0,0.0,0.0,0.0,0.0,0.0,0.0,0.0,0.0,0.0,0.0,0.0,0.0,0.0,0.0,0.0,0.0,0.0,0.0,0.0,0.0,0.0,0.0,0.0,0.0,0.0,0.0,0.0,0.0,0.0,0.0,0.0,0.0,0.0,0.0,0.0,0.0,0.0,0.0,0.0,0.0,0.0,0.0,0.0,0.0,0.0,0.0,0.0,0.0,0.0,0.0,0.0,0.0,0.0,-3.1424,-3.1474,-3.1474,-3.1512,-3.1574,-3.1989,-3.1989,0.0,0.0,0.0,0.0,0.0,0.0,0.0,0.0,0.0,0.0,0.0,0.0,0.0,0.0,0.0,0.0,0.0,0.0,0.0,0.0,0.0,0.0,0.0,0.0,0.0,0.0,0.0,0.0,0.0,0.0,0.0,0.0,0.0,0.0,0.0,0.0,0.0,0.0,0.0,0.0,0.0,0.0,0.0,0.0,0.0,0.0,0.0,0.0,0.0,0.0,0.0,0.0,0.0,0.0,0.0,0.0,0.0,0.0,0.0,0.0,0.0,0.0,0.0,0.0,0.0,0.0,0.0,0.0,0.0,0.0,0.0,0.0,0.0,0.0,0.0,0.0,0.0,0.0,0.0,0.0,0.0,0.0,0.0,0.0,0.0,0.0,0.0,0.0,0.0,0.0,0.0,0.0,0.0,0.0,0.0,0.0,0.0,0.0,0.0,0.0,0.0,0.0,0.0,0.0,0.0,0.0,0.0,0.0,-3.1599,-3.2014,-3.2039,-3.2265,-3.2704,-3.239,-3.2152,0.0,0.0,0.0,0.0,0.0,0.0,0.0,0.0,0.0,0.0,0.0,0.0,0.0,0.0,0.0,0.0,0.0,0.0,0.0,0.0,0.0,0.0,0.0,0.0,0.0,0.0,0.0,0.0,0.0,0.0,0.0,0.0,0.0,0.0,0.0,0.0,0.0,0.0,0.0,0.0,0.0,0.0,0.0,0.0,0.0,0.0,0.0,0.0,-3.3609,0.0,0.0,0.0,0.0,0.0,0.0,0.0,0.0,0.0,0.0,0.0,0.0,0.0,0.0,0.0,0.0,0.0,0.0,0.0,0.0,0.0,0.0,0.0,0.0,0.0,0.0,0.0,0.0,0.0,0.0,0.0,0.0,0.0,0.0,0.0,0.0,0.0,0.0,0.0,0.0,0.0,0.0,0.0,0.0,0.0,0.0,0.0,0.0,0.0,0.0,0.0,0.0,0.0,0.0,0.0,0.0,0.0,0.0,0.0,-3.2328,-3.2616,-3.2616,-3.2767,-3.3056,-3.278,-3.2616,0.0,0.0,0.0,0.0,0.0,0.0,0.0,0.0,0.0,0.0,0.0,0.0,0.0,0.0,0.0,0.0,0.0,0.0,0.0,0.0,0.0,0.0,0.0,0.0,0.0,0.0,0.0,0.0,0.0,0.0,0.0,0.0,0.0,0.0,0.0,0.0,0.0,0.0,0.0,0.0,0.0,0.0,0.0,0.0,0.0,0.0,0.0,0.0,0.0,0.0,0.0,0.0,0.0,0.0,0.0,0.0,0.0,0.0,0.0,0.0,0.0,0.0,0.0,0.0,0.0,0.0,0.0,0.0,0.0,0.0,0.0,0.0,0.0,0.0,0.0,0.0,0.0,0.0,0.0,0.0,0.0,0.0,0.0,0.0,0.0,0.0,0.0,0.0,0.0,0.0,0.0,0.0,0.0,0.0,0.0,0.0,0.0,0.0,0.0,0.0,0.0,0.0,0.0,0.0,0.0,0.0,0.0,-3.278,-3.3081,-3.3081,-3.3081,-3.3081,-3.3081,-3.3081,-3.3081,-3.3068,0.0,0.0,0.0,0.0,0.0,0.0,0.0,0.0,0.0,0.0,0.0,0.0,0.0,0.0,0.0,0.0,0.0,0.0,0.0,0.0,0.0,0.0,0.0,0.0,0.0,0.0,0.0,0.0,0.0,0.0,0.0,0.0,0.0,0.0,0.0,0.0,0.0,0.0,-3.3499,-3.3723,0.0,0.0,0.0,0.0,0.0,0.0,0.0,0.0,-3.4066,0.0,0.0,0.0,0.0,0.0,0.0,0.0,0.0,0.0,0.0,0.0,0.0,0.0,0.0,0.0,0.0,0.0,0.0,0.0,0.0,0.0,0.0,0.0,0.0,0.0,0.0,0.0,0.0,0.0,0.0,0.0,0.0,0.0,0.0,0.0,0.0,0.0,0.0,0.0,0.0,0.0,0.0,0.0,0.0,0.0,0.0,0.0,0.0,0.0,0.0,0.0,0.0,0.0,0.0,0.0,0.0,-3.2215,-3.278,-3.3081,-3.3081,-3.3081,-3.3081,-3.3081,-3.3081,-3.3081,-3.3081,0.0,0.0,0.0,0.0,0.0,0.0,0.0,0.0,0.0,0.0,0.0,0.0,0.0,0.0,0.0,0.0,0.0,0.0,0.0,0.0,0.0,0.0,0.0,0.0,0.0,0.0,0.0,0.0,0.0,0.0,0.0,0.0,0.0,0.0,0.0,0.0,0.0,0.0,0.0,-3.3445,-3.3386,0.0,0.0,0.0,0.0,0.0,0.0,0.0,0.0,-3.3076,0.0,0.0,0.0,0.0,0.0,0.0,0.0,0.0,0.0,0.0,0.0,0.0,0.0,0.0,0.0,0.0,0.0,0.0,0.0,0.0,0.0,0.0,0.0,0.0,0.0,0.0,0.0,0.0,0.0,0.0,0.0,0.0,0.0,0.0,0.0,0.0,0.0,0.0,0.0,0.0,0.0,0.0,0.0,0.0,0.0,0.0,0.0,0.0,0.0,0.0,0.0,0.0,0.0,0.0,0.0,-3.2654,-3.293,-3.3081,-3.3081,-3.3081,-3.3081,-3.3081,-3.3081,-3.3081,0.0,0.0,0.0,0.0,0.0,0.0,0.0,0.0,0.0,0.0,0.0,0.0,0.0,0.0,0.0,0.0,0.0,0.0,0.0,0.0,0.0,0.0,0.0,0.0,0.0,0.0,0.0,0.0,0.0,0.0,0.0,0.0,0.0,0.0,0.0,0.0,0.0,0.0,0.0,0.0,-3.3073,-3.3028,-3.2777,0.0,0.0,0.0,0.0,0.0,0.0,-3.2962,-3.2962,0.0,0.0,0.0,0.0,0.0,0.0,0.0,0.0,0.0,0.0,0.0,0.0,0.0,0.0,0.0,0.0,0.0,0.0,0.0,0.0,0.0,0.0,0.0,0.0,0.0,0.0,0.0,0.0,0.0,0.0,0.0,0.0,0.0,0.0,0.0,0.0,0.0,0.0,0.0,0.0,0.0,0.0,0.0,0.0,0.0,0.0,0.0,0.0,0.0,0.0,0.0,0.0,0.0,0.0,0.0,-3.3068,-3.3194,-3.3244,-3.3244,-3.3357,-3.3407,-3.3407,-3.3407,-3.3407,0.0,0.0,0.0,0.0,0.0,0.0,0.0,0.0,0.0,0.0,0.0,0.0,0.0,0.0,0.0,0.0,0.0,0.0,0.0,0.0,0.0,0.0,0.0,0.0,0.0,0.0,0.0,0.0,0.0,0.0,0.0,0.0,0.0,0.0,0.0,0.0,0.0,0.0,0.0,0.0,0.0,-3.2736,-3.2867,-3.2663,0.0,0.0,0.0,0.0,-3.3269,-3.3332,0.0,0.0,0.0,0.0,0.0,0.0,0.0,0.0,0.0,0.0,0.0,0.0,0.0,0.0,0.0,0.0,0.0,0.0,0.0,0.0,0.0,0.0,0.0,0.0,0.0,0.0,0.0,0.0,0.0,0.0,0.0,0.0,0.0,0.0,0.0,0.0,0.0,0.0,0.0,0.0,0.0,0.0,0.0,0.0,0.0,0.0,0.0,0.0,0.0,0.0,0.0,0.0,0.0,0.0,0.0,0.0,-3.3093,-3.3558,-3.3809,-3.3834,-3.4286,-3.4537,-3.4525,-3.4537,-3.4537,0.0,0.0,0.0,0.0,0.0,0.0,0.0,0.0,0.0,0.0,0.0,0.0,0.0,0.0,0.0,0.0,0.0,0.0,0.0,0.0,0.0,0.0,0.0,0.0,0.0,0.0,0.0,0.0,0.0,0.0,0.0,0.0,0.0,0.0,0.0,0.0,0.0,0.0,0.0,0.0,0.0,-3.2445,-3.2975,-3.3444,-3.362,0.0,0.0,0.0,-3.3872,-3.4211,0.0,0.0,0.0,0.0,0.0,0.0,0.0,0.0,0.0,0.0,0.0,0.0,0.0,0.0,0.0,0.0,0.0,0.0,0.0,0.0,0.0,0.0,0.0,0.0,0.0,0.0,0.0,0.0,0.0,0.0,0.0,0.0,0.0,0.0,0.0,0.0,0.0,0.0,0.0,0.0,0.0,0.0,0.0,0.0,0.0,0.0,0.0,0.0,0.0,0.0,0.0,0.0,0.0,0.0,0.0,-3.3545,-3.3558,-3.4085,-3.4361,-3.4374,-3.46,-3.4726,-3.4726,-3.4726,-3.4726,0.0,0.0,0.0,0.0,0.0,0.0,0.0,0.0,0.0,0.0,0.0,0.0,0.0,0.0,0.0,0.0,0.0,0.0,0.0,0.0,0.0,0.0,0.0,0.0,0.0,0.0,0.0,0.0,0.0,0.0,0.0,0.0,0.0,0.0,0.0,0.0,0.0,0.0,0.0,0.0,0.0,0.0,-3.3508,-3.401,0.0,0.0,0.0,-3.4625,-3.4399,0.0,0.0,0.0,0.0,0.0,0.0,0.0,0.0,0.0,0.0,0.0,0.0,0.0,0.0,0.0,0.0,0.0,0.0,0.0,0.0,0.0,0.0,0.0,0.0,0.0,0.0,0.0,0.0,0.0,0.0,0.0,0.0,0.0,0.0,0.0,0.0,0.0,0.0,0.0,0.0,0.0,0.0,0.0,0.0,0.0,0.0,0.0,0.0,0.0,0.0,0.0,0.0,0.0,0.0,0.0,0.0,0.0,-3.411,-3.465,-3.4926,-3.4939,-3.5064,-3.5127,-3.514,-3.514,0.0,0.0,0.0,0.0,0.0,0.0,0.0,0.0,0.0,0.0,0.0,0.0,0.0,0.0,0.0,0.0,0.0,0.0,0.0,0.0,0.0,0.0,0.0,0.0,0.0,0.0,0.0,0.0,0.0,0.0,0.0,0.0,0.0,0.0,0.0,0.0,0.0,0.0,0.0,0.0,0.0,0.0,-3.411,-3.4098,-3.4587,-3.4876,0.0,0.0,-3.509,-3.4951,-3.5039,-3.514,0.0,0.0,0.0,0.0,0.0,0.0,0.0,0.0,0.0,0.0,0.0,0.0,0.0,0.0,0.0,0.0,0.0,0.0,0.0,0.0,0.0,0.0,0.0,0.0,0.0,0.0,0.0,0.0,0.0,0.0,0.0,0.0,0.0,0.0,0.0,0.0,0.0,0.0,0.0,0.0,0.0,0.0,0.0,0.0,0.0,0.0,0.0,0.0,0.0,0.0,0.0,0.0,0.0,0.0,0.0,-3.4663,-3.5215,-3.5479,-3.5411,-3.5994,-3.6245,-3.6245,-3.6257,-3.6245,0.0,0.0,0.0,0.0,0.0,0.0,0.0,0.0,0.0,0.0,0.0,0.0,0.0,0.0,0.0,0.0,0.0,0.0,0.0,0.0,0.0,0.0,0.0,0.0,0.0,0.0,0.0,0.0,0.0,0.0,0.0,0.0,0.0,0.0,0.0,0.0,0.0,0.0,0.0,0.0,0.0,-3.4663,-3.4675,-3.514,-3.5316,0.0,0.0,-3.6081,-3.5567,-3.5918,-3.6245,-3.6257,0.0,0.0,0.0,0.0,0.0,0.0,0.0,0.0,0.0,0.0,0.0,0.0,0.0,0.0,0.0,0.0,0.0,0.0,0.0,0.0,0.0,0.0,0.0,0.0,0.0,0.0,0.0,0.0,0.0,0.0,0.0,0.0,0.0,0.0,0.0,0.0,0.0,0.0,0.0,0.0,0.0,0.0,0.0,0.0,0.0,0.0,0.0,0.0,0.0,0.0,0.0,0.0,0.0,-3.5027,-3.5228,-3.5768,-3.6044,-3.6044,-3.6257,-3.637,-3.637,-3.637,-3.637,0.0,0.0,0.0,0.0,0.0,0.0,0.0,0.0,0.0,0.0,0.0,0.0,0.0,0.0,0.0,0.0,0.0,0.0,0.0,0.0,0.0,0.0,0.0,0.0,0.0,0.0,0.0,0.0,-3.1775,-3.2039,-3.2378,0.0,0.0,0.0,0.0,0.0,0.0,0.0,0.0,0.0,0.0,-3.5228,-3.5228,-3.5692,0.0,0.0,-3.6094,-3.6282,-3.6081,-3.6219,-3.637,-3.637,-3.637,0.0,0.0,0.0,0.0,0.0,0.0,0.0,0.0,0.0,0.0,0.0,0.0,0.0,0.0,0.0,0.0,0.0,0.0,0.0,0.0,0.0,0.0,0.0,0.0,0.0,0.0,0.0,0.0,0.0,0.0,0.0,0.0,0.0,0.0,0.0,0.0,0.0,0.0,0.0,0.0,0.0,0.0,0.0,0.0,0.0,0.0,0.0,0.0,0.0,0.0,0.0,0.0,-3.5629,-3.5793,-3.6169,-3.637,-3.637,-3.637,-3.637,-3.637,-3.637,-3.637,0.0,0.0,0.0,0.0,0.0,0.0,0.0,0.0,0.0,0.0,0.0,0.0,0.0,0.0,0.0,0.0,0.0,0.0,0.0,0.0,0.0,0.0,0.0,0.0,0.0,0.0,0.0,0.0,-3.2365,-3.2692,-3.3257,0.0,0.0,0.0,0.0,0.0,0.0,0.0,0.0,0.0,0.0,-3.5793,-3.578,-3.6132,-3.637,-3.637,-3.637,-3.637,-3.637,-3.637,-3.637,-3.637,0.0,0.0,0.0,0.0,0.0,0.0,0.0,0.0,0.0,0.0,0.0,0.0,0.0,0.0,0.0,0.0,0.0,0.0,0.0,0.0,0.0,0.0,0.0,0.0,0.0,0.0,0.0,0.0,0.0,0.0,0.0,0.0,0.0,0.0,0.0,0.0,0.0,0.0,0.0,0.0,0.0,0.0,0.0,0.0,0.0,0.0,0.0,0.0,0.0,0.0,0.0,0.0,0.0,0.0,-3.6332,-3.6358,-3.637,-3.637,-3.637,-3.637,-3.637,-3.637,-3.637,-3.637,0.0,0.0,0.0,0.0,0.0,0.0,0.0,0.0,0.0,0.0,0.0,0.0,0.0,0.0,0.0,0.0,0.0,0.0,0.0,0.0,0.0,0.0,0.0,0.0,0.0,0.0,-3.2252,-3.2729,-3.3294,0.0,0.0,0.0,0.0,0.0,0.0,0.0,0.0,0.0,0.0,-3.5994,-3.6345,-3.6332,-3.6345,-3.637,-3.637,-3.637,-3.637,-3.637,-3.637,-3.637,0.0,0.0,0.0,0.0,0.0,0.0,0.0,0.0,0.0,0.0,0.0,0.0,0.0,0.0,0.0,0.0,0.0,0.0,0.0,0.0,0.0,0.0,0.0,0.0,0.0,0.0,0.0,0.0,0.0,0.0,0.0,0.0,0.0,0.0,0.0,0.0,0.0,0.0,0.0,0.0,-2.9954,-3.0813,0.0,0.0,0.0,0.0,0.0,0.0,0.0,0.0,0.0,0.0,0.0,0.0,-3.6169,-3.6358,-3.637,-3.637,-3.637,-3.637,-3.637,-3.637,-3.637,-3.5953,-3.5078,0.0,0.0,0.0,0.0,0.0,0.0,0.0,0.0,0.0,0.0,0.0,0.0,0.0,0.0,0.0,0.0,0.0,0.0,0.0,0.0,0.0,0.0,0.0,0.0,0.0,-3.293,0.0,0.0,0.0,0.0,0.0,0.0,0.0,0.0,0.0,0.0,0.0,-3.568,-3.6044,-3.6245,-3.637,-3.637,-3.637,-3.637,0.0,0.0,0.0,0.0,0.0,0.0,0.0,0.0,0.0,0.0,0.0,0.0,0.0,0.0,-3.6797,-3.642,-3.637,-3.637,-3.637,0.0,0.0,0.0,0.0,0.0,0.0,0.0,0.0,0.0,0.0,0.0,0.0,0.0,0.0,0.0,0.0,-2.9503,0.0,0.0,0.0,0.0,0.0,0.0,0.0,0.0,-3.1021,-3.0759,-2.9631,-3.0334,-3.1242,0.0,-3.1892,-3.2474,0.0,0.0,0.0,0.0,0.0,0.0,0.0,0.0,-3.637,-3.637,-3.637,-3.6168,-3.5763,-3.5667,-3.5463,-3.5054,-3.4945,-3.4557,-3.3662,-3.3662,-3.3254,0.0,0.0,0.0,0.0,0.0,0.0,0.0,0.0,0.0,0.0,0.0,0.0,0.0,0.0,0.0,0.0,0.0,0.0,0.0,0.0,0.0,0.0,0.0,-3.3784,0.0,0.0,0.0,0.0,0.0,0.0,0.0,0.0,0.0,-3.5818,-3.583,-3.5956,-3.6307,-3.637,-3.637,-3.637,0.0,0.0,0.0,0.0,0.0,0.0,0.0,-3.7462,-3.7475,-3.7764,-3.8002,-3.8002,-3.8002,-3.8002,-3.8002,0.0,0.0,-3.6747,-3.6483,-3.637,-3.637,-3.6081,-3.5931,-3.6282,-3.6069,-3.5931,0.0,0.0,0.0,0.0,0.0,0.0,0.0,0.0,-2.7778,-2.78,0.0,0.0,0.0,0.0,0.0,0.0,0.0,0.0,0.0,0.0,-3.0089,-3.0014,-2.8854,-3.0046,-3.0874,-3.1515,-3.2603,-3.2955,-3.2364,-3.175,0.0,0.0,0.0,0.0,0.0,0.0,-3.6263,-3.6168,-3.6263,-3.5667,-3.4483,-3.4483,-3.3859,-3.2532,-3.2431,-3.2431,-3.223,-3.223,-3.2241,-3.2241,-3.2219,0.0,0.0,0.0,0.0,0.0,0.0,0.0,0.0,0.0,0.0,0.0,0.0,0.0,0.0,0.0,0.0,0.0,0.0,0.0,0.0,-3.4751,0.0,0.0,0.0,0.0,0.0,0.0,0.0,0.0,0.0,0.0,-3.6383,-3.6358,-3.637,-3.6395,0.0,0.0,0.0,0.0,-3.7199,-3.7211,-3.7663,-3.799,-3.7977,-3.8015,-3.8027,-3.804,0.0,0.0,-3.8065,-3.8065,-3.809,-3.8065,-3.8078,-3.7864,-3.7362,-3.6835,-3.6471,-3.6458,-3.6458,-3.642,-3.642,-3.6496,-3.6458,-2.925,0.0,0.0,0.0,0.0,-2.9305,-2.9365,-2.9742,-2.7963,-2.8145,-2.9847,-2.9031,0.0,0.0,0.0,0.0,0.0,0.0,-2.9992,-2.8854,-2.9468,-2.9143,-2.8081,-2.8682,-2.9591,-3.0621,-3.0025,-3.0685,-3.2118,-3.0181,-3.0621,-3.3123,0.0,0.0,0.0,0.0,-3.3441,-3.354,-3.4459,-3.4775,-3.4385,-3.5367,-3.5174,-3.3871,-3.3773,-3.2844,-3.0927,-3.0824,-3.0927,-3.0813,-3.0927,0.0,0.0,0.0,0.0,0.0,0.0,0.0,0.0,0.0,0.0,0.0,0.0,0.0,0.0,0.0,0.0,0.0,0.0,0.0,-3.4713,-3.5429,-3.5742,0.0,0.0,0.0,0.0,0.0,0.0,0.0,0.0,0.0,-3.6897,-3.6596,-3.6496,0.0,0.0,-3.7098,-3.7475,-3.7663,-3.7764,-3.7776,0.0,0.0,0.0,-3.8354,-3.863,-3.8617,-3.8944,-3.922,-3.9207,-3.9207,-3.9207,-3.9195,-3.8881,-3.8567,-3.8404,-3.7927,-3.755,-3.7525,-3.7538,-3.7538,-3.7538,-3.7538,-3.7525,-2.8235,-2.8519,-2.9723,-3.0024,-2.9493,-2.9003,-2.8932,-2.9141,-2.7703,-2.7885,-2.9141,-2.8456,-2.8938,-3.0297,-3.0482,0.0,0.0,0.0,-2.9286,-2.8604,-2.8869,-2.8605,-2.8035,-2.8174,-2.8698,-2.9513,-2.9207,-2.9608,-3.0721,-2.9608,-2.97,-3.0872,0.0,0.0,-3.2342,-3.2532,-3.2622,-3.2644,-3.3547,-3.3853,-3.3345,-3.3537,-3.3322,-3.2524,-3.2513,-3.1693,-3.0033,-3.0033,-2.9952,-2.9778,-2.9768,-2.9993,0.0,0.0,0.0,0.0,0.0,0.0,0.0,0.0,0.0,0.0,0.0,-3.1067,0.0,0.0,0.0,0.0,-3.3185,-3.3707,-3.3801,-3.4366,0.0,0.0,0.0,0.0,0.0,0.0,0.0,-3.6113,-3.6483,-3.6885,-3.7425,-3.7224,-3.7136,-3.7475,-3.7513,-3.7638,-3.7952,0.0,-3.8341,-3.8354,-3.853,-3.8668,-3.8693,-3.8956,-3.9195,-3.9207,-3.9459,-3.9685,-3.9697,-3.9697,-3.9697,-3.9659,-3.9421,-3.8978,-3.8415,-3.803,-3.7839,-3.7991,-3.8002,-3.8002,-3.8002,-3.8002,-3.8002,-2.7119,-2.7314,-2.9533,-2.9796,-2.8697,-2.8728,-2.8188,-2.7109,-2.7119,-2.7119,-2.7119,-2.7119,-2.8024,-2.9617,-2.9922,0.0,0.0,-2.891,-2.8281,-2.8301,-2.8301,-2.8301,-2.8301,-2.8291,-2.831,-2.834,-2.9564,-2.9584,-2.8506,-2.9625,-2.9819,-2.9064,-2.9819,-3.0827,-3.207,-3.2491,-3.2723,-3.2734,-3.3144,-3.2844,-3.179,-3.053,-2.9895,-2.9774,-2.9784,-2.9672,-2.956,-2.957,-2.9385,-2.9004,-2.8975,-2.8799,-2.8418,0.0,0.0,0.0,0.0,0.0,0.0,0.0,0.0,0.0,0.0,0.0,0.0,0.0,0.0,0.0,-3.1873,0.0,-3.2331,-3.2331,0.0,0.0,0.0,-3.3342,-3.5812,-3.503,-3.4942,-3.6676,0.0,0.0,0.0,0.0,-3.8003,-3.8029,-3.8003,-3.809,-3.8128,-3.8617,-3.8931,-3.8931,-3.9396,-3.9747,-3.971,-3.9798,-3.9665,-3.9327,-3.9615,-3.9782,-3.9457,-3.9782,-3.9744,-3.9561,-3.9719,-3.9395,-3.7916,-3.7714,-3.7616,-3.7811,-3.7729,-3.7755,-3.7904,-3.7904,-3.8029,-2.7988,-2.7988,-2.859,-2.8495,-2.8038,-2.8252,-2.8285,-2.7988,-2.7998,-2.7988,-2.7988,-2.7988,-2.8249,-2.8665,-2.8754,-2.8804,-2.8804,-2.8504,-2.8301,-2.8301,-2.8301,-2.8301,-2.8301,-2.8301,-2.8457,-2.876,-2.9085,-2.9243,-2.9258,-2.9579,-2.9628,-2.9404,-2.9628,-2.9899,-3.0207,-3.0318,-3.0378,-3.0368,-3.1531,-3.2427,-3.3057,-3.2855,-3.2114,-3.1158,-3.1168,-3.063,-2.9682,-2.958,-2.9521,-2.9414,-2.9414,-2.9365,-2.9268,-2.8955,0.0,0.0,0.0,0.0,0.0,0.0,0.0,0.0,0.0,-2.929,-3.0278,0.0,-3.074,0.0,-3.0657,-3.1235,-3.223,-3.2331,0.0,0.0,-3.2543,-3.269,-3.3671,-3.3514,-3.3606,-3.4395,-3.5412,-3.5919,-3.5351,-3.726,-3.8376,-3.7782,-3.8271,-3.8818,-3.9233,-3.9396,-3.9496,-3.9559,-3.9973,-4.0312,-4.0232,-4.0689,-4.0008,-3.7769,-3.9237,-4.0153,-3.7769,-3.9346,-4.0595,-3.9455,-4.0141,-4.0141,-3.8728,-3.852,-3.8107,-3.7165,-3.6455,-3.6342,-3.7319,-3.7634,-3.7971,-2.8301,-2.8301,-2.8301,-2.8154,-2.7969,-2.8203,-2.8301,-2.8301,-2.8301,-2.8301,-2.8301,-2.8301,-2.8301,-2.8301,-2.8301,-2.8301,-2.831,-2.8496,-2.8564,-2.8574,-2.8779,-2.8857,-2.8857,-2.8867,-2.8984,-2.9209,-2.9209,-2.9336,-2.956,-2.958,-2.9668,-2.9853,-2.9853,-2.9951,-3.0137,-2.9951,-2.9844,-2.9853,-3.081,-3.1676,-3.2322,-3.2432,-3.1989,-3.135,-3.136,-3.091,-3.0156,-3.0166,-3.0059,-2.9863,-2.9853,-2.9766,-2.957,-2.9346,-2.9209,0.0,0.0,0.0,0.0,0.0,0.0,0.0,0.0,0.0,0.0,0.0,-3.0328,0.0,0.0,0.0,-3.0411,-3.0704,-3.1029,-3.1641,-3.1315,-3.1645,-3.3049,-3.2779,-3.2743,-3.3855,-3.4664,-3.5058,-3.4904,-3.6826,-3.7895,-3.696,-3.8457,-3.971,-3.9986,-4.0061,-4.0149,-4.0388,-4.0108,-3.9503,-3.8947,-3.8966,-3.8701,-3.7213,-3.8016,-3.8589,-3.6985,-3.8016,-3.8923,-3.8117,-3.8577,-3.8701,-3.719,-3.6962,-3.6389,-3.5082,-3.4297,-3.475,-3.6607,-3.7049,-3.7391,-2.8467,-2.8457,-2.8457,-2.8457,-2.8447,-2.8457,-2.8398,-2.8301,-2.8301,-2.833,-2.8379,-2.8369,-2.8408,-2.8457,-2.8467,-2.8447,-2.8486,-2.8838,-2.9004,-2.9033,-2.9394,-2.958,-2.958,-2.957,-2.96,-2.9648,-2.9648,-2.9678,-2.9736,-2.9746,-2.9932,-3.0273,-3.0283,-3.0488,-3.0859,-3.0547,-3.0342,-3.0293,-3.0742,-3.0976,-3.0976,-3.0976,-3.0976,-3.0967,-3.0918,-3.0898,-3.0898,-3.0898,-3.0703,-3.0312,-3.0283,-3.0117,-2.9766,-2.9687,-2.9648,0.0,-2.96,0.0,0.0,0.0,0.0,0.0,0.0,0.0,0.0,-2.9581,-3.0182,-3.0182,-2.9176,-2.8457,-2.8457,-2.8779,-2.953,-3.0591,-3.0088,-3.054,-3.2813,-3.2091,-3.2053,-3.3704,-3.4086,-3.4383,-3.4648,-3.6254,-3.6874,-3.6117,-3.8005,-3.9619,-4.0038,-4.012,-4.0314,-4.0931,-3.9659,-3.8222,-3.7073,-3.6865,-3.6887,-3.6391,-3.6783,-3.6589,-3.618,-3.6645,-3.6853,-3.6622,-3.6898,-3.6518,-3.4857,-3.4641,-3.4196,-3.2973,-3.2588,-3.3436,-3.558,-3.6208,-3.6412,-2.9326,-2.9326,-2.9326,-2.9326,-2.9326,-2.9336,-2.8926,-2.8301,-2.8301,-2.8486,-2.8799,-2.8799,-2.8994,-2.9316,-2.9336,-2.9326,-2.9326,-2.9404,-2.9453,-2.9453,-2.9531,-2.958,-2.958,-2.958,-2.9746,-3.0068,-3.0078,-3.0264,-3.0644,-3.0644,-3.0684,-3.0762,-3.0752,-3.081,0.0,0.0,0.0,0.0,-3.1182,-3.1396,-3.1396,-3.1396,-3.1396,-3.1387,-3.1064,0.0,-3.0898,-3.0898,-3.085,-3.0762,-3.0752,0.0,0.0,0.0,0.0,0.0,0.0,0.0,0.0,0.0,0.0,0.0,-2.9424,-2.9326,-2.9326,-2.9538,-2.9748,-2.9748,-2.9547,-2.9326,-2.9336,-2.9394,-2.9554,-2.9776,-2.9744,-2.9921,-3.078,-3.0625,-3.0804,-3.1471,-3.2633,-3.3006,-3.254,-3.4528,-3.5825,-3.4921,-3.6267,-3.7474,-3.7954,-3.8671,-3.9259,-3.9256,-3.8364,-3.7239,-3.6086,-3.6948,-3.6665,-3.5086,-3.6271,-3.661,-3.48,-3.6228,-3.7209,-3.6228,-3.6981,-3.7317,-3.5766,-3.5544,-3.4902,-3.3414,-3.3164,-3.3446,-3.462,-3.4805,-3.5136,-2.958,0.0,-2.958,-2.958,0.0,-2.958,-2.9326,-2.8926,-2.8926,-2.9043,-2.9238,-2.9248,-2.9365,-2.958,-2.958,-2.958,-2.958,-2.9785,-2.9883,-2.9893,-3.0117,-3.0215,-3.0225,-3.0225,-3.0332,-3.0537,-3.0537,-3.0654,-3.0889,-3.1094,-3.1191,-3.1201,-3.1416,-3.1523,-3.1523,-3.1728,-3.1738,-3.1523,-3.1728,-3.1846,-3.1836,-3.1836,-3.1836,-3.1836,0.0,0.0,0.0,0.0,0.0,0.0,0.0,0.0,0.0,0.0,0.0,-3.0537,-3.0342,-3.0225,-3.0225,-3.0225,-3.0225,-3.0225,-3.0225,-3.0039,-2.9609,-2.958,-2.958,-2.958,-2.958,-2.958,-2.958,-2.9746,-2.9883,-2.9893,-3.0088,-3.0322,-3.0498,-3.0547,-3.0723,-3.1103,-3.1866,-3.2133,-3.1887,-3.3765,-3.4625,-3.3889,-3.5607,-3.6827,-3.6741,-3.7533,-3.7977,-3.7511,-3.7041,-3.6129,-3.5036,-3.5222,-3.5458,-3.4027,-3.4746,-3.4984,-3.366,-3.4746,-3.5581,-3.486,-3.5345,-3.5458,-3.485,-3.4612,-3.4373,-3.366,-3.3418,-3.3426,-3.3789,-3.3943,-3.4065,-2.9805,-2.9805,-2.9805,-2.9805,-2.9805,-2.9805,-2.9805,-2.9795,0.0,0.0,0.0,-2.9687,-2.9726,-2.9805,-2.9805,-2.9795,-2.9834,-3.0166,-3.0312,-3.0332,-3.0713,-3.0928,-3.1006,-3.1006,-3.1045,-3.1113,-3.1123,-3.1123,-3.1133,-3.1465,-3.1631,-3.167,-3.1992,-3.2197,-3.2275,-3.2285,-3.2314,-3.2383,-3.2314,-3.2275,-3.2285,-3.2275,-3.2275,-3.2285,-3.2207,-3.2168,-3.2168,-3.2168,-3.2002,-3.165,-3.1641,-3.1475,-3.1143,-3.1113,-3.1113,-3.1113,-3.1045,-3.1006,-3.1006,-3.0937,-3.0898,-3.0898,-3.0898,-3.0557,-2.9746,-2.9756,-2.9805,-2.9805,-2.9805,-2.9814,-2.9805,-3.0117,-3.0322,-3.0322,-3.0723,-3.0996,-3.1016,-3.1084,-3.1269,-3.1562,-3.1631,-3.1797,-3.2329,-3.3316,-3.3819,-3.3381,-3.4908,-3.6437,-3.5781,-3.6305,-3.6665,-3.5659,-3.5365,-3.483,-3.3902,-3.3534,-3.3418,-3.3418,-3.3418,-3.3418,-3.3418,-3.3418,-3.3418,-3.3534,-3.3418,-3.3534,-3.3408,-3.3544,-3.3418,-3.3418,-3.3418,-3.3418,-3.3418,-3.3408,-3.3495,-3.0703,-3.0703,-3.0703,-3.0703,-3.0703,-3.0703,-3.0713,-3.0644,-2.9902,-2.9775,-3.0107,-3.0098,-3.0322,-3.0703,-3.0713,-3.0703,-3.0703,-3.0771,-3.0801,0.0,-3.0859,-3.1084,-3.1416,-3.1426,-3.1621,-3.1973,-3.1982,-3.1992,-3.1992,-3.2051,-3.207,-3.208,-3.2139,-3.2353,-3.2676,-3.2705,-3.2881,-3.3232,-3.2891,-3.2705,-3.2705,-3.2705,-3.2705,-3.2685,-3.2363,-3.2168,-3.2168,-3.2178,-3.2139,-3.208,-3.208,-3.2041,-3.1992,-3.1973,-3.1992,-3.1973,-3.1641,-3.1426,-3.1416,-3.1094,-3.0898,-3.0898,-3.0898,-3.0674,-3.0176,-3.0469,-3.0703,-3.0703,-3.0674,-3.0703,-3.0713,-3.0762,-3.082,-3.084,-3.1182,-3.1426,-3.1435,-3.1738,-3.1973,-3.206,-3.207,-3.2236,-3.2617,-3.2932,-3.3194,-3.3328,-3.3983,-3.4063,-3.4218,-3.5047,-3.5262,-3.4123,-3.3776,-3.366,-3.3418,-3.3418,-3.3428,-3.3418,-3.3447,-3.3486,-3.3525,-3.3525,-3.3525,-3.3457,-3.3506,-3.3486,-3.3476,-3.3418,-3.3496,-3.3516,-3.3525,-3.3496,-3.3525,-3.3506,-3.3467,-3.1582,-3.1592,-3.1582,-3.1582,-3.1582,-3.1582,-3.1582,-3.1553,-3.1162,-3.081,-3.0576,-3.0576,-3.0693,-3.0889,-3.0898,-3.1025,-3.123,-3.1221,-3.1357,-3.1582,-3.1582,-3.1689,-3.1855,-3.1875,-3.1973,-3.2158,-3.2168,-3.2168,-3.2187,-3.2393,-3.251,-3.2519,-3.2734,-3.2949,-3.3125,-3.3135,-3.3232,-3.3408,-3.3232,-3.3135,-3.3135,-3.3135,-3.3144,-3.3135,-3.2939,-3.2851,-3.2851,-3.2851,-3.2744,-3.2519,-3.25,-3.2402,-3.2187,-3.2168,-3.2168,-3.2168,-3.1982,-3.1875,-3.1875,-3.1689,-3.1582,-3.1582,-3.1582,-3.1504,-3.1289,-3.1035,-3.0898,-3.0908,-3.1094,-3.123,-3.124,-3.1445,-3.1582,-3.1582,-3.1758,-3.1865,-3.1885,-3.2031,-3.2246,-3.2461,-3.251,-3.2676,-3.3086,-3.3135,-3.3184,-3.3398,-3.3418,-3.3418,-3.3428,-3.4027,-3.4258,-3.3534,-3.3418,-3.3418,-3.3428,-3.3418,-3.3516,-3.3721,-3.3769,-3.3867,-3.4043,-3.4111,-3.4101,-3.4121,-3.4101,-3.4111,-3.4092,-3.4121,-3.4111,-3.4111,-3.4111,-3.4111,-3.4111,-3.4111,-3.3945,-3.2168,-3.2168,-3.2168,-3.2168,-3.2168,-3.2168,-3.2168,-3.2168,-3.2148,-3.1797,-3.123,-3.1182,-3.1182,-3.1182,-3.1182,-3.1357,-3.1631,-3.167,-3.1846,-3.2148,-3.2168,-3.2217,-3.2295,-3.2314,-3.2353,-3.2441,-3.2451,-3.2451,-3.249,-3.2783,-3.2939,-3.2978,-3.3262,-3.3418,-3.3418,-3.3418,-3.3418,-3.3418,-3.3418,-3.3418,-3.3418,-3.3418,-3.3418,-3.3418,-3.3408,-3.3418,-3.3418,-3.3418,-3.3271,-3.2959,-3.2939,-3.2793,-3.249,-3.2451,-3.2451,-3.2441,-3.2353,-3.2266,-3.2178,-3.2168,-3.2168,-3.2168,-3.2168,-3.2168,-3.2109,-3.1572,-3.1172,-3.1221,-3.1494,-3.167,-3.1689,-3.1934,-3.2168,-3.2168,-3.2266,-3.2305,-3.2314,-3.2393,-3.2568,-3.2881,-3.293,-3.3066,-3.332,-3.3418,-3.3467,-3.3555,-3.3574,-3.3584,-3.3672,-3.3711,-3.3711,-3.3691,-3.3643,-3.3652,-3.3672,-3.374,-3.3887,-3.418,-3.4219,-3.4336,-3.456,-3.4668,-3.4678,-3.4629,-3.4658,-3.4619,-3.4668,-3.4668,-3.4639,-3.4609,-3.459,-3.4639,-3.4619,-3.4619,-3.4492,-3.2178,-3.2168,-3.2197,-3.2168,-3.2197,-3.2197,-3.2197,-3.2197,-3.2178,-3.2139,-3.206,-3.2051,-3.2041,-3.2051,-3.2031,-3.2041,-3.21,-3.2109,-3.2139,-3.2197,-3.2168,-3.2373,-3.2715,-3.2734,-3.2939,-3.3232,-3.3262,-3.3223,-3.3223,-3.3301,-3.335,-3.3369,-3.3408,-3.3418,-3.3418,-3.3428,-3.3428,-3.3418,-3.3418,-3.3418,-3.3418,-3.3418,-3.3418,-3.3418,-3.3418,-3.3418,-3.3418,-3.3418,-3.3398,-3.3369,-3.335,-3.334,-3.3291,-3.3291,-3.3291,-3.3271,-3.2949,-3.2568,-3.2226,-3.2168,-3.2197,-3.2168,-3.2207,-3.2217,-3.2207,-3.2119,-3.2051,-3.206,-3.209,-3.2109,-3.2119,-3.2178,-3.2256,-3.2305,-3.2549,-3.2744,-3.2773,-3.3086,-3.333,-3.335,-3.334,-3.3389,-3.3457,-3.3496,-3.3633,-3.3975,-3.4014,-3.4111,-3.4375,-3.4443,-3.4482,-3.4473,-3.4277,-3.4199,-3.4404,-3.457,-3.4531,-3.4609,-3.4648,-3.4726,-3.4805,-3.4814,-3.4717,-3.4951,-3.4805,-3.4834,-3.4795,-3.4697,-3.4766,-3.4883,-3.4853,-3.4746,-3.4707,-3.4775,-3.4707,-3.291,-3.291,-3.291,-3.291,-3.291,-3.291,-3.291,-3.291,-3.291,-3.291,-3.291,-3.291,-3.2646,-3.2178,-3.2168,-3.2295,-3.2529,-3.2539,-3.2676,-3.29,-3.292,-3.3008,-3.3144,-3.3164,-3.3262,-3.3408,-3.3418,-3.3418,-3.3418,-3.3418,-3.3418,-3.3418,-3.3418,-3.3418,-3.3437,-3.3682,-3.3809,-3.3818,-3.4053,-3.418,-3.4121,-3.3672,-3.3418,-3.3418,-3.3418,-3.3418,-3.3418,-3.3418,-3.3418,-3.3418,-3.3418,-3.3418,-3.3418,-3.3418,-3.3418,-3.3408,-3.3262,-3.3086,-3.292,-3.291,-3.291,-3.291,-3.291,-3.291,-3.291,-3.291,-3.291,-3.2881,-3.2695,-3.2539,-3.2559,-3.2764,-3.291,-3.293,-3.3066,-3.3174,-3.3174,-3.331,-3.3418,-3.3428,-3.3652,-3.3809,-3.3848,-3.4023,-3.4228,-3.4424,-3.4443,-3.4541,-3.4687,-3.4697,-3.4824,-3.5019,-3.4951,-3.4795,-3.4775,-3.4697,-3.4814,-3.5019,-3.5107,-3.5146,-3.54,-3.5478,-3.5488,-3.5469,-3.5478,-3.5478,-3.5517,-3.5478,-3.5488,-3.5478,-3.5478,-3.5478,-3.5488,-3.5478,-3.5478,-3.3418,-3.3418,-3.3418,-3.3418,-3.3418,-3.3418,-3.3418,-3.3418,-3.3418,-3.3418,-3.3418,-3.3418,-3.3096,-3.2568,-3.251,-3.2685,-3.2939,-3.2969,-3.3125,-3.3398,-3.3418,-3.3418,-3.3418,-3.3418,-3.3418,-3.3418,-3.3418,-3.3418,-3.3437,-3.3555,-3.3594,-3.3613,-3.3711,-3.3769,-3.3799,-3.4101,-3.4238,-3.4267,-3.456,-3.4697,-3.4609,-3.4092,-3.3769,-3.3779,-3.3769,-3.3769,-3.3769,-3.3779,-3.3779,-3.3779,-3.3769,-3.3769,-3.3769,-3.3769,-3.3721,-3.3594,-3.3476,-3.3418,-3.3418,-3.3418,-3.3418,-3.3418,-3.3418,-3.3418,-3.3437,-3.3525,-3.3594,-3.3584,-3.3428,-3.3291,-3.3008,-3.3242,-3.3447,-3.3564,-3.3594,-3.3633,-3.376,-3.3769,-3.3799,-3.3809,-3.4082,-3.4248,-3.4287,-3.4482,-3.4697,-3.4853,-3.4892,-3.4961,-3.5039,-3.5107,-3.5215,-3.5508,-3.5557,-3.543,-3.5137,-3.5137,-3.5254,-3.54,-3.5557,-3.5664,-3.5996,-3.6064,-3.6191,-3.6074,-3.624,-3.6367,-3.6357,-3.6367,-3.6328,-3.6357,-3.6338,-3.626,-3.6152,-3.6191,-3.6123,-3.3418,-3.3418,-3.3418,-3.3418,-3.3418,-3.3418,-3.3418,-3.3418,-3.3418,-3.3418,-3.3418,-3.3418,-3.3389,-3.331,-3.3271,-3.335,-3.3379,-3.3359,-3.3369,-3.3418,-3.3418,-3.3418,-3.3418,-3.3418,-3.3428,-3.3476,-3.3486,-3.3476,-3.3506,-3.3848,-3.4053,-3.4053,-3.4385,-3.4609,-3.459,-3.4629,-3.4668,-3.4678,-3.4756,-3.4746,-3.4736,-3.4678,-3.4648,-3.4648,-3.4619,-3.458,-3.46,-3.4619,-3.4619,-3.4629,-3.458,-3.4609,-3.4609,-3.46,-3.4424,-3.4072,-3.3672,-3.3457,-3.3467,-3.3496,-3.3486,-3.3467,-3.3525,-3.3457,-3.3564,-3.3848,-3.4033,-3.4043,-3.4297,-3.418,-3.3574,-3.3535,-3.3691,-3.3994,-3.4043,-3.4209,-3.4551,-3.4502,-3.4629,-3.459,-3.4619,-3.4707,-3.4697,-3.4678,-3.4971,-3.5254,-3.5371,-3.5508,-3.582,-3.5928,-3.5996,-3.6025,-3.6045,-3.5986,-3.5967,-3.5859,-3.5898,-3.6074,-3.6142,-3.6064,-3.6162,-3.6309,-3.6504,-3.6699,-3.6875,-3.7031,-3.7178,-3.7197,-3.7109,-3.708,-3.7041,-3.6963,-3.668,-3.665,-3.6582,-3.3418,-3.3418,-3.3418,-3.3418,-3.3418,-3.3418,-3.3418,-3.3418,-3.3418,-3.3418,-3.3418,-3.3418,-3.3418,-3.3418,-3.3418,-3.3418,-3.3418,-3.3418,-3.3418,-3.3418,-3.3418,-3.3418,-3.3418,-3.3418,-3.3584,-3.3809,-3.3828,-3.3984,-3.4238,-3.4404,-3.4473,-3.4482,-3.4609,-3.4697,-3.4746,-3.5,-3.5137,-3.5166,-3.54,-3.5547,-3.5537,-3.5547,-3.5547,-3.5508,-3.499,-3.4697,-3.4697,-3.4697,-3.4697,-3.4697,-3.4697,-3.4697,-3.4697,-3.4697,-3.4639,-3.4492,-3.4326,-3.4238,-3.4248,-3.4238,-3.4238,-3.4238,-3.4238,-3.4209,-3.4267,-3.4375,-3.4473,-3.4512,-3.459,-3.4502,-3.4355,-3.4238,-3.4297,-3.4424,-3.4482,-3.4541,-3.4648,-3.4697,-3.4697,-3.4736,-3.4932,-3.5234,-3.5488,-3.5547,-3.5615,-3.5781,-3.6035,-3.625,-3.6426,-3.665,-3.6787,-3.6826,-3.6836,-3.6846,-3.6836,-3.6572,-3.6494,-3.6738,-3.6855,-3.6836,-3.6894,-3.6894,-3.7051,-3.709,-3.7314,-3.7422,-3.7471,-3.7461,-3.7461,-3.7432,-3.7422,-3.7422,-3.71,-3.708,-3.7012,-3.3711,-3.3818,-3.3838,-3.3828,-3.3838,-3.3828,-3.3828,-3.3838,-3.3838,-3.3838,-3.3838,-3.3828,-3.3838,-3.3838,-3.3828,-3.3838,-3.3809,-3.3701,-3.3643,-3.3643,-3.3769,-3.3838,-3.3828,-3.3828,-3.3984,-3.4228,-3.4277,-3.4434,-3.4687,-3.4844,-3.4922,-3.4912,-3.5039,-3.5117,-3.5185,-3.5449,-3.5654,-3.583,-3.6094,-3.6279,-3.6406,-3.6435,-3.6426,-3.6348,-3.584,-3.5391,-3.5156,-3.5127,-3.5117,-3.5127,-3.5127,-3.5127,-3.5127,-3.5,-3.4922,-3.4912,-3.4775,-3.4697,-3.4697,-3.4697,-3.4687,-3.4697,-3.4687,-3.4697,-3.4707,-3.4834,-3.4912,-3.4941,-3.5078,-3.5156,-3.5303,-3.5342,-3.5225,-3.501,-3.4922,-3.499,-3.5098,-3.5137,-3.5215,-3.5439,-3.5801,-3.6133,-3.6357,-3.6416,-3.6435,-3.6435,-3.6699,-3.6855,-3.6924,-3.709,-3.7295,-3.7295,-3.7236,-3.7305,-3.7373,-3.7246,-3.6982,-3.7158,-3.7246,-3.7334,-3.7422,-3.7451,-3.75,-3.7529,-3.7588,-3.7666,-3.7695,-3.7695,-3.7685,-3.7676,-3.7793,-3.7891,-3.7666,-3.751,-3.7402,-3.4307,-3.4609,-3.4687,-3.4609,-3.458,-3.457,-3.4648,-3.46,-3.4609,-3.456,-3.4521,-3.4619,-3.4551,-3.4619,-3.4541,-3.4629,-3.4531,-3.4277,-3.4121,-3.4111,-3.4434,-3.459,-3.458,-3.456,-3.4609,-3.4717,-3.4717,-3.4736,-3.4844,-3.5205,-3.54,-3.5488,-3.5801,-3.5967,-3.6025,-3.6084,-3.6269,-3.6543,-3.666,-3.6855,-3.7236,-3.7197,-3.7178,-3.7207,-3.7129,-3.6738,-3.6064,-3.6025,-3.6025,-3.6016,-3.6016,-3.6025,-3.5976,-3.5713,-3.5449,-3.5449,-3.5059,-3.4814,-3.4834,-3.4902,-3.5,-3.501,-3.4844,-3.5,-3.5107,-3.5322,-3.5527,-3.5596,-3.584,-3.6172,-3.6484,-3.6543,-3.6279,-3.5596,-3.5547,-3.5693,-3.5937,-3.6035,-3.6182,-3.6523,-3.6865,-3.7226,-3.7266,-3.7158,-3.7109,-3.7129,-3.7236,-3.7295,-3.7314,-3.7422,-3.7373,-3.7383,-3.7529,-3.7705,-3.7822,-3.79,-3.7656,-3.749,-3.751,-3.7568,-3.7695,-3.7764,-3.79,-3.7959,-3.8096,-3.8174,-3.8174,-3.8174,-3.8252,-3.8262,-3.8359,-3.8281,-3.8115,-3.791,-3.7773,-3.458,-3.4697,-3.4697,-3.4697,-3.4697,-3.4697,-3.4697,-3.4697,-3.4697,-3.4697,-3.4697,-3.4697,-3.4697,-3.4697,-3.4697,-3.4707,-3.4717,-3.4863,-3.4814,-3.459,-3.4658,-3.4726,-3.4717,-3.4707,-3.4863,-3.5185,-3.5478,-3.5605,-3.5635,-3.5762,-3.5957,-3.625,-3.6396,-3.6631,-3.6846,-3.6904,-3.6982,-3.708,-3.7109,-3.7187,-3.7285,-3.7305,-3.7305,-3.7295,-3.7295,-3.7139,-3.6924,-3.6904,-3.6904,-3.6885,-3.6894,-3.6894,-3.6865,-3.6777,-3.6709,-3.6699,-3.6582,-3.6494,-3.6484,-3.6455,-3.6416,-3.6455,-3.6465,-3.6494,-3.6494,-3.6562,-3.666,-3.667,-3.6826,-3.6982,-3.707,-3.71,-3.6963,-3.6728,-3.6709,-3.668,-3.6787,-3.6865,-3.6963,-3.707,-3.7217,-3.7295,-3.7314,-3.7334,-3.7373,-3.7402,-3.7568,-3.7725,-3.7754,-3.7949,-3.8164,-3.8174,-3.8193,-3.8086,-3.8184,-3.8242,-3.8125,-3.7978,-3.7949,-3.791,-3.8017,-3.8086,-3.8232,-3.834,-3.8486,-3.8555,-3.8574,-3.8574,-3.8574,-3.8574,-3.8496,-3.8437,-3.8389,-3.8271,-3.8105,-3.5049,-3.5185,-3.5185,-3.5185,-3.5185,-3.5185,-3.5185,-3.5195,-3.5185,-3.5195,-3.5195,-3.5195,-3.5185,-3.5185,-3.5185,-3.5185,-3.5215,-3.5517,-3.5469,-3.5225,-3.5185,-3.5195,-3.5185,-3.5195,-3.543,-3.583,-3.6123,-3.6338,-3.6494,-3.6504,-3.6631,-3.6855,-3.6904,-3.7021,-3.7275,-3.7305,-3.7344,-3.749,-3.7529,-3.7607,-3.7744,-3.7773,-3.7773,-3.7773,-3.7773,-3.7773,-3.7773,-3.7764,-3.7617,-3.7373,-3.7295,-3.7295,-3.7295,-3.7275,-3.7295,-3.7295,-3.7285,-3.7266,-3.7295,-3.7197,-3.7295,-3.7295,-3.7295,-3.7285,-3.7285,-3.7295,-3.7295,-3.7295,-3.7275,-3.7363,-3.749,-3.7529,-3.7588,-3.7764,-3.7432,-3.7324,-3.7314,-3.7441,-3.751,-3.7559,-3.7695,-3.7744,-3.7773,-3.7773,-3.7764,-3.7822,-3.7998,-3.8164,-3.8213,-3.8389,-3.8506,-3.8564,-3.8486,-3.8447,-3.8525,-3.8555,-3.8555,-3.8496,-3.8437,-3.8389,-3.8398,-3.8398,-3.8476,-3.8467,-3.8564,-3.8564,-3.8574,-3.8574,-3.8574,-3.8574,-3.8574,-3.8535,-3.8486,-3.8506,-3.8398,-3.5654,-3.6006,-3.6016,-3.5957,-3.5947,-3.5947,-3.5918,-3.5976,-3.5967,-3.5937,-3.5947,-3.5898,-3.5937,-3.5986,-3.5879,-3.5898,-3.6045,-3.6035,-3.6094,-3.6084,-3.6084,-3.6055,-3.5986,-3.6045,-3.6289,-3.6611,-3.6689,-3.6885,-3.7139,-3.7158,-3.7314,-3.7324,-3.7324,-3.7363,-3.748,-3.7402,-3.7637,-3.792,-3.7959,-3.8144,-3.8467,-3.8516,-3.8506,-3.8496,-3.8476,-3.8467,-3.8447,-3.8428,-3.8135,-3.751,-3.748,-3.75,-3.7412,-3.7373,-3.7461,-3.748,-3.7402,-3.7451,-3.7412,-3.751,-3.749,-3.751,-3.751,-3.7373,-3.75,-3.7549,-3.7539,-3.7519,-3.749,-3.7588,-3.7881,-3.7959,-3.8135,-3.8369,-3.791,-3.7539,-3.7441,-3.7754,-3.793,-3.8017,-3.831,-3.8555,-3.8447,-3.8457,-3.8467,-3.8467,-3.8486,-3.8486,-3.8496,-3.8535,-3.8564,-3.8574,-3.8574,-3.8574,-3.8574,-3.8574,-3.8574,-3.8574,-3.8574,-3.8574,-3.8574,-3.8574,-3.8574,-3.8574,-3.8574,-3.8574,-3.8574,-3.8574,-3.8574,-3.8574,-3.8574,-3.8574,-3.8574,-3.8574,-3.8574,-3.5918,-3.6016,-3.6025,-3.6025,-3.6025,-3.6025,-3.6025,-3.6025,-3.6025,-3.6035,-3.6035,-3.6025,-3.6064,-3.6035,-3.6055,-3.6191,-3.6435,-3.6494,-3.6689,-3.6924,-3.6963,-3.6767,-3.6631,-3.6816,-3.7002,-3.7119,-3.7129,-3.7187,-3.7295,-3.7363,-3.749,-3.7744,-3.7764,-3.793,-3.8184,-3.8193,-3.8281,-3.8389,-3.8398,-3.8428,-3.8535,-3.8574,-3.8574,-3.8574,-3.8574,-3.8574,-3.8574,-3.8574,-3.8516,-3.8291,-3.8232,-3.8232,-3.8184,-3.8184,-3.8164,-3.8164,-3.8193,-3.8223,-3.8213,-3.8203,-3.8223,-3.8242,-3.8154,-3.8242,-3.8242,-3.8232,-3.8242,-3.8242,-3.8242,-3.8242,-3.8369,-3.8389,-3.8476,-3.8516,-3.8301,-3.8164,-3.8203,-3.832,-3.8398,-3.8428,-3.8506,-3.8564,-3.8574,-3.8574,-3.8574,-3.8574,-3.8574,-3.8574,-3.8574,-3.8574,-3.8574,-3.8574,-3.8574,-3.8574,-3.8574,-3.8574,-3.8574,-3.8574,-3.8574,-3.8574,-3.8574,-3.8574,-3.8574,-3.8574,-3.8574,-3.8574,-3.8574,-3.8574,-3.8574,-3.8574,-3.8574,-3.8574,-3.8574,-3.8574,-3.8574,-3.6025,-3.6025,-3.6025,-3.6025,-3.6025,-3.6025,-3.6025,-3.6025,-3.6025,-3.6142,-3.626,-3.6299,-3.6387,-3.6543,-3.6562,-3.6689,-3.6914,-3.6934,-3.706,-3.7266,-3.7461,-3.7305,-3.708,-3.7217,-3.7383,-3.7559,-3.7549,-3.7666,-3.7822,-3.7832,-3.7978,-3.8154,-3.8193,-3.833,-3.8506,-3.8574,-3.8574,-3.8574,-3.8574,-3.8574,-3.8574,-3.8574,-3.8574,-3.8574,-3.8574,-3.8574,-3.8574,-3.8574,-3.8574,-3.8564,-3.8574,-3.8574,-3.8574,-3.8574,-3.8574,-3.8574,-3.8574,-3.8564,-3.8574,-3.8574,-3.8574,-3.8564,-3.8574,-3.8574,-3.8555,-3.8574,-3.8574,-3.8545,-3.8574,-3.8574,-3.8574,-3.8574,-3.8574,-3.8574,-3.8574,-3.8574,-3.8574,-3.8555,-3.8574,-3.8574,-3.8574,-3.8574,-3.8574,-3.8574,-3.8574,-3.8574,-3.8574,-3.8574,-3.8574,-3.8574,-3.8574,-3.8574,-3.8574,-3.8574,-3.8574,-3.8574,-3.8574,-3.8574,-3.8574,-3.8574,-3.8574,-3.8574,-3.8574,-3.8574,-3.8574,-3.8574,-3.8574,-3.8574,-3.8574,-3.8574,-3.8574,-3.8574,-3.8574,-3.8574,-3.8574,-3.6045,-3.6094,-3.6094,-3.6113,-3.6182,-3.6162,-3.625,-3.6182,-3.623,-3.6416,-3.668,-3.6738,-3.6894,-3.7295,-3.7139,-3.7295,-3.7353,-3.7363,-3.7432,-3.7607,-3.7793,-3.7793,-3.7559,-3.7559,-3.7734,-3.7949,-3.7988,-3.8174,-3.8359,-3.8476,-3.8535,-3.8516,-3.8525,-3.8555,-3.8574,-3.8574,-3.8574,-3.8574,-3.8574,-3.8574,-3.8574,-3.8574,-3.8574,-3.8574,-3.8574,-3.8574,-3.8574,-3.8574,-3.8574,-3.8574,-3.8574,-3.8574,-3.8574,-3.8574,-3.8574,-3.8574,-3.8574,-3.8574,-3.8574,-3.8574,-3.8574,-3.8574,-3.8574,-3.8574,-3.8574,-3.8574,-3.8574,-3.8574,-3.8574,-3.8574,-3.8574,-3.8574,-3.8574,-3.8574,-3.8574,-3.8574,-3.8574,-3.8574,-3.8574,-3.8574,-3.8574,-3.8574,-3.8574,-3.8574,-3.8574,-3.8574,-3.8574,-3.8574,-3.8574,-3.8574,-3.8574,-3.8574,-3.8574,-3.8574,-3.8574,-3.8574,-3.8574,-3.8574,-3.8574,-3.8574,-3.8574,-3.8574,-3.8574,-3.8574,-3.8574,-3.8574,-3.8574,-3.8574,-3.8574,-3.8574,-3.8574,-3.8574,-3.8574,-3.8574,-3.8574,-3.6221,-3.6533,-3.6533,-3.6728,-3.6992,-3.7021,-3.7012,-3.6992,-3.7002,-3.7021,-3.7148,-3.7168,-3.7236,-3.7334,-3.7392,-3.7471,-3.7764,-3.7812,-3.7959,-3.831,-3.8369,-3.8398,-3.8281,-3.8242,-3.832,-3.8408,-3.8428,-3.8486,-3.8574,-3.8574,-3.8574,-3.8574,-3.8574,-3.8574,-3.8574,-3.8574,-3.8574,-3.8574,-3.8574,-3.8574,-3.8574,-3.8574,-3.8574,-3.8574,-3.8574,-3.8574,-3.8574,-3.8574,-3.8574,-3.8574,-3.8574,-3.8574,-3.8574,-3.8574,-3.8574,-3.8574,-3.8574,-3.8574,-3.8574,-3.8574,-3.8574,-3.8574,-3.8574,-3.8574,-3.8574,-3.8574,-3.8574,-3.8574,-3.8574,-3.8574,-3.8574,-3.8574,-3.8574,-3.8574,-3.8574,-3.8574,-3.8574,-3.8574,-3.8574,-3.8574,-3.8574,-3.8574,-3.8574,-3.8574,-3.8574,-3.8574,-3.8574,-3.8574,-3.8574,-3.8574,-3.8574,-3.8574,-3.8574,-3.8574,-3.8574,-3.8574,-3.8574,-3.8574,-3.8574,-3.8574,-3.8574,-3.8574,-3.8574,-3.8574,-3.8574,-3.8574,-3.8574,-3.8574,-3.8574,-3.8574,-3.8574,-3.8574,-3.8574,-3.8574,-3.8574,-3.6572,-3.6953,-3.6973,-3.709,-3.7285,-3.7295,-3.7295,-3.7295,-3.7295,-3.7412,-3.7568,-3.7588,-3.7705,-3.7891,-3.79,-3.8047,-3.8174,-3.8232,-3.834,-3.8535,-3.8564,-3.8574,-3.8574,-3.8574,-3.8574,-3.8574,-3.8574,-3.8574,-3.8574,-3.8574,-3.8574,-3.8574,-3.8574,-3.8574,-3.8574,-3.8574,-3.8574,-3.8574,-3.8574,-3.8574,-3.8574,-3.8574,-3.8574,-3.8574,-3.8574,-3.8574,-3.8574,-3.8574,-3.8574,-3.8574,-3.8574,-3.8574,-3.8574,-3.8574,-3.8574,-3.8574,-3.8574,-3.8574,-3.8574,-3.8574,-3.8574,-3.8574,-3.8574,-3.8574,-3.8574,-3.8574,-3.8574,-3.8574,-3.8574,-3.8574,-3.8574,-3.8574,-3.8574,-3.8574,-3.8574,-3.8574,-3.8574,-3.8574,-3.8574,-3.8574,-3.8574,-3.8574,-3.8574,-3.8574,-3.8574,-3.8574,-3.8574,-3.8574,-3.8574,-3.8574,-3.8574,-3.8574,-3.8574,-3.8574,-3.8574,-3.8574,-3.8574,-3.8574,-3.8574,-3.8574,-3.8574,-3.8574,-3.8574,-3.8574,-3.8574,-3.8574,-3.8574,-3.8574,-3.8574,-3.8574,-3.8574,-3.8574,-3.8574,-3.8574,-3.8574,-3.7021,-3.7392,-3.7392,-3.7432,-3.749,-3.7519,-3.7549,-3.7529,-3.749,-3.7764,-3.7969,-3.8017,-3.8193,-3.8476,-3.8516,-3.8564,-3.8564,-3.8545,-3.8555,-3.8564,-3.8574,-3.8574,-3.8574,-3.8574,-3.8574,-3.8574,-3.8574,-3.8574,-3.8574,-3.8574,-3.8574,-3.8574,-3.8574,-3.8574,-3.8574,-3.8574,-3.8574,-3.8574,-3.8574,-3.8574,-3.8574,-3.8574,-3.8574,-3.8574,-3.8574,-3.8574,-3.8574,-3.8574,-3.8574,-3.8574,-3.8574,-3.8574,-3.8574,-3.8574,-3.8574,-3.8574,-3.8574,-3.8574,-3.8574,-3.8574,-3.8574,-3.8574,-3.8574,-3.8574,-3.8574,-3.8574,-3.8574,-3.8574,-3.8574,-3.8574,-3.8574,-3.8574,-3.8574,-3.8574,-3.8574,-3.8574,-3.8574,-3.8574,-3.8574,-3.8574,-3.8574,-3.8574,-3.8574,-3.8574,-3.8574,-3.8574,-3.8574,-3.8574,-3.8574,-3.8574,-3.8574,-3.8574,-3.8574,-3.8574,-3.8574,-3.8574,-3.8574,-3.8574,-3.8574,-3.8574,-3.8574,-3.8574,-3.8574,-3.8574,-3.8574,-3.8574,-3.8574,-3.8574,-3.8574,-3.8574,-3.8574,-3.8574,-3.8574,-3.8574,-3.8574,-3.7432,-3.7812,-3.7822,-3.8027,-3.833,-3.835,-3.832,-3.8369,-3.8301,-3.8389,-3.8437,-3.8457,-3.8476,-3.8574,-3.8574,-3.8574,-3.8574,-3.8574,-3.8574,-3.8574,-3.8574,-3.8574,-3.8574,-3.8574,-3.8574,-3.8574,-3.8574,-3.8574,-3.8574,-3.8574,-3.8574,-3.8574,-3.8574,-3.8574,-3.8574,-3.8574,-3.8574,-3.8574,-3.8574,-3.8574,-3.8574,-3.8574,-3.8574,-3.8574,-3.8574,-3.8574,-3.8574,-3.8574,-3.8574,-3.8574,-3.8574,-3.8574,-3.8574,-3.8574,-3.8574,-3.8574,-3.8574,-3.8574,-3.8574,-3.8574,-3.8574,-3.8574,-3.8574,-3.8574,-3.8574,-3.8574,-3.8574,-3.8574,-3.8574,-3.8574,-3.8574,-3.8574,-3.8574,-3.8574,-3.8574,-3.8574,-3.8574,-3.8574,-3.8574,-3.8574,-3.8574,-3.8574,-3.8574,-3.8574,-3.8574,-3.8574,-3.8574,-3.8574,-3.8574,-3.8574,-3.8574,-3.8574,-3.8574,-3.8574,-3.8574,-3.8574,-3.8574,-3.8574,-3.8574,-3.8574,-3.8574,-3.8574,-3.8574,-3.8574,-3.8574,-3.8574,-3.8574,-3.8574,-3.8574,-3.8574,-3.8574,-3.8574,-3.8574,-3.8574,-3.8574,-3.7871,-3.8252,-3.8262,-3.8379,-3.8555,-3.8574,-3.8574,-3.8574,-3.8574,-3.8574,-3.8574,-3.8574,-3.8574,-3.8574,-3.8574,-3.8574,-3.8574,-3.8574,-3.8574,-3.8574,-3.8574,-3.8574,-3.8574,-3.8574,-3.8574,-3.8574,-3.8574,-3.8574,-3.8574,-3.8574,-3.8574,-3.8574,-3.8574,-3.8574,-3.8574,-3.8574,-3.8574,-3.8574,-3.8574,-3.8574,-3.8574,-3.8574,-3.8574,-3.8574,-3.8574,-3.8574,-3.8574,-3.8574,-3.8574,-3.8574,-3.8574,-3.8574,-3.8574,-3.8574,-3.8574,-3.8574,-3.8574,-3.8574,-3.8574,-3.8574,-3.8574,-3.8574,-3.8574,-3.8574,-3.8574,-3.8574,-3.8574,-3.8574,-3.8574,-3.8574,-3.8574,-3.8574,-3.8574,-3.8574,-3.8574,-3.8574,-3.8574,-3.8574,-3.8574,-3.8574,-3.8574,-3.8574,-3.8574,-3.8574,-3.8574,-3.8574,-3.8574,-3.8574,-3.8574,-3.8574,-3.8574,-3.8574,-3.8574,-3.8574,-3.8574,-3.8574,-3.8574,-3.8574,-3.8574,-3.8574,-3.8574,-3.8574,-3.8574,-3.8574,-3.8574,-3.8574,-3.8574,-3.8574,-3.8574,-3.8574,-3.8574,-3.8574,-3.8574,-3.8574,-3.8574,-3.8252,-3.8574,-3.8574,-3.8574,-3.8574,-3.8574,-3.8574,-3.8574,-3.8574,-3.8574,-3.8574,-3.8574,-3.8574,-3.8574,-3.8574,-3.8574,-3.8574,-3.8574,-3.8574,-3.8574,-3.8574,-3.8574,-3.8574,-3.8574,-3.8574,-3.8574,-3.8574,-3.8574,-3.8574,-3.8574,-3.8574,-3.8574,-3.8574,-3.8574,-3.8574,-3.8574,-3.8574,-3.8574,-3.8574,-3.8574,-3.8574,-3.8574,-3.8574,-3.8574,-3.8574,-3.8574,-3.8574,-3.8574,-3.8574,-3.8574,-3.8574,-3.8574,-3.8574,-3.8574,-3.8574,-3.8574,-3.8574,-3.8574,-3.8574,-3.8574,-3.8574,-3.8574,-3.8574,-3.8574,-3.8574,-3.8574,-3.8574,-3.8574,-3.8574,-3.8574,-3.8574,-3.8574,-3.8574,-3.8574,-3.8574,-3.8574,-3.8574,-3.8574,-3.8574,-3.8574,-3.8574,-3.8574,-3.8574,-3.8574,-3.8574,-3.8574,-3.8574,-3.8574,-3.8574,-3.8574,-3.8574,-3.8574,-3.8574,-3.8574,-3.8574,-3.8574,-3.8574,-3.8574,-3.8574,-3.8574,-3.8574,-3.8574,-3.8574,-3.8574,-3.8574,-3.8574,-3.8574,-3.8574,-3.8574,-3.8574,-3.8574,-3.8574,-3.8574,-3.8574,-3.8574,-3.8525,-3.8574,-3.8574,-3.8574,-3.8574,-3.8574,-3.8574,-3.8574,-3.8574,-3.8574,-3.8574,-3.8574,-3.8574,-3.8574,-3.8574,-3.8574,-3.8574,-3.8574,-3.8574,-3.8574,-3.8574,-3.8574,-3.8574,-3.8574,-3.8419,-3.8263,-3.8273,-3.8574,-3.8117,-3.8117,-3.8574,-3.8574,-3.8419,-3.8574,-3.8574,-3.8574,-3.8574,-3.8574,-3.8574,-3.8574,-3.8574,-3.8574,-3.8574,-3.8574,-3.8574,-3.8574,-3.8574,-3.8574,-3.8574,-3.8574,-3.8574,-3.8574,-3.8574,-3.8574,-3.8574,-3.8574,-3.8574,-3.8574,-3.8574,-3.8574,-3.8574,-3.8574,-3.8574,-3.8574,-3.8574,-3.8574,-3.8574,-3.8574,-3.8574,-3.8574,-3.8574,-3.8574,-3.8574,-3.8574,-3.8574,-3.8574,-3.8574,-3.8574,-3.8574,-3.8574,-3.8574,-3.8574,-3.8574,-3.8574,-3.8574,-3.8574,-3.8574,-3.8574,-3.8574,-3.8574,-3.8574,-3.8574,-3.8574,-3.8574,-3.8574,-3.8574,-3.8574,-3.8574,-3.8574,-3.8574,-3.8574,-3.8574,-3.8574,-3.8574,-3.8574,-3.8574,-3.8574,-3.8574,-3.8574,-3.8574,-3.8574,-3.8574,-3.8574,-3.8574,-3.8574,-3.8574,-3.8574,-3.8574,-3.8574,-3.8574,-3.8574,-3.8574,-3.8574,-3.8574,-3.8574,-3.8574,-3.8574,-3.8574,-3.8574,-3.8574,-3.8574,-3.8574,-3.8574,-3.8574,-3.8428,-3.8428,-3.8574,-3.8574,-3.8574,-3.8263,-3.7042,-3.6737,-3.583,-3.5988,-3.6433,-3.7189,-3.8263,-3.7502,-3.7502,-3.8263,-3.8574,-3.8574,-3.8574,-3.8574,-3.8574,-3.8574,-3.8574,-3.8574,-3.8574,-3.8574,-3.8574,-3.8574,-3.8574,-3.8574,-3.8574,-3.8574,-3.8574,-3.8574,-3.8574,-3.8574,-3.8574,-3.8574,-3.8574,-3.8574,-3.8574,-3.8574,-3.8574,-3.8574,-3.8574,-3.8574,-3.8574,-3.8574,-3.8574,-3.8574,-3.8574,-3.8574,-3.8574,-3.8574,-3.8574,-3.8574,-3.8574,-3.8574,-3.8574,-3.8574,-3.8574,-3.8574,-3.8574,-3.8574,-3.8574,-3.8574,-3.8574,-3.8574,-3.8574,-3.8574,-3.8574,-3.8574,-3.8574,-3.8574,-3.8574,-3.8574,-3.8574,-3.8574,-3.8574,-3.8574,-3.8574,-3.8574,-3.8574,-3.8574,-3.8574,-3.8574,-3.8574,-3.8574,-3.8574,-3.8574,-3.8574,-3.8574,-3.8574,-3.8574,-3.8574,-3.8574,-3.7805,-3.7805,-3.8419,-3.8574,-3.8574,-3.8574,-3.8574,-3.8574,-3.8574,-3.8574,-3.8574,-3.8574,-3.8574,-3.8574,-3.8574,-3.8574,-3.8564,-3.8107,-3.7805,-3.7805,-3.7355,-3.7198,-3.7198,-3.7198,-3.6433,-3.5357,-3.4909,-3.416,-3.3557,-3.3549,-3.4751,-3.7042,-3.6136,-3.6433,-3.7355,-3.7658,-3.7502,-3.7649,-3.8263,-3.8574,-3.8574,-3.8574,-3.8574,-3.8574,-3.8574,-3.8574,-3.8574,-3.8574,-3.8574,-3.8574,-3.8574,-3.8574,-3.8574,-3.8574,-3.8574,-3.8574,-3.8574,-3.8574,-3.8574,-3.8574,-3.8574,-3.8574,-3.8574,-3.8574,-3.8574,-3.8574,-3.8574,-3.8574,-3.8574,-3.8574,-3.8574,-3.8574,-3.8574,-3.8574,-3.8574,-3.8574,-3.8574,-3.8574,-3.8574,-3.8574,-3.8574,-3.8574,-3.8574,-3.8574,-3.8574,-3.8574,-3.8574,-3.8574,-3.8574,-3.8574,-3.8574,-3.8574,-3.8574,-3.8574,-3.8574,-3.8574,-3.8574,-3.8574,-3.8574,-3.8574,-3.8574,-3.8574,-3.8574,-3.8574,-3.8574,-3.8574,-3.8574,-3.8574,-3.8574,-3.8574,-3.8574,-3.8574,-3.8574,-3.8574,-3.8574,-3.5655,-3.5812,-3.7658,-3.8574,-3.8574,-3.8574,-3.8574,-3.8273,-3.8419,-3.8273,-3.8273,-3.8574,-3.8574,-3.8419,-3.8263,-3.8263,-3.8263,-3.6571,-3.5961,-3.5059,-3.416,-3.461,-3.4909,-3.461,-3.4001,-3.4443,-3.354,-3.2649,-3.1888,-3.0361,-3.1429,-3.2657,-3.3859,-3.5068,-3.5673,-3.5673,-3.5673,-3.5979,-3.6894,-3.7814,-3.797,-3.797,-3.8117,-3.8117,-3.8419,-3.8574,-3.8574,-3.8117,-3.7814,-3.7814,-3.7668,-3.7668,-3.7511,-3.7511,-3.7511,-3.7511,-3.7511,-3.7511,-3.7511,-3.8273,-3.8574,-3.8574,-3.8574,-3.8574,-3.8574,-3.8574,-3.8574,-3.8574,-3.8574,-3.8574,-3.8574,-3.8574,-3.8574,-3.8574,-3.8574,-3.8574,-3.8574,-3.8574,-3.8574,-3.8574,-3.8574,-3.8574,-3.8574,-3.8574,-3.8574,-3.8574,-3.8574,-3.8574,-3.8574,-3.8574,-3.8574,-3.8574,-3.8574,-3.8574,-3.8574,-3.8574,-3.8574,-3.8574,-3.8574,-3.8574,-3.8574,-3.8574,-3.8574,-3.8574,-3.8574,-3.8574,-3.8574,-3.8574,-3.8574,-3.8574,-3.8574,-3.8574,-3.8574,-3.8574,-3.8574,-3.37,-3.3708,-3.4619,-3.6294,-3.8419,-3.7198,-3.6728,-3.6423,-3.5375,-3.5673,-3.6737,-3.7951,-3.7814,-3.7042,-3.658,-3.5979,-3.4927,-3.416,-3.37,-3.3557,-3.3104,-3.3095,-3.3255,-3.2792,-3.2337,-3.1871,-3.0815,-2.9751,-2.853,-2.8076,-2.8076,-2.9138,-3.1122,-3.2489,-3.3095,-3.3708,-3.3708,-3.385,-3.446,-3.4927,-3.4777,-3.4927,-3.4927,-3.4777,-3.4777,-3.4927,-3.4777,-3.4769,-3.4777,-3.4936,-3.5077,-3.5226,-3.5226,-3.5226,-3.5226,-3.5226,-3.5235,-3.5226,-3.583,-3.7051,-3.8574,-3.8574,-3.8574,-3.8574,-3.8574,-3.8574,-3.8574,-3.8574,-3.8574,-3.8574,-3.8574,-3.8574,-3.8574,-3.8574,-3.8574,-3.8574,-3.8574,-3.8574,-3.8574,-3.8574,-3.8574,-3.8574,-3.8574,-3.8574,-3.8574,-3.8574,-3.8574,-3.8574,-3.8574,-3.8574,-3.8574,-3.8574,-3.8574,-3.8574,-3.8574,-3.8574,-3.8574,-3.8574,-3.8574,-3.8574,-3.8574,-3.8574,-3.8574,-3.8574,-3.8574,-3.8574,-3.8574,-3.8574,-3.8574,-3.8574,-3.8574,-3.8574,-3.8574,-3.8574,-3.8574,-3.1582,-3.1582,-3.2193,-3.4169,-3.6433,-3.5217,-3.4601,-3.4301,-3.3247,-3.3247,-3.476,-3.6136,-3.6136,-3.4909,-3.4601,-3.4001,-3.2801,-3.204,-3.1735,-3.1284,-3.0823,-3.1122,-3.1276,-3.0823,-2.9898,-2.9131,-2.853,-2.7612,-2.6847,-2.6544,-2.6696,-2.7155,-2.7762,-2.9596,-3.1276,-3.2193,-3.2201,-3.1735,-3.2193,-3.2505,-3.2649,-3.2649,-3.2801,-3.2809,-3.2961,-3.2961,-3.2961,-3.3104,-3.2952,-3.2961,-3.2809,-3.2657,-3.2657,-3.2505,-3.2505,-3.2505,-3.2505,-3.2505,-3.3406,-3.5375,-3.7649,-3.7345,-3.8419,-3.8428,-3.8574,-3.8574,-3.8574,-3.8574,-3.8574,-3.8574,-3.8574,-3.8574,-3.8574,-3.8574,-3.8574,-3.8574,-3.8574,-3.8574,-3.8574,-3.8574,-3.8574,-3.8574,-3.8574,-3.8574,-3.8574,-3.8574,-3.8574,-3.8574,-3.8574,-3.8574,-3.8574,-3.8574,-3.8574,-3.8574,-3.8574,-3.8574,-3.8574,-3.8574,-3.8574,-3.8574,-3.8574,-3.8574,-3.8574,-3.8574,-3.8574,-3.8574,-3.8574,-3.8574,-3.8574,-3.8574,-3.8574,-3.8574,-3.8574,-3.8574,-3.8574,-2.9441,-2.9743,-3.1582,-3.2345,-3.2649,-3.2649,-3.2497,-3.2489,-3.2345,-3.2345,-3.2497,-3.2961,-3.2961,-3.2649,-3.2497,-3.204,-3.1276,-3.0053,-2.9441,-2.9138,-2.8381,-2.8225,-2.8374,-2.8225,-2.8225,-2.8679,-2.7919,-2.6853,-2.6393,-2.6393,-2.6393,-2.6393,-2.7004,-2.7769,-2.9596,-3.1429,-3.1276,-3.006,-3.1276,-3.1582,-3.1743,-3.159,-3.159,-3.1437,-3.1437,-3.1284,-3.1284,-3.1284,-3.113,-3.1276,-3.1429,-3.1429,-3.1429,-3.159,-3.159,-3.1735,-3.1888,-3.204,-3.2497,-3.4451,-3.5199,-3.5812,-3.6894,-3.7961,-3.8409,-3.8564,-3.8273,-3.7961,-3.8107,-3.8263,-3.8419,-3.8273,-3.7961,-3.797,-3.7961,-3.7355,-3.7208,-3.7805,-3.7805,-3.7961,-3.8273,-3.8574,-3.8574,-3.8574,-3.8574,-3.8574,-3.8574,-3.8574,-3.8574,-3.8574,-3.8574,-3.8574,-3.8574,-3.8574,-3.8574,-3.8574,-3.8574,-3.8574,-3.8574,-3.8574,-3.8574,-3.8574,-3.8574,-3.8574,-3.8574,-3.8574,-3.8574,-3.8574,-3.8574,-3.8574,-3.8574,-3.8574,-3.8574,-3.8574,-3.8574,-2.7462,-2.7455,-2.8232,-2.8381,-2.8686,-2.9898,-3.0354,-3.0515,-3.0515,-3.0508,-3.0815,-3.1735,-3.1582,-3.0823,-3.0361,-2.9906,-2.8537,-2.8076,-2.7462,-2.7305,-2.6702,-2.6853,-2.6997,-2.7004,-2.6853,-2.7004,-2.6544,-2.6393,-2.6393,-2.6393,-2.6393,-2.6393,-2.6393,-2.6696,-2.7305,-2.8225,-2.7919,-2.7612,-2.8068,-2.8381,-2.8537,-2.8693,-2.8693,-2.8693,-2.8842,-2.8842,-2.8842,-2.8997,-2.899,-2.899,-2.899,-2.899,-2.8842,-2.8842,-2.8686,-2.8686,-2.853,-2.8381,-2.899,-3.0199,-3.2024,-3.3549,-3.5217,-3.6423,-3.6571,-3.7961,-3.7658,-3.6885,-3.658,-3.658,-3.6423,-3.5068,-3.4769,-3.5673,-3.5524,-3.4469,-3.431,-3.5664,-3.6414,-3.6876,-3.7336,-3.7961,-3.8273,-3.8574,-3.8574,-3.8574,-3.8574,-3.8574,-3.8574,-3.8574,-3.8574,-3.8574,-3.8574,-3.8574,-3.8574,-3.8574,-3.8574,-3.8574,-3.8574,-3.8574,-3.8574,-3.8574,-3.8574,-3.8574,-3.8574,-3.8574,-3.8574,-3.8574,-3.8574,-3.8574,-3.8263,-3.8117,-3.8117,-3.8263,-3.8574,-2.6393,-2.6393,-2.6393,-2.6393,-2.6544,-2.7762,-2.8374,-2.8374,-2.8374,-2.8374,-2.8679,-2.9751,-2.9604,-2.853,-2.8225,-2.7912,-2.6393,-2.6393,-2.6393,-2.6393,-2.6393,-2.6544,-2.6544,-2.6393,-2.6551,-2.6393,-2.6393,-2.6393,-2.6393,-2.6393,-2.6393,-2.6393,-2.6393,-2.6544,-2.6544,-2.6696,-2.6696,-2.6696,-2.7004,-2.6853,-2.6853,-2.6702,-2.6702,-2.6702,-2.6702,-2.6544,-2.6551,-2.6393,-2.6393,-2.6393,-2.6393,-2.6393,-2.6393,-2.6393,-2.6393,-2.6393,-2.6393,-2.6544,-2.7155,-2.7612,-2.9293,-3.006,-3.2784,-3.4301,-3.4601,-3.5375,-3.5366,-3.476,-3.4451,-3.4451,-3.4151,-3.2497,-3.2801,-3.385,-3.3549,-3.2497,-3.2641,-3.4001,-3.4451,-3.5059,-3.5515,-3.6433,-3.7658,-3.8419,-3.8574,-3.8574,-3.8574,-3.8574,-3.8574,-3.8574,-3.8574,-3.8574,-3.8574,-3.8574,-3.8574,-3.8574,-3.8574,-3.8574,-3.8574,-3.8574,-3.8574,-3.8574,-3.8574,-3.8574,-3.8574,-3.8428,-3.8574,-3.8574,-3.8117,-3.7649,-3.7189,-3.7189,-3.7492,-3.7502,-3.7502,-2.6393,-2.6393,-2.6393,-2.6393,-2.6393,-2.6544,-2.6538,-2.6544,-2.6544,-2.6544,-2.6544,-2.6853,-2.7004,-2.6702,-2.6544,-2.6544,-2.6393,-2.6393,-2.6393,-2.6393,-2.6393,-2.6393,-2.6393,-2.6393,-2.6393,-2.6393,-2.6393,-2.6393,-2.6393,-2.6393,-2.6393,-2.6393,-2.6393,-2.6393,-2.6393,-2.6393,-2.6393,-2.6393,-2.6393,-2.6393,-2.6393,-2.6393,-2.6393,-2.6393,-2.6393,-2.6393,-2.6393,-2.6393,-2.6393,-2.6393,-2.6393,-2.6393,-2.6393,-2.6393,-2.6393,-2.6393,-2.6393,-2.6393,-2.6393,-2.6853,-2.6853,-2.7926,-3.0215,-3.1743,-3.2649,-3.3104,-3.3247,-3.2792,-3.2337,-3.2345,-3.2193,-3.1888,-3.1735,-3.1888,-3.1896,-3.159,-3.159,-3.204,-3.2345,-3.2649,-3.2952,-3.401,-3.597,-3.7032,-3.7805,-3.8574,-3.8574,-3.8574,-3.8574,-3.8574,-3.8574,-3.8574,-3.8574,-3.8574,-3.8574,-3.8574,-3.8574,-3.8574,-3.8574,-3.8574,-3.8574,-3.8419,-3.8117,-3.8107,-3.8263,-3.8263,-3.7658,-3.7492,-3.7189,-3.658,-3.5515,-3.5366,-3.5515,-3.5366,-3.5366,-2.6393,-2.6393,-2.6393,-2.6393,-2.6393,-2.6393,-2.6393,-2.6393,-2.6393,-2.6393,-2.6393,-2.6393,-2.6393,-2.6393,-2.6393,-2.6393,-2.6393,-2.6393,-2.6393,-2.6393,-2.6393,-2.6393,-2.6393,-2.6393,-2.6393,-2.6393,-2.6393,-2.6393,-2.6393,-2.6393,-2.6393,-2.6393,-2.6393,-2.6393,-2.6393,-2.6393,-2.6393,-2.6393,-2.6393,-2.6393,-2.6393,-2.6393,-2.6393,-2.6393,-2.6393,-2.6393,-2.6393,-2.6393,-2.6393,-2.6393,-2.6393,-2.6393,-2.6393,-2.6393,-2.6393,-2.6393,-2.6393,-2.6393,-2.6393,-2.6393,-2.6393,-2.6393,-2.7769,-2.8842,-3.006,-3.113,-3.1437,-3.0823,-3.0369,-3.0361,-3.006,-2.9759,-2.9913,-3.006,-2.9759,-2.9301,-2.9449,-2.9906,-3.0215,-3.0515,-3.0815,-3.2489,-3.4443,-3.5506,-3.6285,-3.7814,-3.8574,-3.8428,-3.8574,-3.8574,-3.8574,-3.8574,-3.8117,-3.7961,-3.8273,-3.8273,-3.8428,-3.8574,-3.8273,-3.797,-3.7814,-3.7658,-3.7502,-3.7189,-3.659,-3.6423,-3.6266,-3.597,-3.5673,-3.446,-3.3406,-3.3398,-3.3398,-3.3238,-3.3238,-2.6393,-2.6393,-2.6393,-2.6393,-2.6393,-2.6393,-2.6393,-2.6393,-2.6393,-2.6393,-2.6393,-2.6393,-2.6393,-2.6393,-2.6393,-2.6393,-2.6393,-2.6393,-2.6393,-2.6393,-2.6393,-2.6393,-2.6393,-2.6393,-2.6393,-2.6393,-2.6393,-2.6393,-2.6393,-2.6393,-2.6393,-2.6393,-2.6393,-2.6393,-2.6393,-2.6393,-2.6393,-2.6393,-2.6393,-2.6393,-2.6393,-2.6393,-2.6393,-2.6393,-2.6393,-2.6393,-2.6393,-2.6393,-2.6393,-2.6393,-2.6393,-2.6393,-2.6393,-2.6393,-2.6393,-2.6393,-2.6393,-2.6393,-2.6393,-2.6393,-2.6393,-2.6393,-2.6393,-2.7155,-2.7919,-2.8842,-2.8842,-2.8537,-2.8381,-2.8068,-2.7769,-2.7462,-2.7769,-2.8076,-2.7312,-2.6544,-2.7004,-2.7619,-2.8076,-2.853,-2.9589,-3.126,-3.2632,-3.3691,-3.4909,-3.6275,-3.7345,-3.7649,-3.8117,-3.8574,-3.8574,-3.8574,-3.7658,-3.7042,-3.7345,-3.7345,-3.6747,-3.659,-3.6737,-3.658,-3.6599,-3.5988,-3.5077,-3.4769,-3.446,-3.4301,-3.4301,-3.4151,-3.3859,-3.2345,-3.113,-3.0815,-3.0815,-3.0815,-3.0969,-2.6393,-2.6393,-2.6393,-2.6393,-2.6393,-2.6393,-2.6393,-2.6393,-2.6393,-2.6393,-2.6393,-2.6393,-2.6393,-2.6393,-2.6393,-2.6393,-2.6393,-2.6393,-2.6393,-2.6393,-2.6393,-2.6393,-2.6393,-2.6393,-2.6393,-2.6393,-2.6393,-2.6393,-2.6393,-2.6393,-2.6393,-2.6393,-2.6393,-2.6393,-2.6393,-2.6393,-2.6393,-2.6393,-2.6393,-2.6393,-2.6393,-2.6393,-2.6393,-2.6393,-2.6393,-2.6393,-2.6393,-2.6393,-2.6393,-2.6393,-2.6393,-2.6393,-2.6393,-2.6393,-2.6393,-2.6393,-2.6393,-2.6393,-2.6393,-2.6393,-2.6393,-2.6393,-2.6393,-2.6544,-2.7162,-2.7312,-2.7312,-2.7312,-2.7312,-2.7155,-2.6847,-2.6853,-2.7004,-2.7155,-2.6696,-2.6393,-2.6702,-2.7004,-2.7162,-2.7455,-2.8068,-2.9589,-3.0807,-3.1879,-3.2944,-3.4601,-3.5515,-3.6127,-3.658,-3.7355,-3.7658,-3.7658,-3.6442,-3.5366,-3.5366,-3.5068,-3.446,-3.431,-3.476,-3.476,-3.4469,-3.3566,-3.2497,-3.2649,-3.2944,-3.2337,-3.2184,-3.2184,-3.1574,-3.0053,-2.8834,-2.8225,-2.8225,-2.8686,-2.8842,-2.6393,-2.6393,-2.6393,-2.6393,-2.6393,-2.6393,-2.6393,-2.6393,-2.6393,-2.6393,-2.6393,-2.6393,-2.6393,-2.6393,-2.6393,-2.6393,-2.6393,-2.6393,-2.6393,-2.6393,-2.6393,-2.6393,-2.6393,-2.6393,-2.6393,-2.6393,-2.6393,-2.6393,-2.6393,-2.6393,-2.6393,-2.6393,-2.6393,-2.6393,-2.6393,-2.6393,-2.6393,-2.6393,-2.6393,-2.6393,-2.6393,-2.6393,-2.6393,-2.6393,-2.6393,-2.6393,-2.6393,-2.6393,-2.6393,-2.6393,-2.6393,-2.6393,-2.6393,-2.6393,-2.6393,-2.6393,-2.6393,-2.6393,-2.6393,-2.6393,-2.6393,-2.6393,-2.6393,-2.6393,-2.6393,-2.6393,-2.6393,-2.6393,-2.6393,-2.6393,-2.6393,-2.6393,-2.6393,-2.6393,-2.6393,-2.6393,-2.6393,-2.6393,-2.6393,-2.6702,-2.7004,-2.7919,-2.899,-3.006,-3.1276,-3.2193,-3.2952,-3.3566,-3.3708,-3.4169,-3.4909,-3.4909,-3.416,-3.3398,-3.3247,-3.2936,-3.2337,-3.2337,-3.2792,-3.2649,-3.2353,-3.1284,-3.0369,-3.1276,-3.1582,-3.0823,-3.0207,-3.0207,-2.9286,-2.8068,-2.7455,-2.7312,-2.7004,-2.7312,-2.7155,-2.6393,-2.6393,-2.6393,-2.6393,-2.6393,-2.6393,-2.6393,-2.6393,-2.6393,-2.6393,-2.6393,-2.6393,-2.6393,-2.6393,-2.6393,-2.6393,-2.6393,-2.6393,-2.6393,-2.6393,-2.6393,-2.6393,-2.6393,-2.6393,-2.6393,-2.6393,-2.6393,-2.6393,-2.6393,-2.6393,-2.6393,-2.6393,-2.6393,-2.6393,-2.6393,-2.6393,-2.6393,-2.6393,-2.6393,-2.6393,-2.6393,-2.6393,-2.6393,-2.6393,-2.6393,-2.6393,-2.6393,-2.6393,-2.6393,-2.6393,-2.6393,-2.6393,-2.6393,-2.6393,-2.6393,-2.6393,-2.6393,-2.6393,-2.6393,-2.6393,-2.6393,-2.6393,-2.6393,-2.6393,-2.6393,-2.6393,-2.6393,-2.6393,-2.6393,-2.6393,-2.6393,-2.6393,-2.6393,-2.6393,-2.6393,-2.6393,-2.6393,-2.6393,-2.6393,-2.6551,-2.6696,-2.6847,-2.7769,-2.7769,-2.899,-3.0354,-3.113,-3.1896,-3.1896,-3.1437,-3.2032,-3.2328,-3.1574,-3.1276,-3.1115,-3.0815,-3.0515,-3.0515,-3.0823,-3.0215,-2.9604,-2.8842,-2.8381,-2.9146,-2.9293,-2.8537,-2.8076,-2.8374,-2.8068,-2.7155,-2.6696,-2.6544,-2.6393,-2.6393,-2.6544,-2.6393,-2.6393,-2.6393,-2.6393,-2.6393,-2.6393,-2.6393,-2.6393,-2.6393,-2.6393,-2.6393,-2.6393,-2.6393,-2.6393,-2.6393,-2.6393,-2.6393,-2.6393,-2.6393,-2.6393,-2.6393,-2.6393,-2.6393,-2.6393,-2.6393,-2.6393,-2.6393,-2.6393,-2.6393,-2.6393,-2.6393,-2.6393,-2.6393,-2.6393,-2.6393,-2.6393,-2.6393,-2.6393,-2.6393,-2.6393,-2.6393,-2.6393,-2.6393,-2.6393,-2.6393,-2.6393,-2.6393,-2.6393,-2.6393,-2.6393,-2.6393,-2.6393,-2.6393,-2.6393,-2.6393,-2.6393,-2.6393,-2.6393,-2.6393,-2.6393,-2.6393,-2.6393,-2.6393,-2.6393,-2.6393,-2.6393,-2.6393,-2.6393,-2.6393,-2.6393,-2.6393,-2.6393,-2.6393,-2.6393,-2.6393,-2.6393,-2.6393,-2.6393,-2.6393,-2.6393,-2.6393,-2.6544,-2.6544,-2.6544,-2.7312,-2.8679,-2.9441,-3.0361,-3.0669,-2.9604,-2.9449,-2.9596,-2.9293,-2.9146,-2.899,-2.899,-2.8686,-2.853,-2.8537,-2.7769,-2.7162,-2.7155,-2.7162,-2.6853,-2.6853,-2.7011,-2.6853,-2.7004,-2.6544,-2.6386,-2.6393,-2.6393,-2.6393,-2.6393,-2.6393,-2.6393,-2.6393,-2.6393,-2.6393,-2.6393,-2.6393,-2.6393,-2.6393,-2.6393,-2.6393,-2.6393,-2.6393,-2.6393,-2.6393,-2.6393,-2.6393,-2.6393,-2.6393,-2.6393,-2.6393,-2.6393,-2.6393,-2.6393,-2.6393,-2.6393,-2.6393,-2.6393,-2.6393,-2.6393,-2.6393,-2.6393,-2.6393,-2.6393,-2.6393,-2.6393,-2.6393,-2.6393,-2.6393,-2.6393,-2.6393,-2.6393,-2.6393,-2.6393,-2.6393,-2.6393,-2.6393,-2.6393,-2.6393,-2.6393,-2.6393,-2.6393,-2.6393,-2.6393,-2.6393,-2.6393,-2.6393,-2.6393,-2.6393,-2.6393,-2.6393,-2.6393,-2.6393,-2.6393,-2.6393,-2.6393,-2.6393,-2.6393,-2.6393,-2.6393,-2.6393,-2.6393,-2.6393,-2.6393,-2.6393,-2.6393,-2.6393,-2.6393,-2.6393,-2.6393,-2.6393,-2.6393,-2.6393,-2.6393,-2.6393,-2.6544,-2.7462,-2.7462,-2.8232,-2.8381,-2.7619,-2.7155,-2.7312,-2.7305,-2.7004,-2.7004,-2.7305,-2.7155,-2.6853,-2.6696,-2.6696,-2.6696,-2.6544,-2.6393,-2.6393,-2.6393,-2.6544,-2.6393,-2.6393,-2.6393,-2.6393,-2.6393,-2.6393,-2.6393,-2.6393,-2.6393]}]]